[[{"header":{"parameterUnit":"m.s-1","parameterCategory":1,"la1":31.0,"la2":29.5877,"lo1":-88.7671,"lo2":-86.6584,"dy":0.0162,"dx":0.0185,"nx":115,"ny":88,"refTime":"2024-05-19T12:00:00:Z","depth":0,"parameterNumber":2,"parameterNumberName":"U-component_of_WINDS"},"data":[0.0,0.0,0.0,0.0,0.0,0.0,0.0,0.0,0.0,0.0,0.0,0.0,0.0,0.0,0.0,0.0,0.0,0.0,0.0,0.0,0.0,0.0,0.0,0.0,0.0,0.0,0.0,0.0,0.0,0.0,0.0,0.0,0.0,0.0,0.0,0.0,0.0,0.0,0.0,0.0,0.0,0.0,0.0,0.0,0.0,0.0,0.0,0.0,0.0,0.0,0.0,0.0,0.0,0.0,0.0,0.0,0.0,0.0,0.0,0.0,0.0,0.0,0.0,0.0,0.0,0.0,0.0,0.0,0.0,0.0,0.0,0.0,0.0,0.0,0.0,0.0,0.0,0.0,0.0,0.0,0.0,0.0,0.0,0.0,0.0,0.0,0.0,0.0,0.0,0.0,0.0,0.0,0.0,0.0,0.0,0.0,0.0,0.0,0.0,0.0,0.0,0.0,0.0,0.0,0.0,0.0,0.0,0.0,0.0,0.0,0.0,0.0,0.0,0.0,0.0,0.0,0.0,0.0,0.0,0.0,0.0,0.0,0.0,0.0,0.0,0.0,0.0,0.0,0.0,0.0,0.0,0.0,0.0,0.0,0.0,0.0,0.0,0.0,0.0,0.0,0.0,0.0,0.0,0.0,0.0,0.0,0.0,0.0,0.0,0.0,0.0,0.0,0.0,0.0,0.0,0.0,0.0,0.0,0.0,0.0,0.0,0.0,0.0,0.0,0.0,0.0,0.0,0.0,0.0,0.0,0.0,0.0,0.0,0.0,0.0,0.0,0.0,0.0,0.0,0.0,0.0,0.0,0.0,0.0,0.0,0.0,0.0,0.0,0.0,0.0,0.0,0.0,0.0,0.0,0.0,0.0,0.0,0.0,0.0,0.0,0.0,0.0,0.0,0.0,0.0,0.0,0.0,0.0,0.0,0.0,0.0,0.0,0.0,0.0,0.0,0.0,0.0,0.0,0.0,0.0,0.0,0.0,0.0,0.0,0.0,0.0,0.0,0.0,0.0,0.0,0.0,0.0,0.0,0.0,0.0,0.0,0.0,0.0,0.0,0.0,0.0,0.0,0.0,0.0,0.0,0.0,0.0,0.0,0.0,0.0,0.0,0.0,0.0,0.0,0.0,0.0,0.0,0.0,0.0,0.0,0.0,0.0,0.0,0.0,0.0,0.0,0.0,0.0,0.0,0.0,0.0,0.0,0.0,0.0,0.0,0.0,0.0,0.0,0.0,0.0,0.0,0.0,0.0,0.0,0.0,0.0,0.0,0.0,0.0,0.0,0.0,0.0,0.0,0.0,0.0,0.0,0.0,0.0,0.0,0.0,0.0,0.0,0.0,0.0,0.0,0.0,0.0,0.0,0.0,0.0,0.0,0.0,0.0,0.0,0.0,0.0,0.0,0.0,0.0,0.0,0.0,0.0,0.0,0.0,0.0,0.0,0.0,0.0,0.0,0.0,0.0,0.0,0.0,0.0,0.0,0.0,0.0,0.0,0.0,0.0,0.0,0.0,0.0,0.0,0.0,0.0,0.0,0.0,0.0,0.0,0.0,0.0,0.0,0.0,0.0,0.0,0.0,0.0,0.0,0.0,0.0,0.0,0.0,0.0,0.0,0.0,0.0,0.0,0.0,0.0,0.0,0.0,0.0,0.0,0.0,0.0,0.0,0.0,0.0,0.0,0.0,0.0,0.0,0.0,0.0,0.0,0.0,0.0,0.0,0.0,0.0,0.0,0.0,0.0,0.0,0.0,0.0,0.0,0.0,0.0,0.0,0.0,0.0,0.0,0.0,0.0,0.0,0.0,0.0,0.0,0.0,0.0,0.0,0.0,0.0,0.0,0.0,0.0,0.0,0.0,0.0,0.0,0.0,0.0,0.0,0.0,0.0,0.0,0.0,0.0,0.0,0.0,0.0,0.0,0.0,0.0,0.0,0.0,0.0,0.0,0.0,0.0,0.0,0.0,0.0,0.0,0.0,0.0,0.0,0.0,0.0,0.0,0.0,0.0,0.0,0.0,0.0,0.0,0.0,0.0,0.0,0.0,0.0,0.0,0.0,0.0,0.0,0.0,0.0,0.0,0.0,0.0,0.0,0.0,0.0,0.0,0.0,0.0,0.0,0.0,0.0,0.0,0.0,0.0,0.0,0.0,0.0,0.0,0.0,0.0,0.0,0.0,0.0,0.0,0.0,0.0,0.0,0.0,0.0,0.0,0.0,0.0,0.0,0.0,0.0,0.0,0.0,0.0,0.0,0.0,0.0,0.0,0.0,0.0,0.0,0.0,0.0,0.0,0.0,0.0,0.0,0.0,0.0,0.0,0.0,0.0,0.0,0.0,0.0,0.0,0.0,0.0,0.0,0.0,0.0,0.0,0.0,0.0,0.0,0.0,0.0,0.0,0.0,0.0,0.0,0.0,0.0,0.0,0.0,0.0,0.0,0.0,0.0,0.0,0.0,0.0,0.0,0.0,0.0,0.0,0.0,0.0,0.0,0.0,0.0,0.0,0.0,0.0,0.0,0.0,0.0,0.0,0.0,0.0,0.0,0.0,0.0,0.0,0.0,0.0,0.0,0.0,0.0,0.0,0.0,0.0,0.0,0.0,0.0,0.0,0.0,0.0,0.0,0.0,0.0,0.0,0.0,0.0,0.0,0.0,0.0,0.0,0.0,0.0,0.0,0.0,0.0,0.0,0.0,0.0,0.0,0.0,0.0,0.0,0.0,0.0,0.0,0.0,0.0,0.0,0.0,0.0,0.0,0.0,0.0,0.0,0.0,0.0,0.0,0.0,0.0,0.0,0.0,0.0,0.0,0.0,0.0,0.0,0.0,0.0,0.0,0.0,0.0,0.0,0.0,0.0,0.0,0.0,0.0,0.0,0.0,0.0,0.0,0.0,0.0,0.0,0.0,0.0,0.0,0.0,0.0,0.0,0.0,0.0,0.0,0.0,0.0,0.0,0.0,0.0,0.0,0.0,0.0,0.0,0.0,0.0,0.0,0.0,0.0,0.0,0.0,0.0,0.0,0.0,0.0,0.0,0.0,0.0,0.0,0.0,0.0,0.0,0.0,0.0,0.0,0.0,0.0,0.0,0.0,0.0,0.0,0.0,0.0,0.0,0.0,0.0,0.0,0.0,0.0,0.0,0.0,0.0,0.0,0.0,0.0,0.0,0.0,0.0,0.0,0.0,0.0,0.0,0.0,0.0,0.0,0.0,0.0,0.0,0.0,0.0,0.0,0.0,0.0,0.0,0.0,0.0,0.0,0.0,0.0,0.0,0.0,0.0,0.0,0.0,0.0,0.0,0.0,0.0,0.0,0.0,0.0,0.0,0.0,0.0,0.0,0.0,0.0,0.0,0.0,0.0,0.0,0.0,0.0,0.0,0.0,0.0,0.0,0.0,0.0,0.0,0.0,0.0,0.0,0.0,0.0,0.0,0.0,0.0,0.0,0.0,0.0,0.0,0.0,0.0,0.0,0.0,0.0,0.0,0.0,0.0,0.0,0.0,0.0,0.0,0.0,0.0,0.0,0.0,0.0,0.0,0.0,0.0,0.0,0.0,0.0,0.0,0.0,0.0,0.0,0.0,0.0,0.0,0.0,0.0,0.0,0.0,0.0,0.0,0.0,0.0,0.0,0.0,0.0,0.0,0.0,0.0,0.0,0.0,0.0,0.0,0.0,0.0,0.0,0.0,0.0,0.0,0.0,0.0,0.0,0.0,0.0,0.0,0.0,0.0,0.0,0.0,0.0,0.0,0.0,0.0,0.0,0.0,0.0,0.0,0.0,0.0,0.0,0.0,0.0,0.0,0.0,0.0,0.0,0.0,0.0,0.0,0.0,0.0,0.0,0.0,0.0,0.0,0.0,0.0,0.0,0.0,0.0,0.0,0.0,0.0,0.0,0.0,0.0,0.0,0.0,0.0,0.0,0.0,0.0,0.0,0.0,0.0,0.0,0.0,0.0,0.0,0.0,0.0,0.0,0.0,0.0,0.0,0.0,0.0,0.0,0.0,0.0,0.0,0.0,0.0,0.0,0.0,0.0,0.0,0.0,0.0,0.0,0.0,0.0,0.0,0.0,0.0,0.0,0.0,0.0,0.0,0.0,0.0,0.0,0.0,0.0,0.0,0.0,0.0,0.0,0.0,0.0,0.0,0.0,0.0,0.0,0.0,0.0,0.0,0.0,0.0,0.0,0.0,0.0,0.0,0.0,0.0,0.0,0.0,0.0,0.0,0.0,0.0,0.0,0.0,0.0,0.0,0.0,0.0,0.0,0.0,2.6992,0.0,0.0,0.0,0.0,0.0,0.0,0.0,0.0,0.0,0.0,0.0,0.0,0.0,0.0,0.0,0.0,0.0,0.0,0.0,0.0,0.0,0.0,0.0,0.0,0.0,0.0,0.0,0.0,0.0,0.0,0.0,0.0,0.0,0.0,0.0,0.0,0.0,0.0,0.0,0.0,0.0,0.0,0.0,0.0,0.0,0.0,0.0,0.0,0.0,0.0,0.0,0.0,0.0,0.0,0.0,0.0,0.0,0.0,0.0,0.0,0.0,0.0,0.0,0.0,0.0,0.0,0.0,0.0,0.0,0.0,0.0,0.0,0.0,0.0,0.0,0.0,0.0,0.0,0.0,0.0,0.0,0.0,0.0,0.0,0.0,0.0,0.0,0.0,0.0,0.0,0.0,0.0,0.0,0.0,0.0,0.0,0.0,0.0,0.0,0.0,0.0,0.0,0.0,0.0,0.0,0.0,0.0,0.0,0.0,0.0,2.9656,2.9175,2.9956,2.9273,2.6968,0.0,0.0,0.0,0.0,0.0,0.0,0.0,0.0,0.0,0.0,0.0,0.0,0.0,0.0,0.0,0.0,0.0,0.0,0.0,0.0,0.0,0.0,0.0,0.0,0.0,0.0,0.0,0.0,0.0,0.0,0.0,0.0,0.0,0.0,0.0,0.0,0.0,0.0,0.0,0.0,0.0,0.0,0.0,0.0,0.0,0.0,0.0,0.0,0.0,0.0,0.0,0.0,0.0,0.0,0.0,0.0,0.0,0.0,0.0,0.0,0.0,0.0,0.0,0.0,0.0,0.0,0.0,0.0,0.0,0.0,0.0,0.0,0.0,0.0,0.0,0.0,0.0,0.0,0.0,0.0,0.0,0.0,0.0,0.0,0.0,0.0,0.0,0.0,0.0,0.0,0.0,0.0,0.0,0.0,0.0,0.0,0.0,0.0,0.0,0.0,0.0,0.0,0.0,0.0,0.0,0.0,0.0,0.0,0.0,0.0,0.0,0.0,2.9583,2.8801,2.6651,0.0,0.0,0.0,0.0,0.0,0.0,0.0,0.0,0.0,0.0,0.0,0.0,0.0,0.0,0.0,0.0,0.0,0.0,0.0,0.0,0.0,0.0,0.0,0.0,0.0,0.0,0.0,0.0,0.0,0.0,0.0,0.0,0.0,0.0,0.0,0.0,0.0,0.0,0.0,0.0,0.0,0.0,0.0,0.0,0.0,0.0,0.0,0.0,0.0,0.0,0.0,0.0,0.0,0.0,0.0,0.0,0.0,0.0,0.0,0.0,0.0,0.0,0.0,0.0,0.0,0.0,0.0,0.0,0.0,0.0,0.0,0.0,0.0,0.0,0.0,0.0,0.0,0.0,0.0,0.0,0.0,0.0,0.0,0.0,0.0,0.0,0.0,0.0,0.0,0.0,0.0,0.0,0.0,0.0,0.0,0.0,0.0,0.0,0.0,0.0,0.0,0.0,0.0,0.0,0.0,0.0,0.0,0.0,0.0,0.0,2.8506,2.9151,2.8486,0.0,2.5954,0.0,0.0,0.0,0.0,0.0,0.0,0.0,0.0,0.0,0.0,0.0,0.0,0.0,0.0,0.0,0.0,0.0,0.0,0.0,0.0,0.0,0.0,0.0,0.0,0.0,0.0,0.0,0.0,0.0,0.0,0.0,0.0,0.0,0.0,0.0,0.0,0.0,0.0,0.0,0.0,0.0,0.0,0.0,0.0,0.0,0.0,0.0,0.0,0.0,0.0,0.0,0.0,0.0,0.0,0.0,0.0,0.0,0.0,0.0,0.0,0.0,0.0,0.0,0.0,0.0,0.0,0.0,0.0,0.0,0.0,0.0,0.0,0.0,0.0,0.0,0.0,0.0,0.0,0.0,0.0,0.0,0.0,0.0,0.0,0.0,0.0,0.0,0.0,0.0,0.0,0.0,0.0,0.0,0.0,0.0,0.0,0.0,0.0,0.0,0.0,0.0,0.0,0.0,0.0,0.0,0.0,0.0,0.0,0.0,0.0,0.0,2.8555,2.7738,2.729,0.0,0.0,0.0,0.0,0.0,0.0,0.0,0.0,0.0,0.0,0.0,0.0,0.0,0.0,0.0,0.0,0.0,0.0,0.0,0.0,0.0,0.0,0.0,0.0,0.0,0.0,0.0,0.0,0.0,0.0,0.0,0.0,0.0,0.0,0.0,0.0,0.0,0.0,0.0,0.0,0.0,0.0,0.0,0.0,0.0,0.0,0.0,0.0,0.0,0.0,0.0,0.0,0.0,0.0,0.0,0.0,0.0,0.0,0.0,0.0,0.0,0.0,0.0,0.0,0.0,0.0,0.0,0.0,0.0,0.0,0.0,0.0,0.0,0.0,0.0,0.0,0.0,0.0,0.0,0.0,0.0,0.0,0.0,0.0,0.0,0.0,0.0,0.0,0.0,0.0,0.0,0.0,0.0,0.0,0.0,0.0,0.0,0.0,0.0,0.0,0.0,0.0,0.0,0.0,0.0,0.0,0.0,0.0,0.0,0.0,2.7352,0.0,2.7845,2.747,2.7362,2.7578,0.0,0.0,0.0,0.0,0.0,0.0,0.0,0.0,0.0,0.0,0.0,0.0,0.0,0.0,0.0,0.0,0.0,0.0,0.0,0.0,0.0,0.0,0.0,0.0,0.0,0.0,0.0,0.0,0.0,0.0,0.0,0.0,0.0,0.0,0.0,0.0,0.0,0.0,0.0,0.0,0.0,0.0,0.0,0.0,0.0,0.0,0.0,0.0,0.0,0.0,0.0,0.0,0.0,0.0,0.0,0.0,0.0,0.0,0.0,0.0,0.0,0.0,0.0,0.0,0.0,0.0,0.0,0.0,0.0,0.0,0.0,0.0,0.0,0.0,0.0,0.0,0.0,0.0,0.0,0.0,0.0,0.0,0.0,0.0,0.0,0.0,0.0,0.0,0.0,0.0,0.0,0.0,0.0,0.0,0.0,0.0,0.0,0.0,0.0,0.0,0.0,0.0,0.0,0.0,0.0,0.0,0.0,0.0,0.0,2.7379,2.7082,2.7374,2.7865,2.7427,0.0,0.0,0.0,0.0,0.0,0.0,0.0,0.0,0.0,0.0,0.0,0.0,0.0,0.0,0.0,0.0,0.0,0.0,0.0,0.0,0.0,0.0,0.0,0.0,0.0,0.0,0.0,0.0,0.0,0.0,0.0,0.0,0.0,0.0,0.0,0.0,0.0,0.0,0.0,0.0,0.0,0.0,0.0,0.0,0.0,0.0,0.0,0.0,0.0,0.0,0.0,0.0,0.0,0.0,0.0,0.0,0.0,0.0,0.0,0.0,0.0,0.0,0.0,0.0,0.0,0.0,0.0,0.0,0.0,0.0,0.0,0.0,0.0,0.0,0.0,0.0,0.0,0.0,0.0,0.0,0.0,0.0,0.0,0.0,0.0,0.0,0.0,0.0,0.0,0.0,0.0,0.0,0.0,0.0,0.0,0.0,0.0,0.0,0.0,0.0,0.0,0.0,0.0,0.0,0.0,0.0,0.0,0.0,0.0,2.6593,2.6793,2.7429,2.8427,2.7784,2.7184,0.0,0.0,0.0,0.0,0.0,0.0,0.0,0.0,0.0,0.0,0.0,0.0,0.0,0.0,0.0,0.0,0.0,0.0,0.0,0.0,0.0,0.0,0.0,0.0,0.0,0.0,0.0,0.0,0.0,0.0,0.0,0.0,0.0,0.0,0.0,0.0,0.0,0.0,0.0,0.0,0.0,0.0,0.0,0.0,0.0,0.0,0.0,0.0,0.0,0.0,0.0,0.0,0.0,0.0,0.0,0.0,0.0,0.0,0.0,0.0,0.0,0.0,0.0,0.0,0.0,0.0,0.0,0.0,0.0,0.0,0.0,0.0,0.0,0.0,0.0,0.0,0.0,0.0,0.0,0.0,0.0,0.0,0.0,0.0,0.0,0.0,0.0,0.0,0.0,0.0,0.0,0.0,0.0,0.0,0.0,0.0,0.0,0.0,0.0,0.0,0.0,0.0,0.0,0.0,0.0,0.0,0.0,0.0,0.0,2.652,0.0,2.7857,0.0,2.7632,2.689,0.0,0.0,0.0,0.0,0.0,0.0,0.0,0.0,0.0,0.0,0.0,0.0,0.0,0.0,0.0,0.0,0.0,0.0,0.0,0.0,0.0,0.0,0.0,0.0,0.0,0.0,0.0,0.0,0.0,0.0,0.0,0.0,0.0,0.0,0.0,0.0,0.0,0.0,0.0,0.0,0.0,0.0,0.0,0.0,0.0,0.0,0.0,0.0,0.0,0.0,0.0,0.0,0.0,0.0,0.0,0.0,0.0,0.0,0.0,0.0,0.0,0.0,0.0,0.0,0.0,0.0,0.0,0.0,0.0,0.0,0.0,0.0,0.0,0.0,0.0,0.0,0.0,0.0,0.0,0.0,0.0,0.0,0.0,0.0,0.0,0.0,0.0,0.0,0.0,0.0,0.0,0.0,0.0,0.0,0.0,0.0,0.0,0.0,0.0,0.0,0.0,0.0,0.0,0.0,0.0,0.0,0.0,0.0,2.632,2.8103,2.8163,2.812,2.8269,2.7384,2.6526,0.0,0.0,0.0,0.0,0.0,0.0,0.0,0.0,0.0,0.0,0.0,0.0,0.0,0.0,0.0,0.0,0.0,0.0,0.0,0.0,0.0,0.0,0.0,0.0,0.0,0.0,0.0,0.0,0.0,0.0,0.0,0.0,0.0,0.0,0.0,0.0,0.0,0.0,0.0,0.0,0.0,0.0,0.0,0.0,0.0,0.0,0.0,0.0,0.0,0.0,0.0,0.0,0.0,0.0,0.0,0.0,0.0,0.0,0.0,0.0,0.0,0.0,0.0,0.0,0.0,0.0,0.0,0.0,0.0,0.0,0.0,0.0,0.0,0.0,0.0,0.0,0.0,0.0,0.0,0.0,0.0,0.0,0.0,0.0,0.0,0.0,0.0,0.0,0.0,0.0,0.0,0.0,0.0,0.0,0.0,0.0,0.0,0.0,0.0,0.0,0.0,0.0,0.0,0.0,0.0,0.0,0.0,0.0,0.0,2.6167,2.5817,2.6075,2.6971,2.5976,2.5726,0.0,0.0,0.0,0.0,0.0,0.0,0.0,0.0,0.0,0.0,0.0,0.0,0.0,0.0,0.0,0.0,0.0,0.0,0.0,0.0,0.0,0.0,0.0,0.0,0.0,0.0,0.0,0.0,0.0,0.0,0.0,0.0,0.0,0.0,0.0,0.0,0.0,0.0,0.0,0.0,0.0,0.0,0.0,0.0,0.0,0.0,0.0,0.0,0.0,0.0,0.0,0.0,0.0,0.0,0.0,0.0,0.0,0.0,0.0,0.0,0.0,0.0,0.0,0.0,0.0,0.0,0.0,0.0,0.0,0.0,0.0,0.0,0.0,0.0,0.0,0.0,0.0,0.0,0.0,0.0,0.0,0.0,0.0,0.0,0.0,0.0,0.0,0.0,0.0,0.0,0.0,0.0,0.0,0.0,0.0,0.0,0.0,0.0,0.0,0.0,0.0,0.0,0.0,0.0,0.0,0.0,0.0,0.0,0.0,2.245,2.3347,2.411,2.47,2.4111,2.4436,2.5659,0.0,0.0,0.0,0.0,0.0,0.0,0.0,0.0,0.0,0.0,0.0,0.0,0.0,0.0,0.0,0.0,0.0,0.0,0.0,0.0,0.0,0.0,0.0,0.0,0.0,0.0,0.0,0.0,0.0,0.0,0.0,0.0,0.0,0.0,0.0,0.0,0.0,0.0,0.0,0.0,0.0,0.0,0.0,0.0,0.0,0.0,0.0,0.0,0.0,0.0,0.0,0.0,0.0,0.0,0.0,0.0,0.0,0.0,0.0,0.0,0.0,0.0,0.0,0.0,0.0,0.0,0.0,0.0,0.0,0.0,0.0,0.0,0.0,0.0,0.0,0.0,0.0,0.0,0.0,0.0,0.0,0.0,0.0,0.0,0.0,0.0,0.0,0.0,0.0,0.0,0.0,0.0,0.0,0.0,0.0,0.0,0.0,0.0,0.0,0.0,0.0,0.0,0.0,0.0,0.0,0.0,0.0,0.0,1.7293,2.0241,2.1555,2.131,2.1795,2.2641,0.0,0.0,0.0,0.0,0.0,0.0,0.0,0.0,0.0,0.0,0.0,0.0,0.0,0.0,0.0,0.0,0.0,0.0,0.0,0.0,0.0,0.0,0.0,0.0,0.0,0.0,0.0,0.0,0.0,0.0,0.0,0.0,0.0,0.0,0.0,0.0,0.0,0.0,0.0,0.0,0.0,0.0,0.0,0.0,0.0,0.0,0.0,0.0,0.0,0.0,0.0,0.0,0.0,0.0,0.0,0.0,0.0,0.0,0.0,0.0,0.0,0.0,0.0,0.0,0.0,0.0,0.0,0.0,0.0,0.0,0.0,0.0,0.0,0.0,0.0,0.0,0.0,0.0,0.0,0.0,0.0,0.0,0.0,0.0,0.0,0.0,0.0,0.0,0.0,0.0,0.0,0.0,0.0,0.0,0.0,0.0,0.0,0.0,0.0,0.0,0.0,0.0,0.0,0.0,0.0,0.0,0.0,0.0,0.0,1.3578,1.0458,1.1223,1.6461,1.8374,2.0454,0.0,0.0,0.0,0.0,0.0,0.0,0.0,0.0,0.0,0.0,0.0,0.0,0.0,0.0,0.0,0.0,0.0,0.0,0.0,0.0,0.0,0.0,0.0,0.0,0.0,0.0,0.0,0.0,0.0,0.0,0.0,0.0,0.0,0.0,0.0,0.0,0.0,0.0,0.0,0.0,0.0,0.0,0.0,0.0,0.0,0.0,0.0,0.0,0.0,0.0,0.0,0.0,0.0,0.0,0.0,0.0,0.0,0.0,0.0,0.0,0.0,0.0,0.0,0.0,0.0,0.0,0.0,0.0,0.0,0.0,0.0,0.0,0.0,0.0,0.0,0.0,0.0,0.0,0.0,0.0,0.0,0.0,0.0,0.0,0.0,0.0,0.0,0.0,0.0,0.0,0.0,0.0,0.0,0.0,0.0,0.0,0.0,0.0,0.0,0.0,0.0,0.0,0.0,0.0,0.0,0.0,0.0,0.0,-0.1764,0.5615,0.1592,0.2257,0.8398,1.3216,1.7251,0.0,0.0,0.0,0.0,0.0,0.0,0.0,0.0,0.0,0.0,0.0,0.0,0.0,0.0,0.0,0.0,0.0,0.0,0.0,0.0,0.0,0.0,0.0,0.0,0.0,0.0,0.0,0.0,0.0,0.0,0.0,0.0,0.0,0.0,0.0,0.0,0.0,0.0,0.0,0.0,0.0,0.0,0.0,0.0,0.0,0.0,0.0,0.0,0.0,0.0,0.0,0.0,0.0,0.0,0.0,0.0,0.0,0.0,0.0,0.0,0.0,0.0,0.0,0.0,0.0,0.0,0.0,0.0,0.0,0.0,0.0,0.0,0.0,0.0,0.0,0.0,0.0,0.0,0.0,0.0,0.0,0.0,0.0,0.0,0.0,0.0,0.0,0.0,0.0,0.0,0.0,0.0,0.0,0.0,0.0,0.0,0.0,0.0,0.0,0.0,0.0,0.0,0.0,0.0,0.0,0.0,0.0,0.0,-1.4798,-0.4007,-0.6086,-0.5269,-0.0827,0.7182,1.3632,0.0,0.0,0.0,0.0,0.0,0.0,0.0,0.0,0.0,0.0,0.0,0.0,0.0,0.0,0.0,0.0,0.0,0.0,0.0,0.0,0.0,0.0,0.0,0.0,0.0,0.0,0.0,0.0,0.0,0.0,0.0,0.0,0.0,0.0,0.0,0.0,0.0,0.0,0.0,0.0,0.0,0.0,0.0,0.0,0.0,0.0,0.0,0.0,0.0,0.0,0.0,0.0,0.0,0.0,0.0,0.0,0.0,0.0,0.0,0.0,0.0,0.0,0.0,0.0,0.0,0.0,0.0,0.0,0.0,0.0,0.0,0.0,0.0,0.0,0.0,0.0,0.0,0.0,0.0,0.0,0.0,0.0,0.0,0.0,0.0,0.0,0.0,0.0,0.0,0.0,0.0,0.0,0.0,0.0,0.0,0.0,0.0,0.0,0.0,0.0,0.0,0.0,0.0,0.0,0.0,0.0,0.0,0.0,-1.7355,-0.7467,-1.0417,-0.9933,-0.5258,0.2954,1.0509,0.0,0.0,0.0,0.0,0.0,0.0,0.0,0.0,0.0,0.0,0.0,0.0,0.0,0.0,0.0,0.0,0.0,0.0,0.0,0.0,0.0,0.0,0.0,0.0,0.0,0.0,0.0,0.0,0.0,0.0,0.0,0.0,0.0,0.0,0.0,0.0,0.0,0.0,0.0,0.0,0.0,0.0,0.0,0.0,0.0,0.0,0.0,0.0,2.6406,0.0,0.0,0.0,0.0,0.0,0.0,0.0,0.0,0.0,0.0,0.0,0.0,0.0,0.0,0.0,0.0,0.0,0.0,0.0,0.0,0.0,0.0,0.0,0.0,0.0,0.0,0.0,0.0,0.0,0.0,0.0,0.0,0.0,0.0,0.0,0.0,0.0,0.0,0.0,0.0,0.0,0.0,0.0,0.0,0.0,0.0,0.0,0.0,0.0,0.0,0.0,0.0,0.0,0.0,0.0,0.0,0.0,0.0,0.0,-2.1195,-1.3877,-1.4006,-1.2134,-0.7638,-0.1767,0.5258,0.0,0.0,0.0,0.0,0.0,0.0,0.0,0.0,0.0,0.0,0.0,0.0,0.0,0.0,0.0,0.0,0.0,0.0,0.0,0.0,0.0,0.0,0.0,0.0,0.0,0.0,0.0,0.0,0.0,0.0,0.0,0.0,0.0,0.0,0.0,0.0,0.0,0.0,0.0,0.0,0.0,0.0,0.0,0.0,0.0,0.0,0.0,0.0,0.0,0.0,0.0,0.0,0.0,0.0,0.0,0.0,0.0,0.0,0.0,0.0,0.0,0.0,0.0,0.0,0.0,0.0,0.0,0.0,0.0,0.0,0.0,0.0,0.0,0.0,0.0,0.0,0.0,0.0,0.0,0.0,0.0,0.0,0.0,0.0,0.0,0.0,0.0,0.0,0.0,0.0,0.0,0.0,0.0,0.0,0.0,0.0,0.0,0.0,0.0,0.0,0.0,0.0,0.0,0.0,0.0,0.0,0.0,-1.8792,-2.4949,-2.0323,-1.705,-1.3322,-0.9174,-0.5959,-0.0119,0.8592,0.0,0.0,0.0,0.0,0.0,0.0,0.0,0.0,0.0,0.0,0.0,0.0,0.0,0.0,0.0,0.0,0.0,0.0,0.0,0.0,0.0,0.0,0.0,0.0,0.0,0.0,0.0,0.0,0.0,0.0,0.0,0.0,0.0,0.0,0.0,0.0,0.0,0.0,2.5201,2.5343,0.0,0.0,0.0,0.0,0.0,0.0,0.0,0.0,2.4025,0.0,0.0,0.0,0.0,0.0,0.0,0.0,0.0,0.0,0.0,0.0,0.0,0.0,0.0,0.0,0.0,0.0,0.0,0.0,0.0,0.0,0.0,0.0,0.0,0.0,0.0,0.0,0.0,0.0,0.0,0.0,0.0,0.0,0.0,0.0,0.0,0.0,0.0,0.0,0.0,0.0,0.0,0.0,0.0,0.0,0.0,0.0,0.0,0.0,0.0,0.0,0.0,0.0,0.0,0.0,0.0,-0.5073,-2.0468,-2.6399,-2.2461,-1.9127,-1.5059,-1.0319,-0.7621,-0.2596,0.5156,0.0,0.0,0.0,0.0,0.0,0.0,0.0,0.0,0.0,0.0,0.0,0.0,0.0,0.0,0.0,0.0,0.0,0.0,0.0,0.0,0.0,0.0,0.0,0.0,0.0,0.0,0.0,0.0,0.0,0.0,0.0,0.0,0.0,0.0,0.0,0.0,0.0,0.0,0.0,2.5133,2.43,0.0,0.0,0.0,0.0,0.0,0.0,0.0,0.0,2.0704,0.0,0.0,0.0,0.0,0.0,0.0,0.0,0.0,0.0,0.0,0.0,0.0,0.0,0.0,0.0,0.0,0.0,0.0,0.0,0.0,0.0,0.0,0.0,0.0,0.0,0.0,0.0,0.0,0.0,0.0,0.0,0.0,0.0,0.0,0.0,0.0,0.0,0.0,0.0,0.0,0.0,0.0,0.0,0.0,0.0,0.0,0.0,0.0,0.0,0.0,0.0,0.0,0.0,0.0,0.0,-0.6821,-2.0115,-2.5389,-2.2621,-1.889,-1.5002,-1.0909,-0.8604,-0.4153,0.0,0.0,0.0,0.0,0.0,0.0,0.0,0.0,0.0,0.0,0.0,0.0,0.0,0.0,0.0,0.0,0.0,0.0,0.0,0.0,0.0,0.0,0.0,0.0,0.0,0.0,0.0,0.0,0.0,0.0,0.0,0.0,0.0,0.0,0.0,0.0,0.0,0.0,0.0,0.0,2.2112,2.0859,2.2043,0.0,0.0,0.0,0.0,0.0,0.0,1.5932,1.5619,0.0,0.0,0.0,0.0,0.0,0.0,0.0,0.0,0.0,0.0,0.0,0.0,0.0,0.0,0.0,0.0,0.0,0.0,0.0,0.0,0.0,0.0,0.0,0.0,0.0,0.0,0.0,0.0,0.0,0.0,0.0,0.0,0.0,0.0,0.0,0.0,0.0,0.0,0.0,0.0,0.0,0.0,0.0,0.0,0.0,0.0,0.0,0.0,0.0,0.0,0.0,0.0,0.0,0.0,0.0,-0.8548,-1.9553,-2.4186,-2.2346,-1.8482,-1.4702,-1.1302,-0.9141,-0.5133,0.0,0.0,0.0,0.0,0.0,0.0,0.0,0.0,0.0,0.0,0.0,0.0,0.0,0.0,0.0,0.0,0.0,0.0,0.0,0.0,0.0,0.0,0.0,0.0,0.0,0.0,0.0,0.0,0.0,0.0,0.0,0.0,0.0,0.0,0.0,0.0,0.0,0.0,0.0,0.0,0.0,1.6982,1.889,1.3187,0.0,0.0,0.0,0.0,1.0451,1.0074,0.0,0.0,0.0,0.0,0.0,0.0,0.0,0.0,0.0,0.0,0.0,0.0,0.0,0.0,0.0,0.0,0.0,0.0,0.0,0.0,0.0,0.0,0.0,0.0,0.0,0.0,0.0,0.0,0.0,0.0,0.0,0.0,0.0,0.0,0.0,0.0,0.0,0.0,0.0,0.0,0.0,0.0,0.0,0.0,0.0,0.0,0.0,0.0,0.0,0.0,0.0,0.0,0.0,0.0,0.0,0.0,-1.0001,-2.0115,-2.4316,-2.2684,-1.9197,-1.5477,-1.1574,-0.9269,-0.5329,0.0,0.0,0.0,0.0,0.0,0.0,0.0,0.0,0.0,0.0,0.0,0.0,0.0,0.0,0.0,0.0,0.0,0.0,0.0,0.0,0.0,0.0,0.0,0.0,0.0,0.0,0.0,0.0,0.0,0.0,0.0,0.0,0.0,0.0,0.0,0.0,0.0,0.0,0.0,0.0,0.0,1.3677,0.9783,0.6312,0.4312,0.0,0.0,0.432,0.472,0.3882,0.0,0.0,0.0,0.0,0.0,0.0,0.0,0.0,0.0,0.0,0.0,0.0,0.0,0.0,0.0,0.0,0.0,0.0,0.0,0.0,0.0,0.0,0.0,0.0,0.0,0.0,0.0,0.0,0.0,0.0,0.0,0.0,0.0,0.0,0.0,0.0,0.0,0.0,0.0,0.0,0.0,0.0,0.0,0.0,0.0,0.0,0.0,0.0,0.0,0.0,0.0,0.0,0.0,0.0,0.0,-0.0557,-1.2768,-2.1,-2.4177,-2.228,-1.9051,-1.5625,-1.2093,-0.9295,-0.5671,0.0,0.0,0.0,0.0,0.0,0.0,0.0,0.0,0.0,0.0,0.0,0.0,0.0,0.0,0.0,0.0,0.0,0.0,0.0,0.0,0.0,0.0,0.0,0.0,0.0,0.0,0.0,0.0,0.0,0.0,0.0,0.0,0.0,0.0,0.0,0.0,0.0,0.0,0.0,0.0,0.0,0.0,0.166,-0.1419,0.0,0.0,0.0,-0.2269,-0.1448,0.0,0.0,0.0,0.0,0.0,0.0,0.0,0.0,0.0,0.0,0.0,0.0,0.0,0.0,0.0,0.0,0.0,0.0,0.0,0.0,0.0,0.0,0.0,0.0,0.0,0.0,0.0,0.0,0.0,0.0,0.0,0.0,0.0,0.0,0.0,0.0,0.0,0.0,0.0,0.0,0.0,0.0,0.0,0.0,0.0,0.0,0.0,0.0,0.0,0.0,0.0,0.0,0.0,0.0,0.0,0.0,0.0,-1.5367,-2.0896,-2.3067,-2.1733,-1.8605,-1.5477,-1.2425,-0.9807,0.0,0.0,0.0,0.0,0.0,0.0,0.0,0.0,0.0,0.0,0.0,0.0,0.0,0.0,0.0,0.0,0.0,0.0,0.0,0.0,0.0,0.0,0.0,0.0,0.0,0.0,0.0,1.8951,0.0,0.0,0.0,0.0,0.0,0.0,0.0,0.0,0.0,0.0,0.0,0.0,0.0,0.0,0.3169,-0.5222,-0.8301,-0.9658,0.0,0.0,-0.8548,-0.7451,-0.8783,-0.8747,0.0,0.0,0.0,0.0,0.0,0.0,0.0,0.0,0.0,0.0,0.0,0.0,0.0,0.0,0.0,0.0,0.0,0.0,0.0,0.0,0.0,0.0,0.0,0.0,0.0,0.0,0.0,0.0,0.0,0.0,0.0,0.0,0.0,0.0,0.0,0.0,0.0,0.0,0.0,0.0,0.0,0.0,0.0,0.0,0.0,0.0,0.0,0.0,0.0,0.0,0.0,0.0,0.0,0.0,0.0,-1.6995,-1.9022,-2.0416,-2.1194,-1.7948,-1.4903,-1.2323,-1.1247,-0.8905,0.0,0.0,0.0,0.0,0.0,0.0,0.0,0.0,0.0,0.0,0.0,0.0,0.0,0.0,0.0,0.0,0.0,0.0,0.0,0.0,0.0,0.0,0.0,0.0,0.0,0.0,0.0,0.0,0.0,0.0,0.0,0.0,0.0,0.0,0.0,0.0,0.0,0.0,0.0,0.0,0.0,-0.0935,-1.0485,-1.3289,-1.4488,0.0,0.0,-1.3838,-1.2888,-1.3215,-1.2359,-0.8621,0.0,0.0,0.0,0.0,0.0,0.0,0.0,0.0,0.0,0.0,0.0,0.0,0.0,0.0,0.0,0.0,0.0,0.0,0.0,0.0,0.0,0.0,0.0,0.0,0.0,0.0,0.0,0.0,0.0,0.0,0.0,0.0,0.0,0.0,0.0,0.0,0.0,0.0,0.0,0.0,0.0,0.0,0.0,0.0,0.0,0.0,0.0,0.0,0.0,0.0,0.0,0.0,0.0,-1.2707,-1.8328,-2.1197,-2.1793,-2.0078,-1.735,-1.4755,-1.2402,-1.165,-0.9395,0.0,0.0,0.0,0.0,0.0,0.0,0.0,0.0,0.0,0.0,0.0,0.0,0.0,0.0,0.0,0.0,0.0,0.0,0.0,0.0,0.0,0.0,0.0,0.0,0.0,0.0,0.0,0.0,2.1472,2.1697,2.1399,0.0,0.0,0.0,0.0,0.0,0.0,0.0,0.0,0.0,0.0,-0.6887,-1.5393,-1.6895,0.0,0.0,-1.6475,-1.5817,-1.5158,-1.4265,-1.2896,-1.0929,-0.7952,0.0,0.0,0.0,0.0,0.0,0.0,0.0,0.0,0.0,0.0,0.0,0.0,0.0,0.0,0.0,0.0,0.0,0.0,0.0,0.0,0.0,0.0,0.0,0.0,0.0,0.0,0.0,0.0,0.0,0.0,0.0,0.0,0.0,0.0,0.0,0.0,0.0,0.0,0.0,0.0,0.0,0.0,0.0,0.0,0.0,0.0,0.0,0.0,0.0,0.0,0.0,0.0,-1.5575,-1.9402,-2.1704,-2.1581,-1.8976,-1.6939,-1.4676,-1.2182,-1.1993,-1.0,0.0,0.0,0.0,0.0,0.0,0.0,0.0,0.0,0.0,0.0,0.0,0.0,0.0,0.0,0.0,0.0,0.0,0.0,0.0,0.0,0.0,0.0,0.0,0.0,0.0,0.0,0.0,0.0,2.1186,2.1082,2.0952,0.0,0.0,0.0,0.0,0.0,0.0,0.0,0.0,0.0,0.0,-1.1909,-1.8955,-1.9709,-1.93,-1.8787,-1.8164,-1.7517,-1.6791,-1.5215,-1.3743,-1.2553,0.0,0.0,0.0,0.0,0.0,0.0,0.0,0.0,0.0,0.0,0.0,0.0,0.0,0.0,0.0,0.0,0.0,0.0,0.0,0.0,0.0,0.0,0.0,0.0,0.0,0.0,0.0,0.0,0.0,0.0,0.5725,0.0,0.0,0.0,0.0,0.0,0.0,0.0,0.0,0.0,0.0,0.0,0.0,0.0,0.0,0.0,0.0,0.0,0.0,0.0,0.0,0.0,0.0,-1.5887,-2.0351,-1.9526,-1.8687,-1.7986,-1.6705,-1.4481,-1.1502,-1.2389,-1.0982,-0.6837,0.0,0.0,0.0,0.0,0.0,0.0,0.0,0.0,0.0,0.0,0.0,0.0,0.0,0.0,0.0,0.0,0.0,0.0,0.0,0.0,0.0,0.0,0.0,0.0,0.0,0.0,1.9642,1.9364,1.8948,0.0,0.0,0.0,0.0,0.0,0.0,0.0,0.0,0.0,0.0,-1.1413,-1.5396,-2.0807,-2.1741,-2.1403,-2.0597,-2.0087,-1.9324,-1.7861,-1.6789,-1.5436,0.0,0.0,0.0,0.0,0.0,0.0,0.0,0.0,0.0,0.0,0.0,0.0,0.0,0.0,0.0,0.0,0.0,0.0,0.0,0.0,0.0,0.0,0.0,0.0,0.0,0.0,0.0,-0.2591,-0.2344,0.0,0.0,0.0,0.0,0.0,0.0,0.0,0.0,0.0,0.0,0.0,-2.073,-2.0058,0.0,0.0,0.0,0.0,0.0,0.0,0.0,0.0,0.0,0.0,0.0,0.0,-1.7718,-1.8835,-1.8852,-1.7997,-1.6405,-1.5605,-1.406,-1.1674,-1.2089,-1.0352,-0.5996,0.0,0.0,0.0,0.0,0.0,0.0,0.0,0.0,0.0,0.0,0.0,0.0,0.0,0.0,0.0,0.0,0.0,0.0,0.0,0.0,0.0,0.0,0.0,0.0,0.0,1.7932,0.0,0.0,0.0,0.0,0.0,0.0,0.0,0.0,0.0,0.0,0.0,-1.0221,-1.8459,-1.8748,-1.8955,-2.1058,-2.1073,-2.0685,0.0,0.0,0.0,0.0,0.0,0.0,0.0,0.0,0.0,0.0,0.0,0.0,0.0,0.0,-0.9055,-0.7649,-0.7326,-0.7287,-0.7356,0.0,0.0,0.0,0.0,0.0,0.0,0.0,0.0,0.0,0.0,0.0,0.0,0.0,0.0,0.0,0.0,-0.719,0.0,0.0,0.0,0.0,0.0,0.0,0.0,0.0,-1.8951,-2.1568,-2.2716,-2.2502,-2.1925,0.0,-2.107,-1.9682,0.0,0.0,0.0,0.0,0.0,0.0,0.0,0.0,-1.8344,-1.7991,-1.7971,-1.7247,-1.5856,-1.4833,-1.3432,-1.1611,-1.0872,-0.8871,-0.5539,-0.4203,-0.3296,0.0,0.0,0.0,0.0,0.0,0.0,0.0,0.0,0.0,0.0,0.0,0.0,0.0,0.0,0.0,0.0,0.0,0.0,0.0,0.0,0.0,0.0,0.0,1.6203,0.0,0.0,0.0,0.0,0.0,0.0,0.0,0.0,0.0,-0.713,-1.1352,-1.6717,-2.2903,-2.2457,-2.1488,-2.1512,0.0,0.0,0.0,0.0,0.0,0.0,0.0,-1.6005,-1.5275,-1.3613,-1.2203,-1.1841,-1.2024,-1.2234,-1.2234,0.0,0.0,-1.1006,-1.0796,-1.0912,-1.0906,-1.0906,-1.0883,-1.079,-1.1129,-1.1834,0.0,0.0,0.0,0.0,0.0,0.0,0.0,0.0,-1.4689,-1.3865,0.0,-1.2157,0.0,0.0,0.0,0.0,0.0,-1.5551,0.0,0.0,-2.3748,-2.5524,-2.3638,-2.3563,-2.3585,-2.3529,-2.2603,-2.2461,-2.2885,-2.181,0.0,0.0,0.0,0.0,0.0,0.0,-1.7743,-1.7703,-1.6889,-1.6392,-1.6171,-1.4355,-1.265,-1.1218,-0.883,-0.6898,-0.5519,-0.5315,-0.5104,-0.4474,-0.1164,0.0,0.0,0.0,0.0,0.0,0.0,0.0,0.0,0.0,0.0,0.0,0.0,0.0,0.0,0.0,0.0,0.0,0.0,0.0,0.0,1.5279,0.0,0.0,0.0,0.0,0.0,0.0,0.0,0.0,0.0,0.0,-1.0733,-1.5857,-2.025,-2.1699,0.0,0.0,0.0,0.0,-2.2101,-1.966,-1.9987,-1.9955,-1.8368,-1.7609,-1.6948,-1.623,0.0,0.0,-1.3805,-1.3356,-1.3187,-1.328,-1.3439,-1.3581,-1.324,-1.3167,-1.3154,-1.3154,-1.3174,-1.3153,-1.2983,-1.379,-1.4662,-1.9296,0.0,0.0,0.0,0.0,-1.5889,-1.6508,-1.7341,-1.6742,-1.6217,-1.5734,-1.4658,0.0,0.0,0.0,0.0,0.0,0.0,-1.888,-2.0664,-2.3307,-2.4189,-2.3599,-2.3616,-2.3606,-2.3595,-2.3683,-2.3599,-2.334,-2.3351,-2.2231,-2.0143,0.0,0.0,0.0,0.0,-1.6732,-1.6711,-1.652,-1.5528,-1.3784,-1.2965,-1.1572,-0.9583,-0.8419,-0.7099,-0.5494,-0.5283,-0.5068,-0.468,-0.2873,0.0,0.0,0.0,0.0,0.0,0.0,0.0,0.0,0.0,0.0,0.0,0.0,0.0,0.0,0.0,0.0,0.0,0.0,0.0,0.9547,0.8066,0.6518,0.0,0.0,0.0,0.0,0.0,0.0,0.0,0.0,0.0,-1.7687,-1.9699,-2.1452,0.0,0.0,-2.1332,-2.0865,-2.0665,-2.0362,-1.9765,0.0,0.0,0.0,-1.8424,-1.7609,-1.7409,-1.6215,-1.4992,-1.4128,-1.3848,-1.3975,-1.4362,-1.4349,-1.4302,-1.4416,-1.4108,-1.3861,-1.3848,-1.3995,-1.4115,-1.4132,-1.5148,-1.6415,-2.2345,-1.9739,-1.8563,-1.8082,-1.8091,-1.7856,-1.8258,-1.9021,-1.7932,-1.7429,-1.7246,-1.6305,-1.5627,-1.518,-1.6275,0.0,0.0,0.0,-2.0246,-2.0956,-2.2751,-2.357,-2.3588,-2.3593,-2.3568,-2.3599,-2.4158,-2.4051,-2.3406,-2.3431,-2.2385,-2.0256,0.0,0.0,-1.6658,-1.6659,-1.6533,-1.6204,-1.61,-1.4706,-1.2024,-1.1748,-1.0612,-0.868,-0.8191,-0.7186,-0.5495,-0.5274,-0.5186,-0.5038,-0.4284,-0.371,0.0,0.0,0.0,0.0,0.0,0.0,0.0,0.0,0.0,0.0,0.0,1.6717,1.5594,0.0,0.0,0.0,1.1537,0.8425,0.4714,0.2327,0.0,0.0,0.0,0.0,0.0,0.0,0.0,-1.7836,-1.8431,-1.9165,-2.0901,-2.1407,-2.2034,-2.3214,-2.2615,-2.1923,-2.1368,0.0,-2.0861,-2.0249,-1.9951,-1.9793,-1.9683,-1.9125,-1.8485,-1.78,-1.6442,-1.5158,-1.4249,-1.4203,-1.4396,-1.4676,-1.4736,-1.475,-1.4937,-1.4669,-1.4436,-1.4442,-1.4569,-1.4865,-1.529,-1.6468,-1.7802,-2.4763,-2.3083,-2.084,-1.9854,-1.9779,-1.9196,-1.9286,-1.9752,-1.8768,-1.8057,-1.7584,-1.7531,-1.733,-1.7151,-1.8883,0.0,-1.9859,-2.1447,-2.1248,-1.9795,-2.2291,-2.3496,-2.3582,-2.3363,-2.3408,-2.3611,-2.4058,-2.3952,-2.3328,-2.2724,-2.1504,-1.9767,-1.9651,-1.8706,-1.6965,-1.7062,-1.6863,-1.6268,-1.5777,-1.4014,-1.0971,-1.0722,-0.9813,-0.8161,-0.8052,-0.7181,-0.5491,-0.5372,-0.5309,-0.5233,-0.5205,-0.5114,-0.4913,0.0,0.0,0.0,0.0,0.0,0.0,0.0,0.0,0.0,0.0,0.0,0.0,0.0,0.0,0.0,0.748,0.0,0.0397,-0.2651,0.0,0.0,0.0,-1.6083,-1.9289,-1.7611,-1.72,-1.9555,0.0,0.0,-2.1453,0.0,-2.2263,-2.4106,-2.4107,-2.3655,-2.2927,-2.3007,-2.274,-2.1069,-2.0768,-2.038,-1.9659,-1.9713,-1.9245,-1.7604,-1.6501,-1.553,-1.446,-1.4335,-1.4496,-1.4636,-1.4823,-1.5017,-1.5023,-1.505,-1.503,-1.503,-1.5183,-1.5507,-1.6544,-1.7811,-1.8997,-2.5758,-2.4591,-2.3531,-2.2384,-2.1201,-2.1051,-2.1066,-2.1177,-2.0524,-2.0139,-2.0024,-1.9614,-1.96,-1.9943,-2.037,-2.0625,-2.0725,-2.1485,-2.1053,-1.9823,-2.1384,-2.2673,-2.3493,-2.1629,-2.1731,-2.3493,-2.3245,-2.3022,-2.2858,-2.2707,-2.1685,-1.9905,-1.9466,-1.8305,-1.6541,-1.6615,-1.703,-1.7681,-1.6136,-1.4164,-1.1747,-1.0726,-0.9423,-0.77,-0.7909,-0.7181,-0.5491,-0.5372,-0.4761,-0.3407,-0.3306,-0.2725,-0.1384,-0.3105,0.0,0.0,0.0,0.0,0.0,0.0,0.0,0.0,0.0,1.4782,1.5036,0.0,0.7469,0.0,0.0325,-0.3521,-0.6135,-1.0449,0.0,0.0,-1.4687,-1.6686,-1.8839,-1.9333,-1.9871,-2.0977,-2.1408,-2.177,-2.2069,-2.211,-2.2628,-2.389,-2.3282,-2.2698,-2.2702,-2.3036,-2.281,-2.1639,-2.1471,-2.1339,-2.0453,-2.035,-1.9697,-1.7631,-1.707,-1.6363,-1.4699,-1.4428,-1.4663,-1.5077,-1.5237,-1.5371,-1.5565,-1.5625,-1.5611,-1.5698,-1.6155,-1.6779,-1.7041,-1.8921,-2.0651,-2.6123,-2.5173,-2.4788,-2.385,-2.2517,-2.1934,-2.1695,-2.1655,-2.1126,-2.092,-2.092,-2.0898,-2.1197,-2.1703,-2.1982,-2.2152,-2.2174,-2.2431,-2.2135,-2.1511,-2.2178,-2.2345,-2.1857,-2.0449,-2.0556,-2.1908,-2.2466,-2.2422,-2.1888,-2.241,-2.1628,-1.9515,-1.9751,-1.8928,-1.7226,-1.6992,-1.7074,-1.7412,-1.6036,-1.432,-1.2199,-1.1152,-0.9675,-0.769,-0.7744,-0.7072,-0.5368,-0.5382,-0.4926,-0.3944,-0.2389,-0.1019,-0.0124,-0.1889,-0.1823,0.0,0.0,0.0,0.0,0.0,0.0,0.0,0.0,0.0,0.0,0.0,0.2093,-0.2247,-0.6369,-0.9193,-1.0029,-1.3654,-1.5954,-1.5864,-1.7281,-1.8623,-1.9746,-2.0626,-2.1141,-2.1117,-2.1353,-2.1704,-2.2085,-2.2085,-2.2665,-2.4149,-2.3814,-2.3574,-2.3862,-2.3712,-2.3163,-2.2499,-2.1805,-2.1231,-2.0644,-2.0576,-2.0042,-1.8413,-1.7755,-1.7028,-1.549,-1.5021,-1.5023,-1.5331,-1.5498,-1.5631,-1.5792,-1.5825,-1.5825,-1.5893,-1.67,-1.7561,-1.812,-1.942,-2.0748,-2.6106,-2.5221,-2.5221,-2.4592,-2.3505,-2.2413,-2.1949,-2.1894,-2.1457,-2.1193,-2.118,-2.1815,-2.2335,-2.2733,-2.3313,-2.3551,-2.345,-2.3465,-2.3553,-2.3599,-2.3612,-2.2263,-1.983,-1.9821,-1.982,-1.987,-2.1586,-2.1953,-2.0946,-2.1999,-2.1415,-1.9278,-2.0188,-1.9872,-1.8229,-1.7668,-1.701,-1.6305,-1.5416,-1.4164,-1.2472,-1.1539,-1.0,-0.7824,-0.7639,-0.6832,-0.5189,-0.5074,-0.5088,-0.4907,-0.1791,-0.0,-0.0,-0.0,-0.0064,0.0,0.1606,0.0,0.0,0.0,0.0,0.0,0.0,0.0,0.0,-0.0057,-0.3691,-0.8134,-1.2112,-1.3884,-1.2714,-1.4788,-1.6652,-1.7798,-1.9491,-2.0673,-2.0831,-2.136,-2.1428,-2.0655,-2.059,-2.0934,-2.1582,-2.1741,-2.2433,-2.385,-2.4165,-2.4312,-2.4964,-2.4308,-2.3677,-2.3379,-2.1821,-2.0722,-2.0644,-2.0576,-2.0246,-1.9169,-1.828,-1.7447,-1.6221,-1.5643,-1.5391,-1.5418,-1.5625,-1.5812,-1.5825,-1.5825,-1.5825,-1.5825,-1.6655,-1.7717,-1.9084,-1.9676,-2.0508,-2.6123,-2.5221,-2.5221,-2.4576,-2.358,-2.334,-2.3251,-2.3236,-2.315,-2.2834,-2.2393,-2.2995,-2.3069,-2.276,-2.3318,-2.3231,-2.261,-2.2801,-2.3151,-2.3612,-2.3612,-2.2234,-1.9868,-1.9825,-1.9787,-1.9834,-2.0735,-2.1301,-2.1545,-2.1763,-2.1178,-1.984,-2.0051,-1.9495,-1.8229,0.0,0.0,0.0,-1.3634,-1.2664,-1.2539,-1.0901,-0.9166,-0.7475,-0.741,0.0,-0.4982,-0.3814,-0.3202,-0.314,-0.1171,0.0,0.0,0.0,0.0,0.0,0.0,0.0,0.0,0.0,0.0,0.0,-0.2708,-0.2371,-0.1474,-0.7722,-1.2068,-1.2636,-1.4693,-1.5908,-1.5684,-1.7265,-1.8254,-1.8276,-1.925,-1.9871,-1.9963,-2.0466,-2.0782,-2.0655,-2.059,-2.0632,-2.0819,-2.0877,-2.1175,-2.2027,-2.2332,-2.2778,-2.3381,-2.4082,-2.4024,-2.2553,-2.1308,-2.0644,-2.0576,-2.0576,-2.0256,-1.9256,-1.8331,-1.7423,-1.643,-1.5697,-1.5404,-1.5411,-1.5631,-1.5825,-1.5825,-1.5825,-1.5825,-1.5825,-1.6015,-1.6864,-1.9068,-2.0249,-2.1355,-2.6139,0.0,-2.5221,-2.4592,0.0,-2.3595,-2.3595,-2.3595,-2.3595,-2.3421,-2.3128,-2.3053,-2.3068,-2.3143,-2.3465,-2.3216,-2.2577,-2.2634,-2.2669,-2.2673,-2.2686,-2.1641,-1.9821,-1.9813,-1.9825,-1.9851,-2.0468,-2.0782,-2.0805,-2.1099,-2.082,-1.9933,-1.9933,-1.9594,-1.8958,-1.7879,-1.6718,-1.5425,-1.4326,-1.3433,-1.2796,-1.1865,-1.0114,-0.7638,0.0,0.0,0.0,0.0,0.0,0.0,0.0,0.0,0.0,0.0,0.0,-0.2673,-0.352,-0.3717,-0.3099,-0.3464,-0.4305,-0.5751,-0.7633,-0.8177,-0.6919,-1.1511,-1.4563,-1.4914,-1.5946,-1.6562,-1.6637,-1.7842,-1.8518,-1.8185,-1.9062,-1.9581,-1.9271,-1.9587,-1.9748,-1.9365,-1.9299,-1.9473,-1.9865,-1.9922,-2.0395,-2.1236,-2.1771,-2.1985,-2.2228,-2.2959,-2.2914,-2.1593,-2.0934,-2.0654,-2.0576,-2.0566,-2.0459,-1.9788,-1.8759,-1.7897,-1.7283,-1.6257,-1.5611,-1.5618,-1.5738,-1.5825,-1.5825,-1.5825,-1.5825,-1.5825,-1.5825,-1.6358,-1.828,-1.9587,-2.0757,-2.6106,-2.5221,-2.5221,-2.4576,-2.3595,-2.3595,-2.3551,-2.3465,0.0,0.0,0.0,-2.2557,-2.26,-2.3128,-2.3216,-2.295,-2.2374,-2.236,-2.2007,-2.1376,-2.1368,-2.0838,-1.9811,-1.98,-1.9798,-1.985,-2.0346,-2.0346,-1.985,-2.0346,-2.0346,-1.9862,-1.9695,-1.9475,-1.9162,-1.817,-1.6994,-1.5729,-1.5487,-1.4592,-1.3022,-1.2761,-1.1092,-0.7931,-0.787,-0.6993,-0.5114,-0.4925,-0.4308,-0.3199,-0.314,-0.3147,-0.3164,-0.321,-0.3138,-0.3252,-0.4597,-0.5389,-0.5389,-0.5552,-0.639,-0.8081,-1.0704,-1.2193,-1.2071,-1.3485,-1.4878,-1.6098,-1.6607,-1.6757,-1.6694,-1.7748,-1.825,-1.777,-1.8712,-1.9094,-1.857,-1.8796,-1.8787,-1.8134,-1.8076,-1.8271,-1.8975,-1.9063,-1.9479,-2.055,-2.1041,-2.1481,-2.136,-2.1631,-2.1593,-2.0867,-2.0644,-2.0566,-2.0333,-2.0264,-2.0226,-1.9722,-1.8658,-1.7928,-1.7647,-1.6683,-1.5859,-1.5698,-1.5778,-1.5825,-1.5825,-1.5825,-1.5825,-1.5825,-1.5825,-1.6142,-1.7437,-1.8526,-1.952,-2.6087,-2.5221,-2.5221,-2.4592,-2.3595,-2.3595,-2.3275,-2.2875,-2.3377,-2.298,-2.1965,-2.184,-2.156,-2.1224,-2.1758,-2.1629,-2.1077,-2.1077,-2.0683,0.0,-2.008,-1.9965,-1.9799,-1.9786,-1.9798,-1.9798,-1.9914,-1.9901,-1.9798,-1.9901,-1.9901,-1.9734,-1.915,-1.8221,-1.7101,-1.7398,-1.6867,-1.5505,-1.5438,-1.4522,-1.2672,-1.1674,-1.0331,-0.861,-0.8492,-0.7693,-0.6048,-0.5434,-0.4961,-0.4748,-0.4887,-0.5009,-0.4998,-0.4978,-0.5018,-0.5029,-0.5249,-0.5387,-0.5453,-0.6102,-0.7284,-0.9017,-1.104,-1.2838,-1.4321,-1.4865,-1.5575,-1.6513,-1.6963,-1.7101,-1.6821,-1.7497,-1.7905,-1.7605,-1.7969,-1.817,-1.8083,-1.8142,-1.8202,-1.8008,-1.8008,-1.8008,-1.8193,-1.8271,-1.8359,-1.8596,-1.9504,-1.9974,-2.0579,-2.0769,-2.0789,-2.0644,-2.0576,-2.0235,-1.9599,-1.9268,-1.8885,-1.7891,-1.7139,-1.6588,-1.657,-1.5929,-1.5444,-1.5458,-1.5645,-1.5792,-1.5805,-1.5825,-1.5825,-1.5825,-1.5825,-1.623,-1.7338,-1.7796,-1.8341,-2.5872,-2.5182,-2.491,-2.4107,-2.3071,-2.2727,-2.2646,-2.2687,-2.2585,-2.2259,-2.1641,-2.0953,-2.088,-2.1328,-2.1568,-2.1403,-2.0809,-2.0809,-2.0446,-1.9798,-1.9798,-1.9798,-1.9798,-1.9798,-1.9798,-1.9798,-1.9798,-1.9798,-1.9798,-1.9798,-1.9798,-1.9747,-1.9044,-1.795,-1.6673,-1.7216,-1.6623,-1.4815,-1.5167,-1.4536,-1.2829,-1.2305,-1.1076,-0.9039,-0.8977,-0.8409,-0.7216,-0.6392,-0.5959,-0.5982,-0.5619,-0.5403,-0.5401,-0.538,-0.5408,-0.5369,-0.5369,-0.5428,-0.5428,-0.6658,-0.8007,-0.9402,-1.091,-1.241,-1.3916,-1.4341,-1.4843,-1.5408,-1.5711,-1.6111,-1.6571,-1.7004,-1.7328,-1.7733,-1.7871,-1.7998,-1.8008,-1.8008,-1.8008,-1.8008,-1.8008,-1.8008,-1.8008,-1.8008,-1.8008,-1.8037,-1.8798,-1.9525,-2.0109,-2.043,-2.0566,-2.0566,-2.0089,-1.9599,-1.9036,-1.8416,-1.7929,-1.7317,-1.662,-1.6166,-1.6031,-1.5637,-1.5221,-1.5177,-1.5398,-1.5571,-1.5598,-1.5732,-1.5805,-1.5825,-1.5825,-1.6149,-1.6563,-1.6699,-1.7088,-2.5689,-2.5144,-2.4617,-2.3749,-2.2637,-2.1843,-2.1795,-2.2217,-2.2163,-2.1897,-2.1363,-2.0284,-2.0337,-2.1205,-2.1266,-2.1015,-2.0597,-2.0547,-2.0295,-1.985,-1.9798,-1.9798,-1.9798,-1.9798,-1.9798,-1.9798,-1.9798,-1.9798,-1.9798,-1.9798,-1.9631,-1.9254,-1.8715,-1.7731,-1.6322,-1.6821,-1.611,-1.4323,-1.4282,-1.38,-1.2749,-1.2757,-1.171,-0.9779,-0.9594,-0.9198,-0.835,-0.7837,-0.7316,-0.6724,-0.6075,-0.562,-0.5428,-0.5428,-0.5428,-0.5428,-0.562,-0.5815,-0.6083,-0.7381,-0.8717,-0.9632,-1.0782,-1.1819,-1.2851,-1.3278,-1.3889,-1.4527,-1.4741,-1.5226,-1.6372,-1.6597,-1.6954,-1.7852,-1.8008,-1.8008,-1.8008,-1.8008,-1.8008,-1.8008,-1.8008,-1.8008,-1.8008,-1.8008,-1.8018,-1.8213,-1.881,-1.9459,-1.9829,-2.0283,-2.0537,-2.0167,-1.952,-1.8709,-1.839,-1.7568,-1.6911,-1.669,-1.6073,-1.5616,-1.5497,-1.514,-1.4919,-1.489,-1.5104,-1.5271,-1.5317,-1.5458,-1.5571,-1.5571,-1.5558,-1.5618,-1.5772,-1.5758,-1.5994,-2.5689,-2.5144,-2.4592,-2.3749,-2.2592,-2.1457,-2.0984,-2.1195,-2.2648,-2.2434,-2.0917,-2.0109,-1.99,-1.9965,-2.0042,-1.9991,-1.9952,-1.9901,-1.985,-1.9811,-1.9798,-1.9798,-1.9798,-1.9798,-1.9798,-1.9798,-1.9798,-1.9798,-1.9798,-1.9798,-1.9097,-1.7961,-1.7731,-1.6968,-1.57,-1.5604,-1.5118,-1.4204,-1.2139,-1.13,-1.1873,-1.1888,-1.1469,-1.0491,-1.0491,-1.0104,-0.9268,-0.9854,-0.9127,-0.6981,-0.6658,-0.6203,-0.5491,-0.5428,-0.5428,-0.5428,-0.6125,-0.6902,-0.7697,-0.8613,-0.9314,-0.9704,-1.0782,-1.155,-1.2056,-1.2294,-1.323,-1.4538,-1.5067,-1.5355,-1.6475,-1.6531,-1.6912,-1.7755,-1.7998,-1.8008,-1.8008,-1.8008,-1.8008,-1.8008,-1.8008,-1.8008,-1.8008,-1.8008,-1.8105,-1.8378,-1.8854,-1.9266,-1.957,-2.0042,-1.9934,-1.9325,-1.8948,-1.806,-1.6675,-1.5988,-1.5508,-1.4734,-1.4432,-1.448,-1.4457,-1.4606,-1.4556,-1.4589,-1.4803,-1.4983,-1.5003,-1.5044,-1.5084,-1.517,-1.5164,-1.515,-1.5384,-1.5437,-1.567,-2.5307,-2.4846,-2.4188,-2.3205,-2.2028,-2.0834,-2.0482,-2.0796,-2.1143,-2.1118,-2.0871,-2.0869,-2.0705,-2.0359,-2.0003,-1.9798,-1.9798,-1.9798,-1.9798,-1.9798,-1.9798,-1.9798,-1.9798,-1.9798,-1.9798,-1.9798,-1.9798,-1.9798,-1.9734,-1.9359,-1.8608,-1.7622,-1.7191,-1.6425,-1.5468,-1.542,-1.4805,-1.3468,-1.1601,-1.0763,-1.1128,-1.1531,-1.1406,-1.0681,-1.0618,-1.0434,-1.011,-0.9951,-0.9361,-0.8291,-0.7237,-0.6527,-0.6203,-0.5686,-0.5634,-0.6176,-0.7001,-0.7876,-0.8737,-0.9139,-0.9645,-1.0435,-1.106,-1.155,-1.1844,-1.2138,-1.2659,-1.331,-1.3513,-1.387,-1.4776,-1.5421,-1.618,-1.7067,-1.7648,-1.8008,-1.8008,-1.8008,-1.8008,-1.8008,-1.8008,-1.8008,-1.8008,-1.8008,-1.8086,-1.83,-1.8595,-1.8734,-1.8477,-1.8816,-1.8473,-1.7276,-1.6936,-1.6748,-1.5779,-1.5123,-1.4636,-1.4243,-1.4088,-1.4088,-1.4108,-1.4155,-1.4262,-1.4269,-1.4516,-1.4683,-1.4696,-1.487,-1.506,-1.4943,-1.5053,-1.501,-1.5124,-1.5299,-1.5402,-2.4712,-2.4275,-2.361,-2.2712,-2.1625,-2.0589,-2.0376,-2.0556,-1.975,-1.9993,-2.1028,-2.1143,-2.1053,-2.0736,-2.0105,-1.9798,-1.9798,-1.9798,-1.9798,-1.9798,-1.9798,-1.9798,-1.9798,-1.9798,-1.9798,-1.9798,-1.9798,-1.9695,-1.9475,-1.8992,-1.8232,-1.7368,-1.6765,-1.6161,-1.5468,-1.542,-1.4628,-1.3045,-1.1405,-1.0561,-1.0703,-1.117,-1.117,-1.0624,-1.0618,-1.0618,-1.0618,-0.9983,-0.953,-0.9268,-0.8091,-0.7177,-0.6719,-0.6292,-0.6506,-0.7339,-0.8009,-0.8753,-0.9582,-0.9658,-1.0064,-1.1002,-1.1309,-1.159,-1.1937,-1.2184,-1.2298,-1.2378,-1.2305,-1.2721,-1.3616,-1.4369,-1.5159,-1.6129,-1.6867,-1.7217,-1.7226,-1.7226,-1.7157,-1.7235,-1.7079,-1.7248,-1.7241,-1.7126,-1.7145,-1.7148,-1.7499,-1.766,-1.7117,-1.7397,-1.7354,-1.5625,-1.5576,-1.5598,-1.5296,-1.4734,-1.4173,-1.4088,-1.4088,-1.4088,-1.4088,-1.4088,-1.4095,-1.4188,-1.4322,-1.4376,-1.4396,-1.4596,-1.4736,-1.473,-1.473,-1.4803,-1.497,-1.514,-1.5318,-2.3967,-2.3405,-2.2944,-2.2398,-2.1655,-2.1111,-2.0779,-2.0655,-1.9074,-1.9564,-2.1247,-2.0422,-2.0233,-2.0696,-2.0055,-1.9798,-1.9798,-1.9798,-1.9798,-1.9798,-1.9798,-1.9798,-1.9798,-1.9798,-1.9798,-1.9619,-1.9772,-1.9448,-1.8821,-1.865,-1.795,-1.6652,-1.6482,-1.6093,-1.5526,-1.543,-1.4569,-1.3028,-1.1411,-1.0568,-1.0591,-1.0624,-1.0681,-1.0618,-1.0618,-1.0618,-1.0561,-1.0561,-1.0174,-0.9332,-0.9139,-0.842,-0.6985,-0.747,-0.8244,-0.9006,-0.922,-0.9629,-1.0351,-1.0491,-1.0717,-1.1269,-1.1396,-1.1663,-1.2131,-1.2265,-1.2305,-1.2305,-1.2305,-1.2647,-1.341,-1.377,-1.4286,-1.51,-1.5296,-1.5446,-1.5446,-1.5587,-1.5376,-1.5446,-1.5587,-1.5643,-1.5471,-1.53,-1.5541,-1.5598,-1.5799,-1.5936,-1.5976,-1.6455,-1.6258,-1.5568,-1.5294,-1.5372,-1.4405,-1.4166,-1.4173,-1.4088,-1.4088,-1.4088,-1.4088,-1.4088,-1.4088,-1.4088,-1.4142,-1.4162,-1.4122,-1.4142,-1.4208,-1.4235,-1.4262,-1.4376,-1.4683,-1.489,-1.509,-2.3277,-2.2955,-2.317,-2.2906,-2.2297,-2.1781,-2.1455,-2.1226,-1.9973,-2.0022,-2.0837,-2.0194,-1.9952,-2.0144,-1.9901,-1.9798,-1.9798,-1.9798,-1.9798,-1.9798,-1.9798,-1.9798,-1.9823,-1.9818,-1.9263,-1.8601,-1.934,-1.9426,-1.8608,-1.7786,-1.7034,-1.6549,-1.6036,-1.5633,-1.543,-1.541,-1.4621,-1.2992,-1.1394,-1.0609,-1.0598,-1.0618,-1.0618,-1.0618,-1.0618,-1.0618,-1.0618,-1.0618,-1.0174,-0.9332,-0.9332,-0.8748,-0.7772,-0.8338,-0.8975,-0.9307,-0.9838,-1.0268,-1.0555,-1.0618,-1.0786,-1.1102,-1.1329,-1.159,-1.1957,-1.2191,-1.2305,-1.2305,-1.2305,-1.2553,-1.2808,-1.3321,-1.3859,-1.4244,-1.4792,-1.5092,-1.5163,-1.5163,-1.5163,-1.5163,-1.5163,-1.5201,-1.5059,-1.5213,-1.5224,-1.5224,-1.5314,-1.5154,-1.4864,-1.4994,-1.4995,-1.4422,-1.4288,-1.4352,-1.425,-1.4088,-1.4088,-1.4088,-1.4088,-1.4088,-1.4088,-1.4088,-1.4088,-1.4088,-1.4088,-1.4088,-1.4095,-1.4095,-1.4088,-1.4088,-1.4088,-1.4168,-1.4355,-1.4643,-1.483,-2.2355,-2.2495,-2.3041,-2.3056,-2.2712,-2.2523,-2.2308,-2.2004,-2.1461,-2.1193,-2.0975,-2.0192,-1.9813,-1.9786,-1.9798,-1.9798,-1.9798,-1.9798,-1.9798,-1.9798,-1.9798,-1.9798,-1.9811,-1.9783,-1.861,-1.701,-1.8113,-1.8596,-1.7972,-1.6978,-1.6436,-1.6093,-1.5633,-1.542,-1.5381,-1.5409,-1.4625,-1.3,-1.1439,-1.0588,-1.0604,-1.0618,-1.0618,-1.0618,-1.0618,-1.0618,-1.0555,-1.0308,-0.9913,-0.9402,-0.9332,-0.9139,-0.8941,-0.9151,-0.9454,-0.9717,-1.0268,-1.0618,-1.0618,-1.0618,-1.0688,-1.0969,-1.1263,-1.155,-1.185,-1.2138,-1.2285,-1.2305,-1.2305,-1.2305,-1.2392,-1.2896,-1.3233,-1.33,-1.3863,-1.4235,-1.4235,-1.4235,-1.4235,-1.4163,-1.4163,-1.4201,-1.4279,-1.424,-1.4159,-1.4302,-1.4256,-1.4067,-1.3834,-1.3841,-1.3818,-1.3615,-1.383,-1.3978,-1.4041,-1.4088,-1.4088,-1.4088,-1.4088,-1.4088,-1.4004,-1.4004,-1.3913,-1.3997,-1.4082,-1.4088,-1.4088,-1.4088,-1.4088,-1.4088,-1.4102,-1.4155,-1.4309,-1.4449,-1.4542,-2.121,-2.1814,-2.2469,-2.2787,-2.2832,-2.3253,-2.3221,-2.2795,-2.3171,-2.2634,-2.152,-2.0345,-1.9801,-1.9812,-1.9798,-1.9798,-1.9798,-1.9798,-1.9798,-1.9798,-1.9798,-1.9798,-1.9798,-1.9813,-1.7835,-1.4677,-1.6164,-1.6895,-1.6698,-1.6492,-1.6093,-1.5517,-1.5468,-1.542,-1.542,-1.5262,-1.4556,-1.3009,-1.1414,-1.0628,-1.0604,-1.0618,-1.0618,-1.0618,-1.0561,-1.0491,-1.0491,-0.9786,-0.9338,-0.9204,-0.9204,-0.9658,-1.004,-0.9786,-0.9722,-1.0358,-1.0618,-1.0618,-1.0618,-1.0624,-1.0688,-1.0969,-1.1256,-1.155,-1.1844,-1.2131,-1.2305,-1.2305,-1.2305,-1.2305,-1.2305,-1.2392,-1.2472,-1.2311,-1.2592,-1.2666,-1.2519,-1.2378,-1.2378,-1.2519,-1.2592,-1.2378,-1.2378,-1.2633,-1.2707,-1.27,-1.2633,-1.2777,-1.3058,-1.3192,-1.3346,-1.3614,-1.3801,-1.3915,-1.4015,-1.4088,-1.4088,-1.4088,-1.4082,-1.4082,-1.3672,-1.3587,-1.33,-1.3215,-1.3033,-1.3039,-1.3555,-1.3555,-1.3822,-1.3913,-1.4024,-1.405,-1.4163,-1.4283,-1.4195,-2.1919,-2.1844,-2.2862,-2.331,-2.334,-2.352,-2.3475,-2.3342,-2.352,-2.2875,-2.1609,-2.038,-1.9825,-1.9786,-1.9798,-1.9798,-1.9798,-1.9798,-1.9798,-1.9798,-1.9798,-1.9798,-1.9811,-1.9759,-1.7833,-1.4834,-1.5336,-1.611,-1.6337,-1.5979,-1.5584,-1.541,-1.542,-1.542,-1.5303,-1.4699,-1.3787,-1.2956,-1.1439,-1.0591,-1.0618,-1.0618,-1.0618,-1.0561,-1.004,-0.9722,-0.9664,-0.9402,-0.9011,-0.8484,-0.842,-0.8812,-0.9542,-0.9989,-1.0301,-1.0555,-1.0618,-1.0618,-1.0618,-1.0568,-1.0617,-1.0969,-1.1256,-1.155,-1.1844,-1.2124,-1.2285,-1.2298,-1.2305,-1.2305,-1.2305,-1.2305,-1.2305,-1.2305,-1.2305,-1.2305,-1.2305,-1.2305,-1.2305,-1.2305,-1.2305,-1.2305,-1.2305,-1.2305,-1.2305,-1.2305,-1.2311,-1.2465,-1.2913,-1.2939,-1.3227,-1.3781,-1.3861,-1.3908,-1.4028,-1.4088,-1.4004,-1.3919,-1.3913,-1.3665,-1.3332,-1.3064,-1.2784,-1.2345,-1.2083,-1.2163,-1.2681,-1.2942,-1.3118,-1.3639,-1.3743,-1.3867,-1.4012,-1.3827,-1.3386,-2.2218,-2.2158,-2.2906,-2.34,-2.358,-2.3595,-2.3595,-2.3596,-2.3613,-2.2887,-2.1615,-2.0358,-1.9801,-1.9812,-1.9798,-1.9798,-1.9798,-1.9798,-1.9798,-1.9798,-1.9798,-1.9797,-1.9512,-1.8178,-1.6848,-1.5073,-1.4988,-1.5484,-1.6036,-1.5642,-1.542,-1.542,-1.542,-1.5235,-1.4942,-1.4192,-1.3466,-1.2528,-1.1296,-1.0618,-1.0618,-1.0618,-1.0428,-1.0117,-0.9881,-0.9426,-0.8947,-0.8619,-0.8166,-0.7637,-0.7502,-0.7962,-0.8742,-0.9588,-1.0104,-1.0135,-1.0104,-1.0117,-1.0104,-0.9716,-0.9841,-1.0314,-1.0622,-1.0983,-1.15,-1.1884,-1.2158,-1.2124,-1.2224,-1.2305,-1.2305,-1.2305,-1.2305,-1.2305,-1.2305,-1.2305,-1.2305,-1.2305,-1.2305,-1.2305,-1.2305,-1.2305,-1.2305,-1.2305,-1.2305,-1.2305,-1.2311,-1.2445,-1.2852,-1.2852,-1.328,-1.3559,-1.3741,-1.3854,-1.4041,-1.4004,-1.3919,-1.3835,-1.375,-1.3332,-1.2912,-1.2619,-1.2334,-1.1563,-1.1128,-1.1214,-1.1643,-1.1729,-1.1815,-1.251,-1.3027,-1.2601,-1.2289,-1.2158,-1.1777,-2.2143,-2.2694,-2.2727,-2.3131,-2.3565,-2.3595,-2.3595,-2.361,-2.3584,-2.2857,-2.16,-2.0364,-1.9819,-1.9825,-1.9798,-1.9798,-1.9798,-1.9798,-1.9798,-1.9811,-1.9784,-1.9651,-1.8768,-1.6289,-1.5158,-1.5239,-1.5068,-1.5125,-1.5507,-1.5468,-1.542,-1.542,-1.5294,-1.4932,-1.435,-1.3891,-1.3014,-1.1965,-1.1045,-1.0618,-1.0555,-1.0421,-1.011,-0.9402,-0.9777,-0.9385,-0.8102,-0.7386,-0.6994,-0.6724,-0.6789,-0.7251,-0.8006,-0.8823,-0.9215,-0.9255,-0.9256,-0.9215,-0.9081,-0.8678,-0.8554,-0.9186,-0.967,-1.0055,-1.0795,-1.1487,-1.1899,-1.1931,-1.2137,-1.2305,-1.2305,-1.2305,-1.2305,-1.2305,-1.2305,-1.2305,-1.2305,-1.2305,-1.2305,-1.2305,-1.2305,-1.2305,-1.2305,-1.2305,-1.2238,-1.2096,-1.2029,-1.2192,-1.2133,-1.2131,-1.2733,-1.2881,-1.2782,-1.2782,-1.2652,-1.2729,-1.2547,-1.2481,-1.2535,-1.2192,-1.1666,-1.1364,-1.1016,-1.0336,-1.0053,-1.0235,-1.0438,-1.0524,-1.0783,-1.13,-1.1203,-1.0661,-1.059,-1.0727,-1.0482,-2.2936,-2.2768,-2.3161,-2.3445,-2.3595,-2.3595,-2.358,-2.3583,-2.3582,-2.2858,-2.1629,-2.0364,-1.9801,-1.9798,-1.9798,-1.9798,-1.9798,-1.9798,-1.9798,-1.9784,-1.9815,-1.8437,-1.6884,-1.5694,-1.5153,-1.5361,-1.5268,-1.5303,-1.541,-1.542,-1.542,-1.5342,-1.4815,-1.4442,-1.4094,-1.2964,-1.222,-1.1779,-1.0982,-1.0618,-1.0428,-0.9703,-0.9314,-0.9268,-0.8582,-0.7852,-0.7051,-0.6276,-0.6145,-0.6658,-0.6692,-0.7127,-0.7795,-0.8209,-0.837,-0.8355,-0.8366,-0.8322,-0.8296,-0.8091,-0.8091,-0.8371,-0.9085,-0.9783,-1.0001,-1.0976,-1.1539,-1.1827,-1.1977,-1.2063,-1.2224,-1.2305,-1.2305,-1.2305,-1.2291,-1.2305,-1.2305,-1.2305,-1.2305,-1.2305,-1.2305,-1.2305,-1.2224,-1.2177,-1.1961,-1.1396,-1.1196,-1.1081,-1.1,-1.0844,-1.1126,-1.1016,-1.0935,-1.105,-1.1079,-1.1169,-1.1171,-1.1079,-1.0889,-1.0616,-0.9798,-0.9057,-0.8558,-0.7884,-0.8324,-0.8562,-0.9087,-0.9318,-0.9749,-1.0005,-1.0168,-0.9986,-1.0077,-1.0106,-0.9506,-2.3038,-2.2682,-2.2772,-2.2966,-2.3161,-2.2921,-2.2661,-2.2655,-2.326,-2.2569,-2.1077,-2.0205,-1.9813,-1.9786,-1.9798,-1.9798,-1.9798,-1.9798,-1.9567,-1.9049,-1.8286,-1.6961,-1.5679,-1.5392,-1.5424,-1.5395,-1.5438,-1.54,-1.542,-1.542,-1.5235,-1.4874,-1.4451,-1.3906,-1.3053,-1.2381,-1.1593,-1.1288,-1.08,-1.0618,-1.0491,-0.9576,-0.8935,-0.8753,-0.7857,-0.7143,-0.6276,-0.5686,-0.5686,-0.6083,-0.6168,-0.639,-0.6875,-0.7295,-0.7475,-0.741,-0.7428,-0.7489,-0.7386,-0.7181,-0.7316,-0.7782,-0.8422,-0.8997,-0.9855,-1.0536,-1.0867,-1.1408,-1.1729,-1.1931,-1.2137,-1.2224,-1.2225,-1.2177,-1.2204,-1.2298,-1.2305,-1.2305,-1.2305,-1.2305,-1.2305,-1.2057,-1.1736,-1.1689,-1.1133,-1.0517,-1.0198,-1.0013,-0.9766,-0.9576,-0.9481,-0.9572,-0.9762,-1.0028,-1.0191,-1.0326,-0.9911,-0.9769,-0.9335,-0.9077,-0.8725,-0.7662,-0.7378,-0.7118,-0.697,-0.7125,-0.7808,-0.8237,-0.8273,-0.8615,-0.9048,-0.9135,-0.9052,-0.9226,-0.8623,-2.2577,-2.2532,-2.1934,-2.2039,-2.2443,-2.1964,-2.1558,-2.133,-2.2387,-2.1959,-2.0382,-1.989,-1.9795,-1.9798,-1.9798,-1.9798,-1.9798,-1.9643,-1.9044,-1.8132,-1.6993,-1.5869,-1.5499,-1.5389,-1.5419,-1.5429,-1.541,-1.5294,-1.5177,-1.5177,-1.4815,-1.4204,-1.3965,-1.3174,-1.2258,-1.171,-1.1288,-1.0807,-1.0638,-1.0441,-1.018,-0.9402,-0.863,-0.7902,-0.7536,-0.6758,-0.5826,-0.5428,-0.5425,-0.5428,-0.5428,-0.5627,-0.576,-0.6378,-0.6527,-0.6589,-0.6585,-0.6573,-0.6474,-0.6013,-0.6079,-0.7186,-0.6985,-0.7562,-0.9256,-0.9563,-0.9904,-1.0717,-1.1385,-1.1572,-1.1864,-1.2011,-1.2024,-1.1915,-1.2103,-1.2225,-1.2111,-1.2131,-1.215,-1.207,-1.207,-1.1483,-1.0995,-1.0598,-1.0291,-0.9377,-0.9133,-0.8842,-0.8621,-0.8313,-0.8444,-0.8691,-0.8996,-0.9271,-0.9378,-0.9585,-0.8908,-0.8476,-0.7848,-0.7647,-0.8074,-0.7502,-0.7186,-0.6943,-0.682,-0.6844,-0.7056,-0.7295,-0.7341,-0.746,-0.7964,-0.7639,-0.7312,-0.7749,-0.7665,-2.1904,-2.1889,-2.1754,-2.1769,-2.1874,-2.1754,-2.137,-2.0891,-2.0812,-2.0556,-2.004,-1.9833,-1.9798,-1.9798,-1.9798,-1.9798,-1.9695,-1.9214,-1.8476,-1.779,-1.7498,-1.6394,-1.5661,-1.54,-1.541,-1.542,-1.542,-1.505,-1.4638,-1.451,-1.4025,-1.3304,-1.2749,-1.2135,-1.1772,-1.117,-1.0807,-1.0631,-1.0551,-1.0155,-0.9472,-0.8711,-0.7862,-0.7055,-0.6412,-0.5892,-0.5561,-0.5428,-0.5428,-0.5428,-0.5425,-0.5679,-0.6256,-0.6013,-0.5771,-0.5771,-0.5771,-0.5697,-0.569,-0.5557,-0.5557,-0.6079,-0.6527,-0.6911,-0.7367,-0.8192,-0.8857,-0.9691,-1.0089,-1.0691,-1.1344,-1.1514,-1.1471,-1.1411,-1.1616,-1.1533,-1.1033,-1.104,-1.123,-1.0995,-1.0473,-0.986,-0.9643,-0.9656,-0.9202,-0.8385,-0.7987,-0.7752,-0.7504,-0.7253,-0.7447,-0.7745,-0.7754,-0.7947,-0.7994,-0.8179,-0.7971,-0.7554,-0.7037,-0.6685,-0.7097,-0.7204,-0.6874,-0.6702,-0.6637,-0.6722,-0.6861,-0.6926,-0.7046,-0.7007,-0.7051,-0.7082,-0.7099,-0.7115,-0.7139,-2.1531,-2.1447,-2.0986,-2.0946,-2.1102,-2.0655,-2.0074,-1.9608,-1.928,-1.9168,-1.9282,-1.9555,-1.9784,-1.9786,-1.9798,-1.9798,-1.9527,-1.8661,-1.7963,-1.7467,-1.6924,-1.608,-1.5614,-1.542,-1.542,-1.541,-1.542,-1.4932,-1.4392,-1.4025,-1.3606,-1.2512,-1.1958,-1.1655,-1.1288,-1.0807,-1.0645,-1.0481,-1.0162,-0.9432,-0.8345,-0.7717,-0.7012,-0.6272,-0.5624,-0.5428,-0.5428,-0.5428,-0.5428,-0.5428,-0.5428,-0.562,-0.6125,-0.5741,-0.5425,-0.5428,-0.5428,-0.5428,-0.5428,-0.5428,-0.5624,-0.5947,-0.6141,-0.6597,-0.6915,-0.7437,-0.7817,-0.8768,-0.9384,-1.0055,-1.0703,-1.0773,-1.0634,-1.0141,-1.0335,-1.0265,-0.9884,-1.0256,-1.0565,-1.0185,-0.9702,-0.913,-0.8874,-0.8674,-0.8154,-0.7362,-0.72,-0.6964,-0.6887,-0.6718,-0.6563,-0.6669,-0.6585,-0.6514,-0.6528,-0.667,-0.6835,-0.6708,-0.6607,-0.6417,-0.6634,-0.6662,-0.6544,-0.6491,-0.6549,-0.66,-0.6722,-0.678,-0.6824,-0.6851,-0.6902,-0.6987,-0.7054,-0.7078,-0.7109,-2.1131,-2.1064,-2.0101,-1.9982,-2.0205,-1.9371,-1.8659,-1.8055,-1.8072,-1.8315,-1.8414,-1.9305,-1.9804,-1.98,-1.9798,-1.9747,-1.9097,-1.8124,-1.7335,-1.6888,-1.6066,-1.5604,-1.542,-1.542,-1.5148,-1.5138,-1.505,-1.4697,-1.4094,-1.3777,-1.287,-1.1834,-1.1593,-1.1226,-1.0744,-1.0434,-1.0404,-1.0463,-0.9444,-0.849,-0.7353,-0.6785,-0.6141,-0.569,-0.5495,-0.5428,-0.5428,-0.5428,-0.5428,-0.5428,-0.5428,-0.5428,-0.5428,-0.5428,-0.5428,-0.5428,-0.5428,-0.5428,-0.5428,-0.5428,-0.5686,-0.6461,-0.5881,-0.6079,-0.692,-0.692,-0.7055,-0.7777,-0.863,-0.9378,-0.9761,-0.9712,-0.9241,-0.8799,-0.8831,-0.8786,-0.8644,-0.954,-0.9553,-0.9216,-0.8604,-0.7977,-0.7757,-0.7504,-0.6964,-0.6578,-0.6419,-0.6261,-0.6261,-0.6261,-0.6261,-0.6261,-0.6261,-0.6261,-0.6271,-0.6288,-0.6363,-0.6359,-0.6329,-0.6305,-0.6349,-0.6386,-0.6376,-0.6464,-0.6525,-0.6546,-0.6563,-0.6617,-0.6658,-0.6685,-0.6766,-0.6871,-0.6956,-0.7031,-0.7071,-2.0485,-2.0435,-1.9919,-1.9516,-1.9188,-1.8974,-1.8341,-1.7598,-1.7867,-1.8122,-1.8333,-1.9305,-1.9778,-1.98,-1.9798,-1.9202,-1.8309,-1.7435,-1.6673,-1.6296,-1.5672,-1.542,-1.542,-1.5099,-1.4622,-1.385,-1.393,-1.3899,-1.3191,-1.2504,-1.1965,-1.1052,-1.0863,-1.0681,-1.0364,-0.9989,-0.9893,-0.9937,-0.8592,-0.7447,-0.6854,-0.6207,-0.5686,-0.5428,-0.5428,-0.5428,-0.5428,-0.5428,-0.5428,-0.5428,-0.5428,-0.5428,-0.5428,-0.5428,-0.5428,-0.5428,-0.5428,-0.5428,-0.5428,-0.5428,-0.5491,-0.5557,-0.5495,-0.5428,-0.5818,-0.5818,-0.6222,-0.6977,-0.7715,-0.8343,-0.8344,-0.8419,-0.8296,-0.8144,-0.8063,-0.8083,-0.7568,-0.7727,-0.8171,-0.7974,-0.7351,-0.6953,-0.6953,-0.6876,-0.6648,-0.6419,-0.6338,-0.6261,-0.6261,-0.6261,-0.6264,-0.6261,-0.6261,-0.6261,-0.6261,-0.6274,-0.6305,-0.6305,-0.6288,-0.6288,-0.6264,-0.6261,-0.6315,-0.6386,-0.6393,-0.6366,-0.64,-0.6461,-0.6491,-0.6525,-0.6637,-0.6759,-0.6814,-0.6878,-0.7007,-2.0516,-2.0261,-1.9874,-1.9406,-1.8893,-1.8612,-1.8027,-1.7352,-1.7303,-1.7626,-1.838,-1.9269,-1.9641,-1.9497,-1.9723,-1.9316,-1.8588,-1.7556,-1.7342,-1.7299,-1.6267,-1.542,-1.5216,-1.4641,-1.3832,-1.3169,-1.3009,-1.2838,-1.2397,-1.2074,-1.1351,-1.08,-1.0618,-1.0364,-0.9977,-0.953,-0.9239,-0.9003,-0.7731,-0.6666,-0.628,-0.5624,-0.5428,-0.5428,-0.5428,-0.5428,-0.5428,-0.5428,-0.5428,-0.5428,-0.5428,-0.5428,-0.5428,-0.5428,-0.5428,-0.5428,-0.5428,-0.5428,-0.5428,-0.5428,-0.5425,-0.5428,-0.5428,-0.5428,-0.5428,-0.5495,-0.5771,-0.6531,-0.6946,-0.7329,-0.7363,-0.7339,-0.7109,-0.6817,-0.6848,-0.6788,-0.6448,-0.6497,-0.6714,-0.6935,-0.6677,-0.6517,-0.649,-0.6412,-0.6335,-0.6261,-0.6261,-0.6261,-0.6261,-0.6264,-0.6268,-0.6032,-0.5951,-0.5637,-0.5476,-0.5246,-0.5649,-0.5802,-0.5873,-0.5873,-0.6187,-0.6109,-0.6183,-0.6291,-0.6264,-0.6264,-0.6281,-0.6356,-0.6363,-0.6383,-0.6495,-0.6597,-0.6651,-0.6732,-0.6858,-2.0764,-2.0431,-1.9909,-1.9406,-1.8855,-1.8327,-1.7827,-1.7295,-1.6773,-1.7206,-1.8242,-1.9236,-1.9568,-1.9258,-1.9226,-1.9259,-1.9227,-1.7744,-1.7599,-1.775,-1.6434,-1.542,-1.4963,-1.3859,-1.2819,-1.2229,-1.2197,-1.1774,-1.1856,-1.1593,-1.1163,-1.0737,-1.0618,-1.0168,-0.953,-0.9069,-0.8582,-0.7942,-0.6946,-0.6075,-0.5557,-0.5428,-0.5428,-0.5428,-0.5428,-0.5428,-0.5428,-0.5428,-0.5428,-0.5428,-0.5432,-0.5432,-0.5428,-0.5432,-0.5432,-0.5428,-0.5428,-0.5428,-0.5428,-0.5428,-0.5428,-0.5428,-0.5428,-0.5428,-0.5428,-0.5428,-0.5701,-0.6254,-0.6461,-0.6461,-0.6432,-0.6453,-0.6113,-0.5789,-0.5666,-0.5617,-0.5703,-0.5787,-0.5941,-0.6019,-0.6051,-0.6118,-0.6201,-0.618,-0.618,-0.6257,-0.6261,-0.6261,-0.6261,-0.6268,-0.6193,-0.5724,-0.541,-0.4937,-0.4462,-0.3754,-0.4231,-0.4784,-0.4857,-0.4854,-0.5407,-0.5802,-0.5954,-0.6032,-0.6271,-0.6271,-0.6268,-0.6257,-0.6291,-0.6335,-0.6383,-0.6507,-0.6555,-0.6647,-0.6685,-2.0959,-2.0829,-2.0015,-1.9406,-1.8855,-1.8316,-1.7787,-1.7229,-1.6701,-1.7155,-1.8276,-1.9274,-1.9742,-1.9331,-1.833,-1.795,-1.7479,-1.6729,-1.6165,-1.6345,-1.5712,-1.542,-1.5157,-1.374,-1.2289,-1.1533,-1.156,-1.1751,-1.149,-1.0975,-1.0737,-1.0561,-1.0364,-1.0104,-0.8941,-0.842,-0.8117,-0.769,-0.6358,-0.5557,-0.5428,-0.5428,-0.5428,-0.5428,-0.5428,-0.5428,-0.5428,-0.5428,-0.5428,-0.5432,-0.5372,-0.5372,-0.5435,-0.5379,-0.5376,-0.5435,-0.5428,-0.5428,-0.5428,-0.5428,-0.5428,-0.5428,-0.5428,-0.5428,-0.5428,-0.5428,-0.5495,-0.5495,-0.5631,-0.5701,-0.5704,-0.5634,-0.5495,-0.5498,-0.5463,-0.5413,-0.543,-0.5518,-0.5596,-0.5637,-0.5789,-0.5954,-0.6002,-0.6033,-0.6099,-0.618,-0.6261,-0.6261,-0.6268,-0.6278,-0.4857,-0.4073,-0.3919,-0.3526,-0.3056,-0.2426,-0.0,-0.0,-0.0,-0.0,-0.3761,-0.4231,-0.5572,-0.5727,-0.5886,-0.5879,-0.5634,-0.5709,-0.6099,-0.6285,-0.6329,-0.6397,-0.6528,-0.6562,-0.6532,-2.0846,-2.0565,-1.9929,-1.9221,-1.8458,-1.8171,-1.7626,-1.6905,-1.6635,-1.7132,-1.8251,-1.932,-1.9482,-1.8712,-1.7645,-1.7167,-1.7016,-1.6296,-1.5758,-1.5478,-1.542,-1.542,-1.504,-1.3784,-1.2163,-1.1052,-1.0829,-1.0651,-1.0541,-1.0541,-1.0434,-0.9907,-0.9786,-0.9064,-0.814,-0.7502,-0.6999,-0.642,-0.5763,-0.5428,-0.5428,-0.5428,-0.5428,-0.5428,-0.5428,-0.5428,-0.5428,-0.5428,-0.5432,-0.5369,-0.5376,-0.4827,-0.4483,-0.4688,-0.5435,-0.5432,-0.5428,-0.5428,-0.5428,-0.5428,-0.5428,-0.5428,-0.5428,-0.5428,-0.5428,-0.5428,-0.5428,-0.5428,-0.5428,-0.5428,-0.5428,-0.5428,-0.5428,-0.5428,-0.5428,-0.5428,-0.5435,-0.5466,-0.5535,-0.5559,-0.5593,-0.5696,-0.583,-0.5889,-0.5997,-0.6103,-0.6187,-0.6268,-0.6281,-0.6298,-0.4238,-0.1645,-0.1724,-0.1803,-0.1333,-0.0,-0.0,-0.0,-0.0,-0.0,-0.0,-0.2118,-0.3511,-0.4295,-0.4222,-0.4375,-0.4686,-0.5321,-0.5796,-0.6112,-0.6274,-0.6112,-0.5951,-0.6213,-0.6268,-2.0878,-2.0416,-1.9909,-1.9169,-1.8288,-1.8145,-1.7585,-1.6748,-1.6529,-1.7066,-1.8062,-1.897,-1.8832,-1.793,-1.7142,-1.6711,-1.6624,-1.6336,-1.5958,-1.5536,-1.54,-1.543,-1.489,-1.3769,-1.2181,-1.0622,-1.0649,-1.0295,-0.9856,-0.9779,-0.9755,-0.8989,-0.8971,-0.8168,-0.7122,-0.6694,-0.647,-0.569,-0.5495,-0.5428,-0.5432,-0.5369,-0.5369,-0.5369,-0.5432,-0.5435,-0.5435,-0.5372,-0.5376,-0.5382,-0.5389,-0.4498,-0.2737,-0.4084,-0.5236,-0.5435,-0.5432,-0.5428,-0.5428,-0.5428,-0.5428,-0.5428,-0.5428,-0.5428,-0.5428,-0.5428,-0.5428,-0.5428,-0.5428,-0.5428,-0.5428,-0.5428,-0.5428,-0.5428,-0.5428,-0.5428,-0.5432,-0.5456,-0.5473,-0.5426,-0.5507,-0.5483,-0.5645,-0.5731,-0.5861,-0.5976,-0.6112,-0.6271,-0.6193,-0.6119,-0.3816,-0.0,-0.0,-0.0,-0.0,-0.0,-0.0,-0.0,-0.0,-0.0,-0.0,-0.0,-0.1306,-0.1927,-0.2557,-0.3337,-0.387,-0.4753,-0.5491,-0.5087,-0.4846,-0.5168,-0.5251,-0.5497,-0.5463,-2.1337,-2.0894,-2.0035,-1.9332,-1.8727,-1.8302,-1.7747,-1.7076,-1.6663,-1.6921,-1.7578,-1.8157,-1.8005,-1.7256,-1.6611,-1.6129,-1.5846,-1.5605,-1.5477,-1.541,-1.538,-1.5143,-1.4432,-1.3191,-1.2089,-1.0829,-1.0425,-0.997,-0.9402,-0.9005,-0.8673,-0.8007,-0.7963,-0.7345,-0.6715,-0.6327,-0.6133,-0.5557,-0.5428,-0.5435,-0.5376,-0.5382,-0.5319,-0.5243,-0.5316,-0.5386,-0.5376,-0.5176,-0.5322,-0.5326,-0.5403,-0.4033,-0.2272,-0.3623,-0.4843,-0.5372,-0.5369,-0.5432,-0.5432,-0.5428,-0.5428,-0.5428,-0.5428,-0.5428,-0.5428,-0.5428,-0.5428,-0.5428,-0.5428,-0.5428,-0.5428,-0.5428,-0.5428,-0.5428,-0.5428,-0.5428,-0.5432,-0.5372,-0.5386,-0.5382,-0.5176,-0.4831,-0.5215,-0.5234,-0.5012,-0.5115,-0.6143,-0.63,-0.581,-0.5416,-0.3375,-0.0,-0.0,-0.0,-0.0,-0.0,-0.0,-0.0,-0.0,-0.0,-0.0,-0.0,-0.0,-0.068,-0.1592,-0.2365,-0.2924,-0.3182,-0.3357,-0.3354,-0.3354,-0.3363,-0.3365,-0.3366,-0.3319,-2.1368,-2.0926,-2.0004,-1.9163,-1.838,-1.7827,-1.7312,-1.6837,-1.6607,-1.6608,-1.6834,-1.7012,-1.6621,-1.584,-1.5508,-1.4933,-1.4263,-1.4581,-1.4887,-1.5273,-1.5348,-1.4231,-1.3049,-1.195,-1.1126,-1.0519,-1.0034,-0.9326,-0.8549,-0.8156,-0.7118,-0.6599,-0.679,-0.6383,-0.595,-0.5853,-0.5734,-0.5557,-0.5428,-0.5435,-0.5379,-0.5326,-0.4852,-0.382,-0.5116,-0.464,-0.3956,-0.3754,-0.437,-0.4992,-0.5205,-0.3496,-0.2008,-0.3297,-0.4378,-0.5243,-0.5376,-0.5309,-0.5299,-0.5365,-0.5428,-0.5428,-0.5428,-0.5428,-0.5428,-0.5428,-0.5428,-0.5428,-0.5428,-0.5432,-0.5428,-0.5428,-0.5428,-0.5428,-0.5428,-0.5432,-0.5372,-0.5379,-0.5043,-0.4909,-0.4161,-0.3549,-0.4136,-0.4691,-0.4405,-0.4176,-0.5328,-0.6083,-0.5199,-0.0,-0.0,-0.0,-0.0,-0.0,-0.0,-0.0,-0.0,-0.0,-0.0,-0.0,-0.0,-0.0,-0.0,-0.0,-0.0,-0.0,-0.0,-0.0,-0.0,-0.0,-0.0,-0.1175,-0.1175,-0.0,-0.0,-2.1401,-2.099,-1.9869,-1.8873,-1.8052,-1.7504,-1.6896,-1.6269,-1.6126,-1.5953,-1.5695,-1.5449,-1.5074,-1.4468,-1.4247,-1.3836,-1.3214,-1.3352,-1.3953,-1.4243,-1.4055,-1.2814,-1.1219,-0.9993,-0.9604,-0.9581,-0.9223,-0.8377,-0.7632,-0.6981,-0.6286,-0.5739,-0.5631,-0.5512,-0.5424,-0.5277,-0.5425,-0.5428,-0.5428,-0.5369,-0.5379,-0.4709,-0.4785,-0.3353,-0.3766,-0.3971,-0.3224,-0.2954,-0.2418,-0.3098,-0.337,-0.296,-0.2622,-0.2961,-0.411,-0.4919,-0.5389,-0.5189,-0.4837,-0.5169,-0.5369,-0.5376,-0.5376,-0.5372,-0.5369,-0.5365,-0.5428,-0.5428,-0.5432,-0.5369,-0.5365,-0.5435,-0.5372,-0.5376,-0.5376,-0.5379,-0.5382,-0.5389,-0.4779,-0.4372,-0.3355,-0.2281,-0.4126,-0.4668,-0.3428,-0.0,-0.0,-0.0,-0.305,-0.0,-0.0,-0.0,-0.0,-0.0,-0.0,-0.0,-0.0,-0.0,-0.0,-0.0,-0.0,-0.0,-0.0,-0.0,-0.0,-0.0,-0.0,-0.0,-0.0,-0.0,-0.0,-0.0,-0.0,-0.0,-0.0,-2.1513,-2.1182,-1.9549,-1.8555,-1.8027,-1.7504,-1.6659,-1.5752,-1.544,-1.497,-1.4329,-1.3661,-1.3472,-1.3579,-1.337,-1.2887,-1.2333,-1.2138,-1.2422,-1.272,-1.2497,-1.1495,-0.988,-0.8528,-0.7688,-0.7963,-0.7804,-0.7463,-0.682,-0.6584,-0.5902,-0.5453,-0.53,-0.5279,-0.5152,-0.5287,-0.5425,-0.5428,-0.5428,-0.5372,-0.5106,-0.4164,-0.4172,-0.3291,-0.2084,-0.2085,-0.2825,-0.1681,-0.0,-0.0,-0.0,-0.0,-0.0,-0.0,-0.459,-0.4998,-0.5276,-0.4584,-0.3149,-0.4503,-0.4982,-0.4979,-0.4773,-0.4909,-0.5179,-0.5239,-0.5027,-0.4691,-0.497,-0.5109,-0.5243,-0.5239,-0.5109,-0.4982,-0.4916,-0.5186,-0.5189,-0.5329,-0.4852,-0.3228,-0.1818,-0.1146,-0.352,-0.4659,-0.2882,-0.0,-0.0,-0.0,-0.0,-0.0,-0.0,-0.0,-0.0,-0.0,-0.0,-0.0,-0.0,-0.0,-0.0,-0.0,-0.0,-0.0,-0.0,-0.0,-0.0,-0.0,-0.0,-0.0,-0.0,-0.0,-0.0,-0.0,-0.0,-0.0,-0.0,-2.1501,-2.1223,-1.9515,-1.8391,-1.7693,-1.706,-1.6312,-1.5576,-1.5118,-1.4516,-1.3856,-1.3192,-1.2646,-1.2603,-1.2558,-1.2078,-1.1134,-1.0703,-1.0763,-1.0714,-1.0573,-0.8646,-0.7155,-0.6294,-0.568,-0.5896,-0.6186,-0.6751,-0.6531,-0.6189,-0.5789,-0.5356,-0.5114,-0.5226,-0.5203,-0.5274,-0.5428,-0.5432,-0.5376,-0.5386,-0.5312,-0.4651,-0.3706,-0.2348,-0.0807,-0.0,-0.0,-0.0,-0.0,-0.0,-0.0,-0.0,-0.0,-0.0,-0.3504,-0.3976,-0.4317,-0.4537,-0.3305,-0.3372,-0.3567,-0.3629,-0.3625,-0.3625,-0.362,-0.3625,-0.3623,-0.3623,-0.3625,-0.3629,-0.3572,-0.3556,-0.3422,-0.3433,-0.3639,-0.4445,-0.4718,-0.5065,-0.4727,-0.2153,-0.027,-0.0,-0.0,-0.0,-0.0,-0.0,-0.0,-0.0,-0.0,-0.0,-0.0,-0.0,-0.0,-0.0,-0.0,-0.0,-0.0,-0.0,-0.0,-0.0,-0.0,-0.0,-0.0,-0.0,-0.0,-0.0,-0.0,-0.0,-0.0,-0.0,-0.0,-0.0,-0.0,-0.0,-0.0,-2.1327,-2.1036,-1.931,-1.7771,-1.6687,-1.6293,-1.5732,-1.4949,-1.4329,-1.3721,-1.3052,-1.2445,-1.1932,-1.1619,-1.1413,-1.1245,-1.0058,-0.9377,-0.8751,-0.8682,-0.865,-0.7023,-0.5405,-0.4407,-0.4769,-0.4726,-0.5189,-0.5736,-0.6017,-0.561,-0.5439,-0.5272,-0.4788,-0.427,-0.4392,-0.4725,-0.5376,-0.5379,-0.5386,-0.4979,-0.4779,-0.4517,-0.4255,-0.2488,-0.0,-0.0,-0.0,-0.0,-0.0,-0.0,-0.0,-0.0,-0.0,-0.0,-0.0,-0.222,-0.2491,-0.2771,-0.1957,-0.1687,-0.1749,-0.1746,-0.0,-0.1743,-0.1744,-0.1746,-0.1746,-0.1746,-0.0,-0.0,-0.0,-0.0,-0.0,-0.0,-0.0,-0.0,-0.0,-0.0,-0.0,-0.0,-0.0,-0.0,-0.0,-0.0,-0.0,-0.0,-0.0,-0.0,-0.0,-0.0,-0.0,-0.0,-0.0,-0.0,-0.0,-0.0,-0.0,-0.0,-0.0,-0.0,-0.0,-0.0,-0.0,-0.0,-0.0,-0.0,-0.0,-0.0,-0.0,-0.0,-0.0,-0.0,-0.0,-0.0,-0.0,-2.0972,-2.0659,-1.8898,-1.682,-1.4998,-1.5122,-1.471,-1.3768,-1.321,-1.2569,-1.1756,-1.0995,-1.0506,-1.0527,-1.0028,-0.9643,-0.9239,-0.8152,-0.7549,-0.6939,-0.6859,-0.5368,-0.4418,-0.3825,-0.3493,-0.3912,-0.4358,-0.4524,-0.5153,-0.4931,-0.4928,-0.5071,-0.429,-0.3626,-0.3727,-0.4495,-0.5052,-0.4913,-0.4231,-0.3825,-0.3556,-0.3904,-0.4319,-0.3232,-0.0,-0.0,-0.0,-0.0,-0.0,-0.0,-0.0,-0.0,-0.0,-0.0,-0.0,-0.0,-0.0,-0.0,-0.0,-0.0,-0.0,-0.0,-0.0,-0.0,-0.0,-0.0,-0.0,-0.0,-0.0,-0.0,-0.0,-0.0,-0.0,-0.0,-0.0,-0.0,-0.0,-0.0,-0.0,-0.0,-0.0,-0.0,-0.0,-0.0,-0.0,-0.0,-0.0,-0.0,-0.0,-0.0,-0.0,-0.0,-0.0,-0.0,-0.0,-0.0,-0.0,-0.0,-0.0,-0.0,-0.0,-0.0,-0.0,-0.0,-0.0,-0.0,-0.0,-0.0,-0.0,-0.0,-0.0,-0.0,-0.0,-0.0,-0.0,-2.0574,-1.9811,-1.8606,-1.6597,-1.4228,-1.3195,-1.2869,-1.2996,-1.2929,-1.2241,-1.099,-0.8737,-0.8537,-0.9186,-0.8574,-0.8059,-0.7492,-0.6923,-0.6732,-0.6246,-0.5758,-0.3616,-0.0,-0.0,-0.0,-0.1606,-0.2118,-0.2705,-0.3086,-0.325,-0.4118,-0.5024,-0.3774,-0.3266,-0.3286,-0.4395,-0.4038,-0.3424,-0.2412,-0.2345,-0.2078,-0.2218,-0.3301,-0.337,-0.1345,-0.0,-0.0,-0.0,-0.0,-0.0,-0.0,-0.0,-0.0,-0.0,-0.0,-0.0,-0.0,-0.0,-0.0,-0.0,-0.0,-0.0,-0.0,-0.0,-0.0,-0.0,-0.0,-0.0,-0.0,-0.0,-0.0,-0.0,-0.0,-0.0,-0.0,-0.0,-0.0,-0.0,-0.0,-0.0,-0.0,-0.0,-0.0,-0.0,-0.0,-0.0,-0.0,-0.0,-0.0,-0.0,-0.0,-0.0,-0.0,-0.0,-0.0,-0.0,-0.0,-0.0,-0.0,-0.0,-0.0,-0.0,-0.0,0.2159,0.256,0.1546,-0.0,-0.0,-0.0,-0.0,-0.0,-0.0,-0.0,-0.0,-0.0,-2.0062,-1.8948,-1.7866,-1.5764,-1.302,-1.0922,-1.0362,-1.0856,-1.1666,-1.1294,-0.9798,-0.7683,-0.7084,-0.7776,-0.7652,-0.7402,-0.7041,-0.6693,-0.6728,-0.7099,-0.5227,-0.2903,-0.0,-0.0,-0.0,0.0979,0.1059,0.036,-0.0605,0.0125,-0.013,-0.0667,-0.1662,-0.1597,-0.12,-0.1726,-0.1858,-0.1,-0.0402,-0.0738,-0.0671,-0.0538,-0.1817,-0.2018,0.0202,0.1547,0.1818,0.1547,0.1076,0.1075,0.1075,-0.0,-0.0,-0.0,-0.0,-0.0,-0.0,-0.0,-0.0,-0.0,-0.0,0.0605,0.0672,-0.0,-0.0,-0.0,-0.0,-0.0,-0.0,-0.0,-0.0,-0.0,-0.0,-0.0,-0.0,-0.0,-0.0,-0.0,-0.0,-0.0,-0.0,-0.0,-0.0,-0.0,-0.0,-0.0,-0.0,-0.0,-0.0,-0.0,-0.0,-0.0,-0.0,-0.0,-0.0,-0.0,-0.0,-0.0,-0.0,-0.0,-0.0,0.1552,0.3109,0.4193,0.4934,0.3634,0.2079,0.1371,-0.0,0.109,0.112,-0.0,-0.0,-0.0,-0.0,-1.9456,-1.8106,-1.6635,-1.4292,-1.1532,-0.9047,-0.7882,-0.777,-0.9814,-0.9902,-0.8508,-0.7018,-0.625,-0.6108,-0.6023,-0.6023,-0.5479,-0.5117,-0.5538,-0.7891,-0.4712,-0.2012,-0.0558,0.0504,0.2505,0.4455,0.4624,0.2684,0.1684,0.2106,0.3396,0.5186,0.3357,0.2432,0.2066,0.1183,0.1119,0.2003,0.161,0.0941,0.047,0.0269,0.0269,0.0673,0.2691,0.4724,0.4654,0.3969,0.2947,0.2947,0.2948,0.295,0.2415,-0.0,-0.0,-0.0,-0.0,-0.0,0.3366,0.4113,0.3159,0.228,0.1808,0.3021,0.3025,0.2016,-0.0,-0.0,-0.0,-0.0,-0.0,0.2151,0.2082,0.1812,0.1878,0.2149,0.2488,0.2825,0.3027,0.3163,-0.0,-0.0,-0.0,-0.0,-0.0,-0.0,-0.0,-0.0,-0.0,-0.0,-0.0,-0.0,-0.0,-0.0,-0.0,-0.0,-0.0,-0.0,-0.0,-0.0,-0.0,0.29,0.4953,0.5279,0.5399,0.5399,0.4459,0.3562,0.2913,0.2972,0.3063,0.3251,0.2688,0.1857,-0.0,-1.9515,-1.7603,-1.4226,-1.2239,-1.1268,-0.9387,-0.7758,-0.7036,-0.853,-0.8498,-0.7473,-0.577,-0.4501,-0.3905,-0.3312,-0.287,-0.2093,-0.1929,-0.2552,-0.2941,-0.1722,-0.0777,0.0556,0.2512,0.4365,0.4972,0.4987,0.4516,0.3157,0.3448,0.4316,0.5309,0.4779,0.4731,0.4558,0.3697,0.3924,0.4298,0.3902,0.2822,0.2144,0.2078,0.2144,0.228,0.3558,0.4439,0.4643,0.5052,0.4709,0.4712,0.4779,0.4779,0.4712,0.4239,0.336,0.2414,0.2079,0.2883,0.3627,0.4785,0.4509,0.3964,0.3623,0.4097,0.3964,0.275,0.2146,0.2083,0.2087,0.2091,0.2294,0.3094,0.3689,0.3485,0.328,0.3558,0.3768,0.3969,0.4239,0.4239,0.4241,0.3498,0.242,0.2084,0.2085,-0.0,-0.0,-0.0,-0.0,-0.0,-0.0,-0.0,-0.0,-0.0,-0.0,-0.0,-0.0,0.2426,-0.0,-0.0,0.2217,0.3364,0.4724,0.5192,0.5386,0.5386,0.5382,0.5122,0.4713,0.4444,0.4501,0.4496,0.4922,0.4385,0.3569,-1.9694,-1.7841,-1.3248,-1.0051,-0.8072,-0.586,-0.4399,-0.4059,-0.5245,-0.4845,-0.3175,-0.2027,-0.1482,-0.132,-0.0608,0.0496,0.1487,0.2544,0.1873,0.1487,0.1266,0.1818,0.3154,0.4284,0.6226,0.6978,0.6604,0.5921,0.4698,0.5418,0.642,0.6626,0.663,0.6288,0.6024,0.569,0.5432,0.5376,0.5522,0.4903,0.388,0.3885,0.3892,0.3894,0.4095,0.47,0.4837,0.5382,0.5379,0.5379,0.5309,0.5309,0.5243,0.5113,0.4776,0.4233,0.3894,0.3889,0.4228,0.4767,0.5519,0.5106,0.4831,0.5033,0.4973,0.4023,0.3961,0.3902,0.3904,0.3909,0.3917,0.452,0.4634,0.4553,0.4486,0.4561,0.4637,0.4776,0.4909,0.4909,0.4909,0.47,0.3956,0.3889,0.3892,0.3899,0.3892,0.3754,0.3754,0.3549,0.295,0.2348,0.1607,0.1205,-0.0,-0.0,-0.0,0.3507,0.5062,0.4579,0.3828,0.3892,0.4361,0.5036,0.5376,0.5372,0.5372,0.5372,0.5379,0.5042,0.528,0.5607,0.5967,0.6194,0.534,-1.8846,-1.6003,-1.0971,-0.7067,-0.3629,-0.0705,0.0765,0.0816,-0.0597,0.038,0.2993,0.3485,0.2571,0.187,0.2146,0.2911,0.3951,0.5329,0.5441,0.4718,0.4487,0.4714,0.488,0.5521,0.7548,0.8616,0.8381,0.7703,0.6815,0.7329,0.7604,0.8388,0.8146,0.7524,0.6807,0.6163,0.5844,0.6079,0.616,0.6028,0.5763,0.5575,0.5505,0.5512,0.5582,0.5638,0.5701,0.5627,0.5624,0.5885,0.6017,0.609,0.6098,0.6106,0.6043,0.5704,0.5704,0.5701,0.5833,0.5892,0.5966,0.583,0.5693,0.5693,0.5763,0.5704,0.5641,0.5593,0.5593,0.5326,0.5336,0.5266,0.5376,0.5359,0.5296,0.5296,0.5302,0.5309,0.5379,0.5379,0.5372,0.5365,0.5362,0.5296,0.5369,0.5379,0.5386,0.5382,0.5243,0.4761,0.4289,0.3954,0.348,0.3211,0.3084,0.3021,0.3234,0.377,0.5052,0.5249,0.5312,0.49,0.4827,0.51,0.5369,0.5435,0.5432,0.5432,0.5372,0.5382,0.554,0.5681,0.5887,0.6013,0.6166,-1.4213,-0.2575,-0.0617,-0.0049,-0.005,0.2379,0.4809,0.6396,0.4323,0.5194,0.8124,0.9851,0.9435,0.709,0.8006,0.8134,0.7123,0.8227,0.7312,0.6308,0.6294,0.6935,0.761,0.7901,0.9036,0.9648,0.9675,0.8504,0.8373,0.8014,0.7726,0.8064,0.7954,0.7636,0.7472,0.7081,0.7062,0.7242,0.754,0.7615,0.7181,0.692,0.6457,0.6461,0.647,0.6924,0.712,0.6789,0.6985,0.7246,0.7377,0.726,0.7209,0.7152,0.7157,0.7082,0.7086,0.7143,0.7064,0.7064,0.7064,0.7125,0.7055,0.7116,0.7186,0.7186,0.7082,0.6933,0.6664,0.5841,0.5645,0.5582,0.5564,0.5428,0.5362,0.5362,0.5365,0.5365,0.5365,0.5435,0.5365,0.5362,0.5362,0.5362,0.5362,0.5369,0.5369,0.5369,0.5369,0.5435,0.5432,0.516,0.4891,0.504,0.4846,0.4503,0.4579,0.4909,0.504,0.5239,0.5369,0.5432,0.5435,0.541,0.5389,0.5369,0.5432,0.5459,0.5428,0.5435,0.5502,0.5663,0.5782,0.5905,0.5976]},{"header":{"parameterUnit":"m.s-1","parameterCategory":1,"la1":31.0,"la2":29.5877,"lo1":-88.7671,"lo2":-86.6584,"dy":0.0162,"dx":0.0185,"nx":115,"ny":88,"refTime":"2024-05-19T12:00:00:Z","depth":0,"parameterNumber":3,"parameterNumberName":"V-component_of_WINDS"},"data":[0.0,0.0,0.0,0.0,0.0,0.0,0.0,0.0,0.0,0.0,0.0,0.0,0.0,0.0,0.0,0.0,0.0,0.0,0.0,0.0,0.0,0.0,0.0,0.0,0.0,0.0,0.0,0.0,0.0,0.0,0.0,0.0,0.0,0.0,0.0,0.0,0.0,0.0,0.0,0.0,0.0,0.0,0.0,0.0,0.0,0.0,0.0,0.0,0.0,0.0,0.0,0.0,0.0,0.0,0.0,0.0,0.0,0.0,0.0,0.0,0.0,0.0,0.0,0.0,0.0,0.0,0.0,0.0,0.0,0.0,0.0,0.0,0.0,0.0,0.0,0.0,0.0,0.0,0.0,0.0,0.0,0.0,0.0,0.0,0.0,0.0,0.0,0.0,0.0,0.0,0.0,0.0,0.0,0.0,0.0,0.0,0.0,0.0,0.0,0.0,0.0,0.0,0.0,0.0,0.0,0.0,0.0,0.0,0.0,0.0,0.0,0.0,0.0,0.0,0.0,0.0,0.0,0.0,0.0,0.0,0.0,0.0,0.0,0.0,0.0,0.0,0.0,0.0,0.0,0.0,0.0,0.0,0.0,0.0,0.0,0.0,0.0,0.0,0.0,0.0,0.0,0.0,0.0,0.0,0.0,0.0,0.0,0.0,0.0,0.0,0.0,0.0,0.0,0.0,0.0,0.0,0.0,0.0,0.0,0.0,0.0,0.0,0.0,0.0,0.0,0.0,0.0,0.0,0.0,0.0,0.0,0.0,0.0,0.0,0.0,0.0,0.0,0.0,0.0,0.0,0.0,0.0,0.0,0.0,0.0,0.0,0.0,0.0,0.0,0.0,0.0,0.0,0.0,0.0,0.0,0.0,0.0,0.0,0.0,0.0,0.0,0.0,0.0,0.0,0.0,0.0,0.0,0.0,0.0,0.0,0.0,0.0,0.0,0.0,0.0,0.0,0.0,0.0,0.0,0.0,0.0,0.0,0.0,0.0,0.0,0.0,0.0,0.0,0.0,0.0,0.0,0.0,0.0,0.0,0.0,0.0,0.0,0.0,0.0,0.0,0.0,0.0,0.0,0.0,0.0,0.0,0.0,0.0,0.0,0.0,0.0,0.0,0.0,0.0,0.0,0.0,0.0,0.0,0.0,0.0,0.0,0.0,0.0,0.0,0.0,0.0,0.0,0.0,0.0,0.0,0.0,0.0,0.0,0.0,0.0,0.0,0.0,0.0,0.0,0.0,0.0,0.0,0.0,0.0,0.0,0.0,0.0,0.0,0.0,0.0,0.0,0.0,0.0,0.0,0.0,0.0,0.0,0.0,0.0,0.0,0.0,0.0,0.0,0.0,0.0,0.0,0.0,0.0,0.0,0.0,0.0,0.0,0.0,0.0,0.0,0.0,0.0,0.0,0.0,0.0,0.0,0.0,0.0,0.0,0.0,0.0,0.0,0.0,0.0,0.0,0.0,0.0,0.0,0.0,0.0,0.0,0.0,0.0,0.0,0.0,0.0,0.0,0.0,0.0,0.0,0.0,0.0,0.0,0.0,0.0,0.0,0.0,0.0,0.0,0.0,0.0,0.0,0.0,0.0,0.0,0.0,0.0,0.0,0.0,0.0,0.0,0.0,0.0,0.0,0.0,0.0,0.0,0.0,0.0,0.0,0.0,0.0,0.0,0.0,0.0,0.0,0.0,0.0,0.0,0.0,0.0,0.0,0.0,0.0,0.0,0.0,0.0,0.0,0.0,0.0,0.0,0.0,0.0,0.0,0.0,0.0,0.0,0.0,0.0,0.0,0.0,0.0,0.0,0.0,0.0,0.0,0.0,0.0,0.0,0.0,0.0,0.0,0.0,0.0,0.0,0.0,0.0,0.0,0.0,0.0,0.0,0.0,0.0,0.0,0.0,0.0,0.0,0.0,0.0,0.0,0.0,0.0,0.0,0.0,0.0,0.0,0.0,0.0,0.0,0.0,0.0,0.0,0.0,0.0,0.0,0.0,0.0,0.0,0.0,0.0,0.0,0.0,0.0,0.0,0.0,0.0,0.0,0.0,0.0,0.0,0.0,0.0,0.0,0.0,0.0,0.0,0.0,0.0,0.0,0.0,0.0,0.0,0.0,0.0,0.0,0.0,0.0,0.0,0.0,0.0,0.0,0.0,0.0,0.0,0.0,0.0,0.0,0.0,0.0,0.0,0.0,0.0,0.0,0.0,0.0,0.0,0.0,0.0,0.0,0.0,0.0,0.0,0.0,0.0,0.0,0.0,0.0,0.0,0.0,0.0,0.0,0.0,0.0,0.0,0.0,0.0,0.0,0.0,0.0,0.0,0.0,0.0,0.0,0.0,0.0,0.0,0.0,0.0,0.0,0.0,0.0,0.0,0.0,0.0,0.0,0.0,0.0,0.0,0.0,0.0,0.0,0.0,0.0,0.0,0.0,0.0,0.0,0.0,0.0,0.0,0.0,0.0,0.0,0.0,0.0,0.0,0.0,0.0,0.0,0.0,0.0,0.0,0.0,0.0,0.0,0.0,0.0,0.0,0.0,0.0,0.0,0.0,0.0,0.0,0.0,0.0,0.0,0.0,0.0,0.0,0.0,0.0,0.0,0.0,0.0,0.0,0.0,0.0,0.0,0.0,0.0,0.0,0.0,0.0,0.0,0.0,0.0,0.0,0.0,0.0,0.0,0.0,0.0,0.0,0.0,0.0,0.0,0.0,0.0,0.0,0.0,0.0,0.0,0.0,0.0,0.0,0.0,0.0,0.0,0.0,0.0,0.0,0.0,0.0,0.0,0.0,0.0,0.0,0.0,0.0,0.0,0.0,0.0,0.0,0.0,0.0,0.0,0.0,0.0,0.0,0.0,0.0,0.0,0.0,0.0,0.0,0.0,0.0,0.0,0.0,0.0,0.0,0.0,0.0,0.0,0.0,0.0,0.0,0.0,0.0,0.0,0.0,0.0,0.0,0.0,0.0,0.0,0.0,0.0,0.0,0.0,0.0,0.0,0.0,0.0,0.0,0.0,0.0,0.0,0.0,0.0,0.0,0.0,0.0,0.0,0.0,0.0,0.0,0.0,0.0,0.0,0.0,0.0,0.0,0.0,0.0,0.0,0.0,0.0,0.0,0.0,0.0,0.0,0.0,0.0,0.0,0.0,0.0,0.0,0.0,0.0,0.0,0.0,0.0,0.0,0.0,0.0,0.0,0.0,0.0,0.0,0.0,0.0,0.0,0.0,0.0,0.0,0.0,0.0,0.0,0.0,0.0,0.0,0.0,0.0,0.0,0.0,0.0,0.0,0.0,0.0,0.0,0.0,0.0,0.0,0.0,0.0,0.0,0.0,0.0,0.0,0.0,0.0,0.0,0.0,0.0,0.0,0.0,0.0,0.0,0.0,0.0,0.0,0.0,0.0,0.0,0.0,0.0,0.0,0.0,0.0,0.0,0.0,0.0,0.0,0.0,0.0,0.0,0.0,0.0,0.0,0.0,0.0,0.0,0.0,0.0,0.0,0.0,0.0,0.0,0.0,0.0,0.0,0.0,0.0,0.0,0.0,0.0,0.0,0.0,0.0,0.0,0.0,0.0,0.0,0.0,0.0,0.0,0.0,0.0,0.0,0.0,0.0,0.0,0.0,0.0,0.0,0.0,0.0,0.0,0.0,0.0,0.0,0.0,0.0,0.0,0.0,0.0,0.0,0.0,0.0,0.0,0.0,0.0,0.0,0.0,0.0,0.0,0.0,0.0,0.0,0.0,0.0,0.0,0.0,0.0,0.0,0.0,0.0,0.0,0.0,0.0,0.0,0.0,0.0,0.0,0.0,0.0,0.0,0.0,0.0,0.0,0.0,0.0,0.0,0.0,0.0,0.0,0.0,0.0,0.0,0.0,0.0,0.0,0.0,0.0,0.0,0.0,0.0,0.0,0.0,0.0,0.0,0.0,0.0,0.0,0.0,0.0,0.0,0.0,0.0,0.0,0.0,0.0,0.0,0.0,0.0,0.0,0.0,0.0,0.0,0.0,0.0,0.0,0.0,0.0,0.0,0.0,0.0,0.0,0.0,0.0,0.0,0.0,0.0,0.0,0.0,0.0,0.0,0.0,0.0,0.0,0.0,0.0,0.0,0.0,0.0,0.0,0.0,0.0,0.0,0.0,0.0,0.0,0.0,0.0,0.0,0.0,0.0,0.0,0.0,0.0,0.0,0.0,0.0,0.0,0.0,0.0,0.0,0.0,0.0,0.0,0.0,0.0,0.0,0.0,0.0,0.0,0.0,0.0,0.0,0.0118,0.0,0.0,0.0,0.0,0.0,0.0,0.0,0.0,0.0,0.0,0.0,0.0,0.0,0.0,0.0,0.0,0.0,0.0,0.0,0.0,0.0,0.0,0.0,0.0,0.0,0.0,0.0,0.0,0.0,0.0,0.0,0.0,0.0,0.0,0.0,0.0,0.0,0.0,0.0,0.0,0.0,0.0,0.0,0.0,0.0,0.0,0.0,0.0,0.0,0.0,0.0,0.0,0.0,0.0,0.0,0.0,0.0,0.0,0.0,0.0,0.0,0.0,0.0,0.0,0.0,0.0,0.0,0.0,0.0,0.0,0.0,0.0,0.0,0.0,0.0,0.0,0.0,0.0,0.0,0.0,0.0,0.0,0.0,0.0,0.0,0.0,0.0,0.0,0.0,0.0,0.0,0.0,0.0,0.0,0.0,0.0,0.0,0.0,0.0,0.0,0.0,0.0,0.0,0.0,0.0,0.0,0.0,0.0,0.0,0.0,0.5363,0.5276,0.5349,0.4179,0.1531,0.0,0.0,0.0,0.0,0.0,0.0,0.0,0.0,0.0,0.0,0.0,0.0,0.0,0.0,0.0,0.0,0.0,0.0,0.0,0.0,0.0,0.0,0.0,0.0,0.0,0.0,0.0,0.0,0.0,0.0,0.0,0.0,0.0,0.0,0.0,0.0,0.0,0.0,0.0,0.0,0.0,0.0,0.0,0.0,0.0,0.0,0.0,0.0,0.0,0.0,0.0,0.0,0.0,0.0,0.0,0.0,0.0,0.0,0.0,0.0,0.0,0.0,0.0,0.0,0.0,0.0,0.0,0.0,0.0,0.0,0.0,0.0,0.0,0.0,0.0,0.0,0.0,0.0,0.0,0.0,0.0,0.0,0.0,0.0,0.0,0.0,0.0,0.0,0.0,0.0,0.0,0.0,0.0,0.0,0.0,0.0,0.0,0.0,0.0,0.0,0.0,0.0,0.0,0.0,0.0,0.0,0.0,0.0,0.0,0.0,0.0,0.0,0.5216,0.4304,0.2156,0.0,0.0,0.0,0.0,0.0,0.0,0.0,0.0,0.0,0.0,0.0,0.0,0.0,0.0,0.0,0.0,0.0,0.0,0.0,0.0,0.0,0.0,0.0,0.0,0.0,0.0,0.0,0.0,0.0,0.0,0.0,0.0,0.0,0.0,0.0,0.0,0.0,0.0,0.0,0.0,0.0,0.0,0.0,0.0,0.0,0.0,0.0,0.0,0.0,0.0,0.0,0.0,0.0,0.0,0.0,0.0,0.0,0.0,0.0,0.0,0.0,0.0,0.0,0.0,0.0,0.0,0.0,0.0,0.0,0.0,0.0,0.0,0.0,0.0,0.0,0.0,0.0,0.0,0.0,0.0,0.0,0.0,0.0,0.0,0.0,0.0,0.0,0.0,0.0,0.0,0.0,0.0,0.0,0.0,0.0,0.0,0.0,0.0,0.0,0.0,0.0,0.0,0.0,0.0,0.0,0.0,0.0,0.0,0.0,0.0,0.5026,0.5075,0.5023,0.0,0.0396,0.0,0.0,0.0,0.0,0.0,0.0,0.0,0.0,0.0,0.0,0.0,0.0,0.0,0.0,0.0,0.0,0.0,0.0,0.0,0.0,0.0,0.0,0.0,0.0,0.0,0.0,0.0,0.0,0.0,0.0,0.0,0.0,0.0,0.0,0.0,0.0,0.0,0.0,0.0,0.0,0.0,0.0,0.0,0.0,0.0,0.0,0.0,0.0,0.0,0.0,0.0,0.0,0.0,0.0,0.0,0.0,0.0,0.0,0.0,0.0,0.0,0.0,0.0,0.0,0.0,0.0,0.0,0.0,0.0,0.0,0.0,0.0,0.0,0.0,0.0,0.0,0.0,0.0,0.0,0.0,0.0,0.0,0.0,0.0,0.0,0.0,0.0,0.0,0.0,0.0,0.0,0.0,0.0,0.0,0.0,0.0,0.0,0.0,0.0,0.0,0.0,0.0,0.0,0.0,0.0,0.0,0.0,0.0,0.0,0.0,0.0,0.4971,0.4766,0.323,0.0,0.0,0.0,0.0,0.0,0.0,0.0,0.0,0.0,0.0,0.0,0.0,0.0,0.0,0.0,0.0,0.0,0.0,0.0,0.0,0.0,0.0,0.0,0.0,0.0,0.0,0.0,0.0,0.0,0.0,0.0,0.0,0.0,0.0,0.0,0.0,0.0,0.0,0.0,0.0,0.0,0.0,0.0,0.0,0.0,0.0,0.0,0.0,0.0,0.0,0.0,0.0,0.0,0.0,0.0,0.0,0.0,0.0,0.0,0.0,0.0,0.0,0.0,0.0,0.0,0.0,0.0,0.0,0.0,0.0,0.0,0.0,0.0,0.0,0.0,0.0,0.0,0.0,0.0,0.0,0.0,0.0,0.0,0.0,0.0,0.0,0.0,0.0,0.0,0.0,0.0,0.0,0.0,0.0,0.0,0.0,0.0,0.0,0.0,0.0,0.0,0.0,0.0,0.0,0.0,0.0,0.0,0.0,0.0,0.0,0.2213,0.0,0.4722,0.4597,0.3118,0.012,0.0,0.0,0.0,0.0,0.0,0.0,0.0,0.0,0.0,0.0,0.0,0.0,0.0,0.0,0.0,0.0,0.0,0.0,0.0,0.0,0.0,0.0,0.0,0.0,0.0,0.0,0.0,0.0,0.0,0.0,0.0,0.0,0.0,0.0,0.0,0.0,0.0,0.0,0.0,0.0,0.0,0.0,0.0,0.0,0.0,0.0,0.0,0.0,0.0,0.0,0.0,0.0,0.0,0.0,0.0,0.0,0.0,0.0,0.0,0.0,0.0,0.0,0.0,0.0,0.0,0.0,0.0,0.0,0.0,0.0,0.0,0.0,0.0,0.0,0.0,0.0,0.0,0.0,0.0,0.0,0.0,0.0,0.0,0.0,0.0,0.0,0.0,0.0,0.0,0.0,0.0,0.0,0.0,0.0,0.0,0.0,0.0,0.0,0.0,0.0,0.0,0.0,0.0,0.0,0.0,0.0,0.0,0.0,0.0,-0.0478,0.1597,0.4336,0.4476,0.3064,0.0,0.0,0.0,0.0,0.0,0.0,0.0,0.0,0.0,0.0,0.0,0.0,0.0,0.0,0.0,0.0,0.0,0.0,0.0,0.0,0.0,0.0,0.0,0.0,0.0,0.0,0.0,0.0,0.0,0.0,0.0,0.0,0.0,0.0,0.0,0.0,0.0,0.0,0.0,0.0,0.0,0.0,0.0,0.0,0.0,0.0,0.0,0.0,0.0,0.0,0.0,0.0,0.0,0.0,0.0,0.0,0.0,0.0,0.0,0.0,0.0,0.0,0.0,0.0,0.0,0.0,0.0,0.0,0.0,0.0,0.0,0.0,0.0,0.0,0.0,0.0,0.0,0.0,0.0,0.0,0.0,0.0,0.0,0.0,0.0,0.0,0.0,0.0,0.0,0.0,0.0,0.0,0.0,0.0,0.0,0.0,0.0,0.0,0.0,0.0,0.0,0.0,0.0,0.0,0.0,0.0,0.0,0.0,0.0,-0.2151,0.1111,0.246,0.1676,0.1638,0.1127,0.0,0.0,0.0,0.0,0.0,0.0,0.0,0.0,0.0,0.0,0.0,0.0,0.0,0.0,0.0,0.0,0.0,0.0,0.0,0.0,0.0,0.0,0.0,0.0,0.0,0.0,0.0,0.0,0.0,0.0,0.0,0.0,0.0,0.0,0.0,0.0,0.0,0.0,0.0,0.0,0.0,0.0,0.0,0.0,0.0,0.0,0.0,0.0,0.0,0.0,0.0,0.0,0.0,0.0,0.0,0.0,0.0,0.0,0.0,0.0,0.0,0.0,0.0,0.0,0.0,0.0,0.0,0.0,0.0,0.0,0.0,0.0,0.0,0.0,0.0,0.0,0.0,0.0,0.0,0.0,0.0,0.0,0.0,0.0,0.0,0.0,0.0,0.0,0.0,0.0,0.0,0.0,0.0,0.0,0.0,0.0,0.0,0.0,0.0,0.0,0.0,0.0,0.0,0.0,0.0,0.0,0.0,0.0,0.0,-0.1506,0.0,0.2498,0.0,0.0482,-0.0469,0.0,0.0,0.0,0.0,0.0,0.0,0.0,0.0,0.0,0.0,0.0,0.0,0.0,0.0,0.0,0.0,0.0,0.0,0.0,0.0,0.0,0.0,0.0,0.0,0.0,0.0,0.0,0.0,0.0,0.0,0.0,0.0,0.0,0.0,0.0,0.0,0.0,0.0,0.0,0.0,0.0,0.0,0.0,0.0,0.0,0.0,0.0,0.0,0.0,0.0,0.0,0.0,0.0,0.0,0.0,0.0,0.0,0.0,0.0,0.0,0.0,0.0,0.0,0.0,0.0,0.0,0.0,0.0,0.0,0.0,0.0,0.0,0.0,0.0,0.0,0.0,0.0,0.0,0.0,0.0,0.0,0.0,0.0,0.0,0.0,0.0,0.0,0.0,0.0,0.0,0.0,0.0,0.0,0.0,0.0,0.0,0.0,0.0,0.0,0.0,0.0,0.0,0.0,0.0,0.0,0.0,0.0,0.0,-0.3115,-0.0368,-0.0184,0.1166,0.4162,0.1435,-0.139,0.0,0.0,0.0,0.0,0.0,0.0,0.0,0.0,0.0,0.0,0.0,0.0,0.0,0.0,0.0,0.0,0.0,0.0,0.0,0.0,0.0,0.0,0.0,0.0,0.0,0.0,0.0,0.0,0.0,0.0,0.0,0.0,0.0,0.0,0.0,0.0,0.0,0.0,0.0,0.0,0.0,0.0,0.0,0.0,0.0,0.0,0.0,0.0,0.0,0.0,0.0,0.0,0.0,0.0,0.0,0.0,0.0,0.0,0.0,0.0,0.0,0.0,0.0,0.0,0.0,0.0,0.0,0.0,0.0,0.0,0.0,0.0,0.0,0.0,0.0,0.0,0.0,0.0,0.0,0.0,0.0,0.0,0.0,0.0,0.0,0.0,0.0,0.0,0.0,0.0,0.0,0.0,0.0,0.0,0.0,0.0,0.0,0.0,0.0,0.0,0.0,0.0,0.0,0.0,0.0,0.0,0.0,0.0,0.0,-0.6041,-0.496,-0.3028,-0.0294,-0.0057,-0.0898,0.0,0.0,0.0,0.0,0.0,0.0,0.0,0.0,0.0,0.0,0.0,0.0,0.0,0.0,0.0,0.0,0.0,0.0,0.0,0.0,0.0,0.0,0.0,0.0,0.0,0.0,0.0,0.0,0.0,0.0,0.0,0.0,0.0,0.0,0.0,0.0,0.0,0.0,0.0,0.0,0.0,0.0,0.0,0.0,0.0,0.0,0.0,0.0,0.0,0.0,0.0,0.0,0.0,0.0,0.0,0.0,0.0,0.0,0.0,0.0,0.0,0.0,0.0,0.0,0.0,0.0,0.0,0.0,0.0,0.0,0.0,0.0,0.0,0.0,0.0,0.0,0.0,0.0,0.0,0.0,0.0,0.0,0.0,0.0,0.0,0.0,0.0,0.0,0.0,0.0,0.0,0.0,0.0,0.0,0.0,0.0,0.0,0.0,0.0,0.0,0.0,0.0,0.0,0.0,0.0,0.0,0.0,0.0,0.0,-0.9937,-1.2545,-1.1694,-0.6966,-0.4523,-0.3652,-0.4524,0.0,0.0,0.0,0.0,0.0,0.0,0.0,0.0,0.0,0.0,0.0,0.0,0.0,0.0,0.0,0.0,0.0,0.0,0.0,0.0,0.0,0.0,0.0,0.0,0.0,0.0,0.0,0.0,0.0,0.0,0.0,0.0,0.0,0.0,0.0,0.0,0.0,0.0,0.0,0.0,0.0,0.0,0.0,0.0,0.0,0.0,0.0,0.0,0.0,0.0,0.0,0.0,0.0,0.0,0.0,0.0,0.0,0.0,0.0,0.0,0.0,0.0,0.0,0.0,0.0,0.0,0.0,0.0,0.0,0.0,0.0,0.0,0.0,0.0,0.0,0.0,0.0,0.0,0.0,0.0,0.0,0.0,0.0,0.0,0.0,0.0,0.0,0.0,0.0,0.0,0.0,0.0,0.0,0.0,0.0,0.0,0.0,0.0,0.0,0.0,0.0,0.0,0.0,0.0,0.0,0.0,0.0,0.0,-1.1941,-2.1611,-2.2814,-1.4991,-1.1045,-0.8976,0.0,0.0,0.0,0.0,0.0,0.0,0.0,0.0,0.0,0.0,0.0,0.0,0.0,0.0,0.0,0.0,0.0,0.0,0.0,0.0,0.0,0.0,0.0,0.0,0.0,0.0,0.0,0.0,0.0,0.0,0.0,0.0,0.0,0.0,0.0,0.0,0.0,0.0,0.0,0.0,0.0,0.0,0.0,0.0,0.0,0.0,0.0,0.0,0.0,0.0,0.0,0.0,0.0,0.0,0.0,0.0,0.0,0.0,0.0,0.0,0.0,0.0,0.0,0.0,0.0,0.0,0.0,0.0,0.0,0.0,0.0,0.0,0.0,0.0,0.0,0.0,0.0,0.0,0.0,0.0,0.0,0.0,0.0,0.0,0.0,0.0,0.0,0.0,0.0,0.0,0.0,0.0,0.0,0.0,0.0,0.0,0.0,0.0,0.0,0.0,0.0,0.0,0.0,0.0,0.0,0.0,0.0,0.0,0.0,-1.5758,-2.3351,-2.4204,-1.712,-1.5079,-1.2968,0.0,0.0,0.0,0.0,0.0,0.0,0.0,0.0,0.0,0.0,0.0,0.0,0.0,0.0,0.0,0.0,0.0,0.0,0.0,0.0,0.0,0.0,0.0,0.0,0.0,0.0,0.0,0.0,0.0,0.0,0.0,0.0,0.0,0.0,0.0,0.0,0.0,0.0,0.0,0.0,0.0,0.0,0.0,0.0,0.0,0.0,0.0,0.0,0.0,0.0,0.0,0.0,0.0,0.0,0.0,0.0,0.0,0.0,0.0,0.0,0.0,0.0,0.0,0.0,0.0,0.0,0.0,0.0,0.0,0.0,0.0,0.0,0.0,0.0,0.0,0.0,0.0,0.0,0.0,0.0,0.0,0.0,0.0,0.0,0.0,0.0,0.0,0.0,0.0,0.0,0.0,0.0,0.0,0.0,0.0,0.0,0.0,0.0,0.0,0.0,0.0,0.0,0.0,0.0,0.0,0.0,0.0,0.0,-2.0157,-1.6781,-2.4284,-2.6466,-2.2612,-2.0062,-1.7026,0.0,0.0,0.0,0.0,0.0,0.0,0.0,0.0,0.0,0.0,0.0,0.0,0.0,0.0,0.0,0.0,0.0,0.0,0.0,0.0,0.0,0.0,0.0,0.0,0.0,0.0,0.0,0.0,0.0,0.0,0.0,0.0,0.0,0.0,0.0,0.0,0.0,0.0,0.0,0.0,0.0,0.0,0.0,0.0,0.0,0.0,0.0,0.0,0.0,0.0,0.0,0.0,0.0,0.0,0.0,0.0,0.0,0.0,0.0,0.0,0.0,0.0,0.0,0.0,0.0,0.0,0.0,0.0,0.0,0.0,0.0,0.0,0.0,0.0,0.0,0.0,0.0,0.0,0.0,0.0,0.0,0.0,0.0,0.0,0.0,0.0,0.0,0.0,0.0,0.0,0.0,0.0,0.0,0.0,0.0,0.0,0.0,0.0,0.0,0.0,0.0,0.0,0.0,0.0,0.0,0.0,0.0,0.0,-1.5059,-1.6533,-2.4409,-2.8779,-2.9148,-2.5045,-2.0793,0.0,0.0,0.0,0.0,0.0,0.0,0.0,0.0,0.0,0.0,0.0,0.0,0.0,0.0,0.0,0.0,0.0,0.0,0.0,0.0,0.0,0.0,0.0,0.0,0.0,0.0,0.0,0.0,0.0,0.0,0.0,0.0,0.0,0.0,0.0,0.0,0.0,0.0,0.0,0.0,0.0,0.0,0.0,0.0,0.0,0.0,0.0,0.0,0.0,0.0,0.0,0.0,0.0,0.0,0.0,0.0,0.0,0.0,0.0,0.0,0.0,0.0,0.0,0.0,0.0,0.0,0.0,0.0,0.0,0.0,0.0,0.0,0.0,0.0,0.0,0.0,0.0,0.0,0.0,0.0,0.0,0.0,0.0,0.0,0.0,0.0,0.0,0.0,0.0,0.0,0.0,0.0,0.0,0.0,0.0,0.0,0.0,0.0,0.0,0.0,0.0,0.0,0.0,0.0,0.0,0.0,0.0,0.0,-1.0479,-1.3969,-2.2468,-2.7665,-2.9079,-2.6437,-2.3328,0.0,0.0,0.0,0.0,0.0,0.0,0.0,0.0,0.0,0.0,0.0,0.0,0.0,0.0,0.0,0.0,0.0,0.0,0.0,0.0,0.0,0.0,0.0,0.0,0.0,0.0,0.0,0.0,0.0,0.0,0.0,0.0,0.0,0.0,0.0,0.0,0.0,0.0,0.0,0.0,0.0,0.0,0.0,0.0,0.0,0.0,0.0,0.0,-1.8233,0.0,0.0,0.0,0.0,0.0,0.0,0.0,0.0,0.0,0.0,0.0,0.0,0.0,0.0,0.0,0.0,0.0,0.0,0.0,0.0,0.0,0.0,0.0,0.0,0.0,0.0,0.0,0.0,0.0,0.0,0.0,0.0,0.0,0.0,0.0,0.0,0.0,0.0,0.0,0.0,0.0,0.0,0.0,0.0,0.0,0.0,0.0,0.0,0.0,0.0,0.0,0.0,0.0,0.0,0.0,0.0,0.0,0.0,0.0,-0.9051,-1.5548,-2.2524,-2.7094,-2.9011,-2.7893,-2.5558,0.0,0.0,0.0,0.0,0.0,0.0,0.0,0.0,0.0,0.0,0.0,0.0,0.0,0.0,0.0,0.0,0.0,0.0,0.0,0.0,0.0,0.0,0.0,0.0,0.0,0.0,0.0,0.0,0.0,0.0,0.0,0.0,0.0,0.0,0.0,0.0,0.0,0.0,0.0,0.0,0.0,0.0,0.0,0.0,0.0,0.0,0.0,0.0,0.0,0.0,0.0,0.0,0.0,0.0,0.0,0.0,0.0,0.0,0.0,0.0,0.0,0.0,0.0,0.0,0.0,0.0,0.0,0.0,0.0,0.0,0.0,0.0,0.0,0.0,0.0,0.0,0.0,0.0,0.0,0.0,0.0,0.0,0.0,0.0,0.0,0.0,0.0,0.0,0.0,0.0,0.0,0.0,0.0,0.0,0.0,0.0,0.0,0.0,0.0,0.0,0.0,0.0,0.0,0.0,0.0,0.0,0.0,-0.2557,-0.8591,-1.7823,-2.2833,-2.6574,-2.9096,-2.8964,-2.7207,-2.3768,0.0,0.0,0.0,0.0,0.0,0.0,0.0,0.0,0.0,0.0,0.0,0.0,0.0,0.0,0.0,0.0,0.0,0.0,0.0,0.0,0.0,0.0,0.0,0.0,0.0,0.0,0.0,0.0,0.0,0.0,0.0,0.0,0.0,0.0,0.0,0.0,0.0,0.0,-1.6132,-2.0159,0.0,0.0,0.0,0.0,0.0,0.0,0.0,0.0,-2.32,0.0,0.0,0.0,0.0,0.0,0.0,0.0,0.0,0.0,0.0,0.0,0.0,0.0,0.0,0.0,0.0,0.0,0.0,0.0,0.0,0.0,0.0,0.0,0.0,0.0,0.0,0.0,0.0,0.0,0.0,0.0,0.0,0.0,0.0,0.0,0.0,0.0,0.0,0.0,0.0,0.0,0.0,0.0,0.0,0.0,0.0,0.0,0.0,0.0,0.0,0.0,0.0,0.0,0.0,0.0,0.0,0.4163,0.0179,-0.6582,-1.617,-2.115,-2.5312,-2.8544,-2.8693,-2.7593,-2.534,0.0,0.0,0.0,0.0,0.0,0.0,0.0,0.0,0.0,0.0,0.0,0.0,0.0,0.0,0.0,0.0,0.0,0.0,0.0,0.0,0.0,0.0,0.0,0.0,0.0,0.0,0.0,0.0,0.0,0.0,0.0,0.0,0.0,0.0,0.0,0.0,0.0,0.0,0.0,-2.385,-2.4945,0.0,0.0,0.0,0.0,0.0,0.0,0.0,0.0,-2.6381,0.0,0.0,0.0,0.0,0.0,0.0,0.0,0.0,0.0,0.0,0.0,0.0,0.0,0.0,0.0,0.0,0.0,0.0,0.0,0.0,0.0,0.0,0.0,0.0,0.0,0.0,0.0,0.0,0.0,0.0,0.0,0.0,0.0,0.0,0.0,0.0,0.0,0.0,0.0,0.0,0.0,0.0,0.0,0.0,0.0,0.0,0.0,0.0,0.0,0.0,0.0,0.0,0.0,0.0,0.0,0.5573,0.0263,-0.6744,-1.5186,-2.0705,-2.4845,-2.7694,-2.7923,-2.7382,0.0,0.0,0.0,0.0,0.0,0.0,0.0,0.0,0.0,0.0,0.0,0.0,0.0,0.0,0.0,0.0,0.0,0.0,0.0,0.0,0.0,0.0,0.0,0.0,0.0,0.0,0.0,0.0,0.0,0.0,0.0,0.0,0.0,0.0,0.0,0.0,0.0,0.0,0.0,0.0,-2.7306,-2.979,-2.6504,0.0,0.0,0.0,0.0,0.0,0.0,-2.8595,-2.8767,0.0,0.0,0.0,0.0,0.0,0.0,0.0,0.0,0.0,0.0,0.0,0.0,0.0,0.0,0.0,0.0,0.0,0.0,0.0,0.0,0.0,0.0,0.0,0.0,0.0,0.0,0.0,0.0,0.0,0.0,0.0,0.0,0.0,0.0,0.0,0.0,0.0,0.0,0.0,0.0,0.0,0.0,0.0,0.0,0.0,0.0,0.0,0.0,0.0,0.0,0.0,0.0,0.0,0.0,0.0,0.6211,-0.0811,-0.7917,-1.486,-2.0258,-2.4228,-2.6626,-2.6928,-2.6718,0.0,0.0,0.0,0.0,0.0,0.0,0.0,0.0,0.0,0.0,0.0,0.0,0.0,0.0,0.0,0.0,0.0,0.0,0.0,0.0,0.0,0.0,0.0,0.0,0.0,0.0,0.0,0.0,0.0,0.0,0.0,0.0,0.0,0.0,0.0,0.0,0.0,0.0,0.0,0.0,0.0,-3.2973,-2.8813,-2.9619,0.0,0.0,0.0,0.0,-2.972,-3.055,0.0,0.0,0.0,0.0,0.0,0.0,0.0,0.0,0.0,0.0,0.0,0.0,0.0,0.0,0.0,0.0,0.0,0.0,0.0,0.0,0.0,0.0,0.0,0.0,0.0,0.0,0.0,0.0,0.0,0.0,0.0,0.0,0.0,0.0,0.0,0.0,0.0,0.0,0.0,0.0,0.0,0.0,0.0,0.0,0.0,0.0,0.0,0.0,0.0,0.0,0.0,0.0,0.0,0.0,0.0,0.0,0.6219,-0.2827,-1.0196,-1.5373,-1.9197,-2.2519,-2.5397,-2.5642,-2.5344,0.0,0.0,0.0,0.0,0.0,0.0,0.0,0.0,0.0,0.0,0.0,0.0,0.0,0.0,0.0,0.0,0.0,0.0,0.0,0.0,0.0,0.0,0.0,0.0,0.0,0.0,0.0,0.0,0.0,0.0,0.0,0.0,0.0,0.0,0.0,0.0,0.0,0.0,0.0,0.0,0.0,-3.0362,-3.2505,-3.21,-3.1681,0.0,0.0,-3.3374,-3.255,-3.3428,0.0,0.0,0.0,0.0,0.0,0.0,0.0,0.0,0.0,0.0,0.0,0.0,0.0,0.0,0.0,0.0,0.0,0.0,0.0,0.0,0.0,0.0,0.0,0.0,0.0,0.0,0.0,0.0,0.0,0.0,0.0,0.0,0.0,0.0,0.0,0.0,0.0,0.0,0.0,0.0,0.0,0.0,0.0,0.0,0.0,0.0,0.0,0.0,0.0,0.0,0.0,0.0,0.0,0.0,0.0,0.4988,0.5752,-0.3373,-1.0764,-1.5819,-1.9642,-2.3056,-2.6083,-2.5196,-2.4809,0.0,0.0,0.0,0.0,0.0,0.0,0.0,0.0,0.0,0.0,0.0,0.0,0.0,0.0,0.0,0.0,0.0,0.0,0.0,0.0,0.0,0.0,0.0,0.0,0.0,0.0,0.0,0.0,0.0,0.0,0.0,0.0,0.0,0.0,0.0,0.0,0.0,0.0,0.0,0.0,0.0,0.0,-3.1675,-3.2508,0.0,0.0,0.0,-3.4613,-3.3171,0.0,0.0,0.0,0.0,0.0,0.0,0.0,0.0,0.0,0.0,0.0,0.0,0.0,0.0,0.0,0.0,0.0,0.0,0.0,0.0,0.0,0.0,0.0,0.0,0.0,0.0,0.0,0.0,0.0,0.0,0.0,0.0,0.0,0.0,0.0,0.0,0.0,0.0,0.0,0.0,0.0,0.0,0.0,0.0,0.0,0.0,0.0,0.0,0.0,0.0,0.0,0.0,0.0,0.0,0.0,0.0,0.0,0.437,-0.4824,-1.1817,-1.6303,-2.0039,-2.3273,-2.5905,-2.4896,0.0,0.0,0.0,0.0,0.0,0.0,0.0,0.0,0.0,0.0,0.0,0.0,0.0,0.0,0.0,0.0,0.0,0.0,0.0,0.0,0.0,0.0,0.0,0.0,0.0,0.0,0.0,-1.1274,0.0,0.0,0.0,0.0,0.0,0.0,0.0,0.0,0.0,0.0,0.0,0.0,0.0,0.0,-3.0146,-3.0791,-3.2391,-3.3682,0.0,0.0,-3.5268,-3.3958,-3.5894,-3.6787,0.0,0.0,0.0,0.0,0.0,0.0,0.0,0.0,0.0,0.0,0.0,0.0,0.0,0.0,0.0,0.0,0.0,0.0,0.0,0.0,0.0,0.0,0.0,0.0,0.0,0.0,0.0,0.0,0.0,0.0,0.0,0.0,0.0,0.0,0.0,0.0,0.0,0.0,0.0,0.0,0.0,0.0,0.0,0.0,0.0,0.0,0.0,0.0,0.0,0.0,0.0,0.0,0.0,0.0,0.0,0.1114,-0.8271,-1.4429,-1.6934,-1.9846,-2.22,-2.3927,-2.4537,-2.4465,0.0,0.0,0.0,0.0,0.0,0.0,0.0,0.0,0.0,0.0,0.0,0.0,0.0,0.0,0.0,0.0,0.0,0.0,0.0,0.0,0.0,0.0,0.0,0.0,0.0,0.0,0.0,0.0,0.0,0.0,0.0,0.0,0.0,0.0,0.0,0.0,0.0,0.0,0.0,0.0,0.0,-2.8559,-3.1566,-3.2083,-3.3122,0.0,0.0,-3.5357,-3.5652,-3.7319,-3.7755,-3.523,0.0,0.0,0.0,0.0,0.0,0.0,0.0,0.0,0.0,0.0,0.0,0.0,0.0,0.0,0.0,0.0,0.0,0.0,0.0,0.0,0.0,0.0,0.0,0.0,0.0,0.0,0.0,0.0,0.0,0.0,0.0,0.0,0.0,0.0,0.0,0.0,0.0,0.0,0.0,0.0,0.0,0.0,0.0,0.0,0.0,0.0,0.0,0.0,0.0,0.0,0.0,0.0,0.0,0.0833,-0.1362,-0.9438,-1.5118,-1.8157,-2.0677,-2.316,-2.5569,-2.5126,-2.4636,0.0,0.0,0.0,0.0,0.0,0.0,0.0,0.0,0.0,0.0,0.0,0.0,0.0,0.0,0.0,0.0,0.0,0.0,0.0,0.0,0.0,0.0,0.0,0.0,0.0,0.0,0.0,0.0,-1.4689,-1.4635,-1.5405,0.0,0.0,0.0,0.0,0.0,0.0,0.0,0.0,0.0,0.0,-2.7369,-3.0539,-3.1608,0.0,0.0,-3.5332,-3.5525,-3.528,-3.7161,-3.7451,-3.3887,-3.3443,0.0,0.0,0.0,0.0,0.0,0.0,0.0,0.0,0.0,0.0,0.0,0.0,0.0,0.0,0.0,0.0,0.0,0.0,0.0,0.0,0.0,0.0,0.0,0.0,0.0,0.0,0.0,0.0,0.0,0.0,0.0,0.0,0.0,0.0,0.0,0.0,0.0,0.0,0.0,0.0,0.0,0.0,0.0,0.0,0.0,0.0,0.0,0.0,0.0,0.0,0.0,0.0,-0.1671,-0.4346,-1.1179,-1.6115,-1.8976,-2.1391,-2.3717,-2.5977,-2.572,-2.5387,0.0,0.0,0.0,0.0,0.0,0.0,0.0,0.0,0.0,0.0,0.0,0.0,0.0,0.0,0.0,0.0,0.0,0.0,0.0,0.0,0.0,0.0,0.0,0.0,0.0,0.0,0.0,0.0,-1.6183,-1.6031,-1.6517,0.0,0.0,0.0,0.0,0.0,0.0,0.0,0.0,0.0,0.0,-2.7066,-2.9469,-3.0494,-3.165,-3.3376,-3.4162,-3.4565,-3.4619,-3.6062,-3.6273,-3.3799,0.0,0.0,0.0,0.0,0.0,0.0,0.0,0.0,0.0,0.0,0.0,0.0,0.0,0.0,0.0,0.0,0.0,0.0,0.0,0.0,0.0,0.0,0.0,0.0,0.0,0.0,0.0,0.0,0.0,0.0,-1.5312,0.0,0.0,0.0,0.0,0.0,0.0,0.0,0.0,0.0,0.0,0.0,0.0,0.0,0.0,0.0,0.0,0.0,0.0,0.0,0.0,0.0,0.0,-0.5393,-0.7914,-1.3928,-1.7733,-1.912,-2.1771,-2.3631,-2.4527,-2.6268,-2.6844,-2.597,0.0,0.0,0.0,0.0,0.0,0.0,0.0,0.0,0.0,0.0,0.0,0.0,0.0,0.0,0.0,0.0,0.0,0.0,0.0,0.0,0.0,0.0,0.0,0.0,0.0,0.0,-1.7531,-1.8296,-1.8948,0.0,0.0,0.0,0.0,0.0,0.0,0.0,0.0,0.0,0.0,-2.7385,-2.7776,-2.8507,-2.8591,-2.9595,-3.2175,-3.199,-3.216,-3.3947,-3.3859,-3.4068,0.0,0.0,0.0,0.0,0.0,0.0,0.0,0.0,0.0,0.0,0.0,0.0,0.0,0.0,0.0,0.0,0.0,0.0,0.0,0.0,0.0,0.0,0.0,0.0,0.0,0.0,0.0,-1.6833,-1.6948,0.0,0.0,0.0,0.0,0.0,0.0,0.0,0.0,0.0,0.0,0.0,-1.513,-1.5183,0.0,0.0,0.0,0.0,0.0,0.0,0.0,0.0,0.0,0.0,0.0,0.0,-0.8356,-1.1542,-1.5266,-1.8076,-1.9812,-2.2287,-2.411,-2.5179,-2.6836,-2.7323,-2.6498,0.0,0.0,0.0,0.0,0.0,0.0,0.0,0.0,0.0,0.0,0.0,0.0,0.0,0.0,0.0,0.0,0.0,0.0,0.0,0.0,0.0,0.0,0.0,0.0,0.0,-1.7392,0.0,0.0,0.0,0.0,0.0,0.0,0.0,0.0,0.0,0.0,0.0,-2.3647,-2.4608,-2.4879,-2.5383,-2.6474,-2.8092,-2.9817,0.0,0.0,0.0,0.0,0.0,0.0,0.0,0.0,0.0,0.0,0.0,0.0,0.0,0.0,-3.4394,-3.3132,-3.3045,-3.3214,-3.3179,0.0,0.0,0.0,0.0,0.0,0.0,0.0,0.0,0.0,0.0,0.0,0.0,0.0,0.0,0.0,0.0,-1.837,0.0,0.0,0.0,0.0,0.0,0.0,0.0,0.0,-1.5142,-1.5032,-1.5395,-1.5466,-1.6076,0.0,-1.5949,-1.6009,0.0,0.0,0.0,0.0,0.0,0.0,0.0,0.0,-1.1407,-1.3867,-1.6612,-1.874,-2.0204,-2.2411,-2.4108,-2.5187,-2.7079,-2.7922,-2.7534,-2.6168,-2.5038,0.0,0.0,0.0,0.0,0.0,0.0,0.0,0.0,0.0,0.0,0.0,0.0,0.0,0.0,0.0,0.0,0.0,0.0,0.0,0.0,0.0,0.0,0.0,-1.9396,0.0,0.0,0.0,0.0,0.0,0.0,0.0,0.0,0.0,-2.1464,-2.1349,-2.1786,-2.3306,-2.3977,-2.472,-2.5751,0.0,0.0,0.0,0.0,0.0,0.0,0.0,-3.2634,-3.2573,-3.5005,-3.6737,-3.591,-3.62,-3.6562,-3.6562,0.0,0.0,-3.4641,-3.4769,-3.5142,-3.5123,-3.5123,-3.5048,-3.475,-3.4766,-3.4615,0.0,0.0,0.0,0.0,0.0,0.0,0.0,0.0,-1.7505,-1.7046,0.0,-1.7524,0.0,0.0,0.0,0.0,0.0,-1.5825,0.0,0.0,-1.617,-1.6496,-1.6706,-1.7277,-1.7772,-1.8136,-1.6802,-1.617,-1.6248,-1.499,0.0,0.0,0.0,0.0,0.0,0.0,-1.4432,-1.512,-1.8033,-1.9797,-2.0329,-2.221,-2.3667,-2.4615,-2.7176,-2.8734,-2.907,-2.8334,-2.7539,-2.6738,-2.423,0.0,0.0,0.0,0.0,0.0,0.0,0.0,0.0,0.0,0.0,0.0,0.0,0.0,0.0,0.0,0.0,0.0,0.0,0.0,0.0,-2.1321,0.0,0.0,0.0,0.0,0.0,0.0,0.0,0.0,0.0,0.0,-2.1885,-2.1626,-2.2002,-2.3269,0.0,0.0,0.0,0.0,-2.8288,-3.013,-2.9913,-3.0006,-3.1183,-3.1283,-3.2044,-3.4412,0.0,0.0,-3.8187,-3.7456,-3.6479,-3.6486,-3.7177,-3.7312,-3.6626,-3.6423,-3.6387,-3.6387,-3.6442,-3.6138,-3.543,-3.569,-3.5616,-1.4474,0.0,0.0,0.0,0.0,-1.582,-1.5942,-1.6313,-1.7037,-1.7164,-1.6947,-1.8263,0.0,0.0,0.0,0.0,0.0,0.0,-1.5633,-1.6659,-1.6933,-1.7413,-1.8108,-1.8785,-1.9202,-1.9278,-1.8255,-1.7622,-1.735,-1.6503,-1.5066,-1.3019,0.0,0.0,0.0,0.0,-1.63,-1.761,-1.892,-2.0237,-2.1532,-2.2915,-2.4817,-2.7251,-2.8652,-2.957,-3.0009,-2.9214,-2.8379,-2.7594,-2.623,0.0,0.0,0.0,0.0,0.0,0.0,0.0,0.0,0.0,0.0,0.0,0.0,0.0,0.0,0.0,0.0,0.0,0.0,0.0,-2.5706,-2.539,-2.454,0.0,0.0,0.0,0.0,0.0,0.0,0.0,0.0,0.0,-2.274,-2.1974,-2.1829,0.0,0.0,-2.3077,-2.4866,-2.6931,-2.8946,-3.0876,0.0,0.0,0.0,-3.2235,-3.1931,-3.3984,-3.5173,-3.6874,-3.9896,-3.9105,-3.8395,-3.946,-3.9423,-3.9294,-3.9606,-3.8762,-3.8083,-3.8046,-3.845,-3.8781,-3.8566,-3.8704,-3.8672,-1.472,-1.5215,-1.5032,-1.5308,-1.5865,-1.5659,-1.5732,-1.6103,-1.7166,-1.7429,-1.717,-1.8511,-1.8706,-1.8011,-1.7377,0.0,0.0,0.0,-1.6616,-1.7898,-1.8178,-1.8748,-1.9531,-1.9709,-1.9952,-2.0156,-1.9044,-1.8289,-1.7879,-1.7259,-1.6041,-1.4316,0.0,0.0,-1.4803,-1.6514,-1.7964,-1.914,-2.0061,-2.1199,-2.2496,-2.3954,-2.594,-2.839,-2.9286,-2.9931,-3.0386,-2.991,-2.941,-2.894,-2.7836,-2.6401,0.0,0.0,0.0,0.0,0.0,0.0,0.0,0.0,0.0,0.0,0.0,-1.7927,-1.7939,0.0,0.0,0.0,-2.1139,-2.482,-2.935,-2.6598,0.0,0.0,0.0,0.0,0.0,0.0,0.0,-2.4437,-2.4458,-2.4311,-2.3833,-2.388,-2.3837,-2.352,-2.3013,-2.3407,-2.5465,0.0,-2.9932,-3.1632,-3.2557,-3.3268,-3.3921,-3.2959,-3.2672,-3.4376,-3.6078,-3.7754,-3.9687,-3.9559,-3.9551,-4.0322,-4.0487,-4.0524,-4.1038,-4.0304,-3.9662,-3.968,-4.0029,-4.0294,-4.0093,-4.0005,-3.975,-1.5399,-1.6238,-1.5211,-1.5512,-1.6597,-1.6107,-1.6183,-1.6721,-1.7733,-1.7822,-1.7356,-1.8474,-1.8584,-1.7838,-1.7003,0.0,-1.7493,-1.7523,-1.8067,-1.9033,-1.9549,-2.0156,-2.0772,-2.022,-2.0259,-2.0798,-1.9482,-1.8546,-1.7981,-1.7516,-1.6952,-1.6367,-1.6416,-1.626,-1.6029,-1.8058,-1.9398,-2.0,-2.1321,-2.2427,-2.3395,-2.526,-2.6961,-2.8462,-2.9284,-2.9912,-3.0367,-3.0467,-3.0498,-3.0452,-2.9148,-2.9006,-3.0169,0.0,0.0,0.0,0.0,0.0,0.0,0.0,0.0,0.0,0.0,0.0,0.0,0.0,0.0,0.0,-2.6524,0.0,-3.0329,-2.5762,0.0,0.0,0.0,-2.4884,-2.5597,-2.5744,-2.5621,-2.5369,0.0,0.0,-2.5008,0.0,-2.7007,-2.5402,-2.5293,-2.5928,-2.7445,-2.9316,-3.1013,-3.2289,-3.2599,-3.2934,-3.371,-3.3633,-3.4015,-3.5308,-3.6845,-3.7962,-3.8674,-3.9386,-3.9827,-4.0212,-4.0726,-4.1258,-4.1277,-4.135,-4.1295,-4.1295,-4.1156,-4.093,-4.0438,-4.0003,-3.9605,-1.6017,-1.7218,-1.6553,-1.6867,-1.779,-1.7664,-1.7677,-1.7848,-1.8479,-1.8698,-1.8591,-1.9275,-1.9261,-1.8679,-1.8503,-1.8248,-1.8016,-1.8028,-1.8382,-1.906,-1.9681,-2.0237,-2.0784,-2.107,-2.1077,-2.0784,-2.0475,-1.9749,-1.8759,-1.8635,-1.8276,-1.7765,-1.8073,-1.7988,-1.7583,-1.8863,-2.0206,-2.1545,-2.1906,-2.3,-2.4908,-2.6548,-2.7761,-2.8489,-2.9262,-2.9912,-3.0367,-3.0467,-3.049,-3.0494,-3.0191,-2.966,-2.8814,-2.8935,0.0,0.0,0.0,0.0,0.0,0.0,0.0,0.0,0.0,-2.1408,-2.1374,0.0,-2.351,0.0,-2.4842,-2.5875,-2.5804,-2.5226,0.0,0.0,-2.3733,-2.4507,-2.4663,-2.5539,-2.6013,-2.5561,-2.6319,-2.6527,-2.5612,-2.6702,-2.7819,-2.8345,-2.8495,-2.8664,-2.9058,-2.9886,-3.1252,-3.2849,-3.3703,-3.4316,-3.4897,-3.507,-3.5172,-3.5556,-3.6606,-3.7632,-3.8542,-3.9373,-4.0286,-4.1423,-4.1864,-4.2231,-4.2763,-4.2928,-4.2892,-4.2839,-4.2084,-4.127,-4.1141,-4.0807,-4.053,-1.6244,-1.7544,-1.7276,-1.7809,-1.8894,-1.8405,-1.8204,-1.8251,-1.8773,-1.9002,-1.9002,-1.9573,-1.9509,-1.9033,-1.9278,-1.9172,-1.8938,-1.8906,-1.9073,-1.9368,-2.0057,-2.0656,-2.1199,-2.1549,-2.1662,-2.1623,-2.1042,-2.0456,-1.9882,-1.9827,-1.9646,-1.943,-2.0187,-2.0298,-1.9729,-1.9983,-2.0805,-2.2087,-2.2796,-2.407,-2.6012,-2.7091,-2.7901,-2.8452,-2.8902,-2.9175,-2.9317,-2.9394,-2.9434,-2.9464,-2.9532,-2.9181,-2.834,-2.9823,-2.877,0.0,0.0,0.0,0.0,0.0,0.0,0.0,0.0,0.0,0.0,0.0,-2.454,-2.3879,-2.6029,-2.689,-2.5459,-2.5279,-2.4804,-2.3742,-2.4115,-2.4826,-2.5617,-2.6639,-2.7303,-2.7273,-2.7953,-2.7905,-2.6672,-2.7152,-2.8115,-2.9426,-3.0072,-3.031,-3.0134,-3.1042,-3.2323,-3.3356,-3.4393,-3.5161,-3.5577,-3.5639,-3.5606,-3.5752,-3.7017,-3.847,-3.9577,-4.0445,-4.1277,-4.2121,-4.258,-4.2947,-4.3387,-4.3479,-4.3479,-4.3371,-4.2668,-4.1877,-4.1425,-4.1177,-4.0941,-1.6234,-1.7578,-1.7578,-1.8447,-1.9723,-1.8807,-1.8417,-1.8453,-1.89,-1.9166,-1.9239,-1.9643,-1.9587,-1.9245,-1.9648,-1.985,-1.994,-1.9952,-1.9939,-2.0066,-2.0708,-2.1313,-2.1831,-2.1917,-2.2207,-2.2658,-2.1586,-2.1015,-2.1038,-2.0968,-2.0953,-2.1038,-2.2032,-2.2265,-2.1724,-2.115,-2.1384,-2.2339,-2.3966,-2.5422,-2.6747,-2.7184,-2.7662,-2.8212,-2.8263,-2.8188,-2.8,-2.806,-2.8137,-2.8189,-2.8264,-2.8359,-2.8476,-2.9805,-2.9199,0.0,-2.4498,0.0,0.0,0.0,0.0,0.0,0.0,0.0,0.0,-2.5976,-2.5456,-2.4135,-2.8192,-2.9774,-2.6957,-2.5742,-2.5399,-2.6018,-2.5517,-2.5757,-2.7394,-2.8218,-2.8826,-2.9361,-2.9406,-2.8946,-2.7999,-2.7702,-2.8076,-2.9191,-3.0791,-3.1542,-3.1104,-3.2257,-3.3348,-3.37,-3.4752,-3.5532,-3.5577,-3.5639,-3.5603,-3.5862,-3.7479,-3.9651,-4.1178,-4.1839,-4.2286,-4.2359,-4.2928,-4.3442,-4.3479,-4.3479,-4.3479,-4.3479,-4.3105,-4.251,-4.1635,-4.1251,-4.0909,-1.6244,-1.7578,-1.7578,-1.8436,-1.9786,-1.9585,-1.951,-1.9497,-1.9598,-1.9937,-2.043,-1.9989,-2.0053,-2.0403,-2.0004,-2.0105,-2.0627,-2.062,-2.0845,-2.1354,-2.2018,-2.2429,-2.2556,-2.3008,-2.3066,-2.2716,-2.2431,-2.2058,-2.1545,-2.1574,-2.1551,-2.1557,-2.1787,-2.1843,-2.1724,0.0,0.0,0.0,-2.5777,-2.6851,-2.6737,-2.7151,-2.7394,-2.7417,-2.7415,0.0,-2.7898,-2.8023,-2.8099,-2.8106,-2.8237,0.0,0.0,0.0,0.0,0.0,0.0,0.0,0.0,0.0,0.0,0.0,-2.6895,-2.6437,-2.5954,-2.6068,-2.5879,-2.5345,-2.7779,-2.8698,-2.6894,-2.6841,-2.6936,-2.6969,-2.7364,-2.7858,-2.8247,-2.8825,-2.9271,-2.9361,-2.9406,-2.9329,-2.9053,-2.8213,-2.7721,-2.8321,-3.102,-3.2834,-3.2479,-3.2694,-3.3219,-3.4235,-3.5115,-3.5577,-3.5639,-3.5639,-3.562,-3.5838,-3.7171,-3.9598,-4.225,-4.2548,-4.2323,-4.2341,-4.2947,-4.3479,-4.3479,-4.3479,-4.3479,-4.3479,-4.341,-4.3087,-4.2329,-4.1516,-4.0804,-1.6255,0.0,-1.7578,-1.8447,0.0,-1.9798,-1.9798,-1.9798,-1.9798,-2.0003,-2.0283,-1.9952,-1.9965,-2.0295,-1.9952,-2.0181,-2.0779,-2.0832,-2.1139,-2.1704,-2.2391,-2.2706,-2.2701,-2.3301,-2.3419,-2.314,-2.2832,-2.268,-2.2606,-2.2331,-2.2326,-2.2629,-2.2629,-2.264,-2.2694,-2.3406,-2.3987,-2.4447,-2.5712,-2.665,-2.7285,-2.7618,-2.7787,-2.7778,0.0,0.0,0.0,0.0,0.0,0.0,0.0,0.0,0.0,0.0,0.0,-2.7762,-2.816,-2.8233,-2.7738,-2.7714,-2.7971,-2.8587,-2.8487,-2.7827,-2.6514,-2.6792,-2.6963,-2.6905,-2.8185,-2.8687,-2.7964,-2.8141,-2.8379,-2.8408,-2.8394,-2.849,-2.8842,-2.9453,-2.9978,-3.0251,-3.0293,-3.0274,-3.0299,-2.9816,-2.9399,-2.9499,-3.1677,-3.3533,-3.3583,-3.3562,-3.3971,-3.4894,-3.5362,-3.5594,-3.5639,-3.5622,-3.5616,-3.5882,-3.7831,-4.0435,-4.3047,-4.3194,-4.2892,-4.291,-4.324,-4.3479,-4.3479,-4.3479,-4.3479,-4.3479,-4.3479,-4.3177,-4.2293,-4.1531,-4.0958,-1.6234,-1.7578,-1.7578,-1.8436,-1.9798,-1.9798,-1.985,-1.9952,0.0,0.0,0.0,-2.0044,-2.0083,-2.0283,-2.0181,-2.0484,-2.114,-2.1126,-2.1438,-2.2039,-2.2615,-2.2841,-2.2891,-2.3389,-2.3595,-2.3551,-2.3098,-2.3098,-2.3551,-2.3098,-2.3098,-2.3566,-2.3681,-2.3837,-2.409,-2.4895,-2.5313,-2.5294,-2.5397,-2.619,-2.7611,-2.784,-2.7979,-2.8122,-2.8139,-2.8048,-2.7934,-2.7928,-2.7991,-2.808,-2.8106,-2.8165,-2.832,-2.8727,-2.8657,-2.7995,-2.8618,-2.9075,-2.9075,-2.9243,-2.9431,-2.9641,-2.9609,-2.89,-2.7272,-2.7496,-2.7836,-2.8166,-2.8909,-2.9319,-2.9062,-2.9393,-2.9636,-2.9722,-2.9231,-2.9123,-2.9575,-3.0079,-3.0658,-3.1095,-3.1151,-3.1173,-3.1116,-3.1108,-3.1172,-3.1344,-3.24,-3.3719,-3.4349,-3.4618,-3.4894,-3.5424,-3.5577,-3.5622,-3.5756,-3.5817,-3.5749,-3.5762,-3.8468,-4.1232,-4.2603,-4.3178,-4.3279,-4.313,-4.3351,-4.3479,-4.3479,-4.3479,-4.3479,-4.3479,-4.3479,-4.3175,-4.2098,-4.1609,-4.1389,-1.6301,-1.7578,-1.7578,-1.8447,-1.9798,-1.9798,-2.0144,-2.0597,-2.0055,-2.0421,-2.1397,-2.0907,-2.128,-2.2267,-2.1663,-2.1819,-2.2406,-2.2406,-2.277,0.0,-2.3407,-2.348,-2.3492,-2.358,-2.3595,-2.3595,-2.3523,-2.3508,-2.3595,-2.3508,-2.3508,-2.3623,-2.4074,-2.4736,-2.5594,-2.5794,-2.6098,-2.6455,-2.6472,-2.6607,-2.6869,-2.6849,-2.6913,-2.7103,-2.714,-2.7276,-2.7567,-2.7635,-2.7783,-2.7999,-2.8074,-2.8409,-2.9085,-2.897,-2.9201,-3.0051,-3.0152,-3.0167,-3.0155,-2.9991,-2.9766,-2.9492,-2.9527,-2.9175,-2.8258,-2.7377,-2.725,-2.8174,-2.983,-3.0381,-2.9282,-3.0154,-3.0549,-2.9888,-3.0353,-3.0847,-3.0853,-3.0954,-3.1055,-3.119,-3.119,-3.119,-3.1196,-3.1173,-3.1167,-3.1412,-3.2622,-3.391,-3.4936,-3.5436,-3.547,-3.5577,-3.5639,-3.5766,-3.6097,-3.6429,-3.6277,-3.5688,-3.8271,-4.0547,-4.127,-4.2044,-4.2433,-4.247,-4.2983,-4.3387,-4.3424,-4.3479,-4.3479,-4.3479,-4.3479,-4.3121,-4.2118,-4.2181,-4.2181,-1.6641,-1.7633,-1.8015,-1.8665,-1.9359,-1.907,-1.9256,-1.9808,-1.9894,-2.0576,-2.1641,-2.1415,-2.1622,-2.2086,-2.1852,-2.2067,-2.2709,-2.2709,-2.3009,-2.3595,-2.3595,-2.3595,-2.3595,-2.3595,-2.3595,-2.3595,-2.3595,-2.3595,-2.3595,-2.3595,-2.3595,-2.3638,-2.4158,-2.4934,-2.5921,-2.601,-2.6346,-2.7004,-2.6808,-2.6911,-2.7356,-2.7317,-2.7586,-2.8237,-2.8257,-2.839,-2.8676,-2.8831,-2.8964,-2.9078,-2.925,-2.9509,-2.9867,-2.9752,-2.9906,-3.0448,-3.0448,-3.0398,-3.0398,-3.0032,-2.9883,-3.0048,-3.0386,-3.0523,-3.0361,-2.9404,-2.9132,-2.9917,-3.1341,-3.162,-3.0362,-3.0994,-3.1261,-3.056,-3.0954,-3.1173,-3.119,-3.119,-3.119,-3.119,-3.119,-3.119,-3.119,-3.119,-3.119,-3.1399,-3.3056,-3.4687,-3.5006,-3.5385,-3.5622,-3.5622,-3.5871,-3.6097,-3.6374,-3.6736,-3.6759,-3.6511,-3.8223,-3.9516,-3.9929,-4.0735,-4.1537,-4.1699,-4.2304,-4.2782,-4.2855,-4.3222,-4.3424,-4.3479,-4.3479,-4.3193,-4.2868,-4.2941,-4.283,-1.6922,-1.7688,-1.8382,-1.8806,-1.8995,-1.8573,-1.878,-1.9484,-2.0132,-2.0961,-2.1834,-2.1944,-2.2001,-2.2151,-2.2118,-2.2438,-2.2875,-2.292,-2.3143,-2.3551,-2.3595,-2.3595,-2.3595,-2.3595,-2.3595,-2.3595,-2.3595,-2.3595,-2.3595,-2.3595,-2.3709,-2.3991,-2.4389,-2.5089,-2.612,-2.6151,-2.6549,-2.7224,-2.7002,-2.723,-2.7974,-2.7992,-2.8446,-2.9228,-2.931,-2.9395,-2.9607,-2.9767,-2.9899,-3.0018,-3.0196,-3.0323,-3.0398,-3.0398,-3.0398,-3.0398,-3.0323,-3.0267,-3.0234,-2.9883,-2.9908,-3.0549,-3.1094,-3.1613,-3.2009,-3.1665,-3.138,-3.1693,-3.2346,-3.2466,-3.1618,-3.1545,-3.1554,-3.1235,-3.119,-3.119,-3.119,-3.119,-3.119,-3.119,-3.119,-3.119,-3.119,-3.119,-3.1207,-3.1546,-3.3588,-3.4925,-3.4694,-3.5131,-3.5571,-3.5827,-3.6139,-3.6522,-3.6684,-3.7041,-3.7324,-3.7487,-3.8329,-3.8896,-3.9091,-3.9962,-4.0712,-4.091,-4.1497,-4.1956,-4.2084,-4.247,-4.2782,-4.2782,-4.2745,-4.291,-4.3041,-4.3296,-4.3355,-1.6922,-1.7688,-1.8447,-1.8806,-1.8957,-1.89,-1.9567,-2.0647,-2.1305,-2.195,-2.2529,-2.263,-2.2892,-2.3376,-2.3363,-2.3406,-2.3465,-2.3508,-2.3551,-2.361,-2.3595,-2.3595,-2.3595,-2.3595,-2.3595,-2.3595,-2.3595,-2.3595,-2.3595,-2.3595,-2.4116,-2.495,-2.5089,-2.5635,-2.6521,-2.6623,-2.6858,-2.7286,-2.7264,-2.7622,-2.8314,-2.835,-2.8565,-2.9021,-2.9021,-2.9138,-2.9394,-2.945,-2.9622,-2.9939,-3.0032,-3.015,-3.0367,-3.0398,-3.0398,-3.0398,-3.0106,-2.9897,-2.9763,-2.9551,-2.9768,-3.0546,-3.1094,-3.1733,-3.2462,-3.3103,-3.3161,-3.2652,-3.2497,-3.2557,-3.2334,-3.1756,-3.131,-3.1223,-3.1173,-3.119,-3.119,-3.119,-3.119,-3.119,-3.119,-3.119,-3.119,-3.119,-3.1202,-3.12,-3.2822,-3.4227,-3.4415,-3.5067,-3.5778,-3.6155,-3.6399,-3.6825,-3.7452,-3.7665,-3.7907,-3.8382,-3.8601,-3.8729,-3.8925,-3.9328,-3.9992,-4.0084,-4.0671,-4.1167,-4.1222,-4.1332,-4.1442,-4.168,-4.1662,-4.1625,-4.2268,-4.2996,-4.3348,-1.7556,-1.8302,-1.9069,-1.9044,-1.8566,-1.8513,-1.9017,-1.9908,-2.0868,-2.1773,-2.2678,-2.3076,-2.3198,-2.3113,-2.3421,-2.3595,-2.3595,-2.3595,-2.3595,-2.3595,-2.3595,-2.3595,-2.3595,-2.3595,-2.3595,-2.3595,-2.3595,-2.3595,-2.3623,-2.3906,-2.4471,-2.5166,-2.5486,-2.6033,-2.6657,-2.6708,-2.6987,-2.7613,-2.7497,-2.7856,-2.8615,-2.854,-2.859,-2.8952,-2.8975,-2.9062,-2.9156,-2.9314,-2.9467,-2.9644,-2.9858,-3.0061,-3.015,-3.0311,-3.04,-3.0355,-2.9734,-2.9393,-2.9495,-2.9434,-2.9683,-3.0305,-3.1017,-3.1733,-3.254,-3.3348,-3.3634,-3.3361,-3.3237,-3.328,-3.3187,-3.2331,-3.1585,-3.1271,-3.1193,-3.119,-3.119,-3.119,-3.119,-3.119,-3.119,-3.119,-3.119,-3.119,-3.1168,-3.1223,-3.2046,-3.2778,-3.3505,-3.4655,-3.5677,-3.6423,-3.6948,-3.7397,-3.7859,-3.8147,-3.8378,-3.8609,-3.8707,-3.8707,-3.8762,-3.8891,-3.9184,-3.9203,-3.9882,-4.0341,-4.0377,-4.0855,-4.1097,-4.1056,-4.1079,-4.124,-4.1552,-4.261,-4.3195,-1.779,-1.8543,-1.929,-1.9058,-1.8226,-1.8377,-1.8671,-1.9253,-2.0541,-2.1628,-2.2452,-2.3276,-2.3279,-2.2828,-2.3334,-2.3595,-2.3595,-2.3595,-2.3595,-2.3595,-2.3595,-2.3595,-2.3595,-2.3595,-2.3595,-2.3595,-2.3595,-2.3681,-2.3837,-2.4199,-2.4752,-2.5389,-2.5815,-2.6243,-2.6657,-2.6708,-2.7083,-2.7816,-2.7705,-2.8059,-2.8819,-2.8725,-2.8725,-2.8994,-2.8975,-2.8975,-2.8975,-2.92,-2.933,-2.9394,-2.9678,-2.9893,-2.9999,-3.0251,-3.0285,-2.9994,-2.9377,-2.9082,-2.9272,-2.9289,-2.9647,-3.0436,-3.1072,-3.1843,-3.2797,-3.3476,-3.3788,-3.378,-3.3807,-3.3799,-3.3701,-3.3046,-3.2325,-3.1655,-3.1556,-3.1545,-3.1562,-3.1562,-3.16,-3.1579,-3.162,-3.1439,-3.1264,-3.1216,-3.125,-3.1582,-3.1568,-3.1859,-3.3058,-3.4516,-3.5779,-3.6588,-3.7372,-3.7891,-3.8099,-3.8382,-3.8676,-3.8707,-3.8707,-3.8707,-3.8707,-3.8707,-3.8726,-3.8982,-3.935,-3.9496,-3.9551,-4.0102,-4.0487,-4.0469,-4.0469,-4.0671,-4.113,-4.2169,-4.2665,-1.7254,-1.804,-1.8746,-1.8794,-1.8251,-1.876,-1.9041,-1.9261,-2.0907,-2.1728,-2.2002,-2.3083,-2.3275,-2.2785,-2.3377,-2.3595,-2.3595,-2.3595,-2.3595,-2.3595,-2.3595,-2.3595,-2.3595,-2.3595,-2.3595,-2.3694,-2.3668,-2.3909,-2.4307,-2.4415,-2.4934,-2.5888,-2.5997,-2.6262,-2.6624,-2.6725,-2.7115,-2.778,-2.7893,-2.8265,-2.8902,-2.8994,-2.8952,-2.8975,-2.8975,-2.8975,-2.9017,-2.9017,-2.9134,-2.9373,-2.9434,-2.9607,-2.9958,-3.0243,-2.9981,-2.923,-2.902,-2.8989,-2.903,-2.9021,-2.9646,-3.0962,-3.1311,-3.2045,-3.333,-3.3697,-3.3807,-3.3807,-3.3807,-3.3826,-3.3826,-3.3659,-3.3252,-3.2568,-3.2433,-3.2384,-3.2384,-3.2316,-3.2417,-3.2384,-3.2316,-3.2072,-3.1373,-3.1196,-3.1687,-3.2159,-3.2213,-3.2494,-3.3494,-3.4889,-3.5883,-3.6676,-3.7383,-3.8047,-3.8528,-3.8658,-3.8676,-3.8707,-3.8707,-3.8707,-3.8707,-3.8707,-3.8707,-3.8707,-3.8854,-3.8909,-3.8799,-3.8854,-3.9038,-3.9111,-3.9184,-3.9496,-4.0341,-4.091,-4.146,-1.7303,-1.8672,-1.9271,-1.9221,-1.8792,-1.927,-1.9574,-1.9794,-2.1139,-2.1946,-2.2443,-2.3231,-2.3465,-2.3275,-2.3508,-2.3595,-2.3595,-2.3595,-2.3595,-2.3595,-2.3595,-2.3595,-2.3625,-2.3934,-2.4109,-2.4132,-2.4097,-2.4204,-2.4471,-2.5051,-2.5615,-2.5977,-2.6297,-2.6539,-2.6725,-2.6962,-2.7353,-2.7862,-2.8026,-2.8375,-2.892,-2.8975,-2.8975,-2.8975,-2.8975,-2.8975,-2.8975,-2.8975,-2.9134,-2.9373,-2.9373,-2.9532,-2.9784,-2.9813,-2.9587,-2.9074,-2.8981,-2.8997,-2.8998,-2.8975,-2.9434,-3.0503,-3.1127,-3.1843,-3.2852,-3.3495,-3.3807,-3.3807,-3.3807,-3.3799,-3.3807,-3.3818,-3.3665,-3.3355,-3.2838,-3.255,-3.2517,-3.2517,-3.2517,-3.2517,-3.2517,-3.2413,-3.2479,-3.2623,-3.2834,-3.2834,-3.3029,-3.3446,-3.3981,-3.4691,-3.554,-3.6848,-3.7466,-3.788,-3.8627,-3.8707,-3.8707,-3.8707,-3.8707,-3.8707,-3.8707,-3.8707,-3.8707,-3.8707,-3.8707,-3.8707,-3.8726,-3.8726,-3.8707,-3.8707,-3.8707,-3.8927,-3.9441,-4.023,-4.0744,-1.7387,-1.8709,-1.9334,-1.9346,-1.9058,-1.9579,-1.9736,-1.9812,-2.0906,-2.1755,-2.2395,-2.3025,-2.3404,-2.358,-2.3595,-2.3595,-2.3595,-2.3595,-2.3595,-2.3595,-2.3595,-2.3595,-2.361,-2.3786,-2.3927,-2.4069,-2.4257,-2.4455,-2.4965,-2.5652,-2.6049,-2.6262,-2.6539,-2.6708,-2.6775,-2.7097,-2.7506,-2.788,-2.8135,-2.8507,-2.8938,-2.8975,-2.8975,-2.8975,-2.8975,-2.8975,-2.8998,-2.9108,-2.9203,-2.9372,-2.9373,-2.9434,-2.9474,-2.9471,-2.9314,-2.9042,-2.8997,-2.8975,-2.8975,-2.8975,-2.9365,-3.0136,-3.0944,-3.1733,-3.2559,-3.3348,-3.3752,-3.3807,-3.3807,-3.3807,-3.3817,-3.3816,-3.3811,-3.3764,-3.3262,-3.2934,-3.2934,-3.2934,-3.2934,-3.2965,-3.2965,-3.3055,-3.3234,-3.3548,-3.3561,-3.3288,-3.3584,-3.396,-3.4456,-3.4915,-3.5533,-3.7154,-3.7741,-3.8145,-3.8579,-3.8707,-3.8707,-3.8707,-3.8707,-3.8707,-3.8738,-3.8738,-3.875,-3.8719,-3.8689,-3.8707,-3.8707,-3.8707,-3.8707,-3.8707,-3.8744,-3.8891,-3.9313,-3.9698,-4.0226,-1.7718,-1.8304,-1.877,-1.912,-1.9158,-1.9598,-1.9484,-1.9383,-2.041,-2.1291,-2.1899,-2.2497,-2.3183,-2.3507,-2.3595,-2.3595,-2.3595,-2.3595,-2.3595,-2.3595,-2.3595,-2.3595,-2.3595,-2.3198,-2.3243,-2.3602,-2.3964,-2.4814,-2.5835,-2.6013,-2.6262,-2.6607,-2.6657,-2.6708,-2.6708,-2.7113,-2.752,-2.7897,-2.825,-2.8617,-2.8938,-2.8975,-2.8975,-2.8975,-2.9017,-2.9021,-2.9021,-2.9246,-2.9392,-2.9414,-2.9414,-2.9289,-2.916,-2.9246,-2.9267,-2.9048,-2.8975,-2.8975,-2.8975,-2.8994,-2.9365,-3.0136,-3.0925,-3.1733,-3.254,-3.333,-3.3807,-3.3807,-3.3807,-3.3807,-3.3807,-3.3817,-3.3808,-3.3825,-3.368,-3.3652,-3.3707,-3.378,-3.378,-3.3707,-3.368,-3.378,-3.378,-3.379,-3.3762,-3.3744,-3.379,-3.4174,-3.4924,-3.552,-3.6421,-3.7404,-3.7918,-3.823,-3.8505,-3.8707,-3.8707,-3.8707,-3.8689,-3.8689,-3.8877,-3.8907,-3.8902,-3.8931,-3.8952,-3.897,-3.8815,-3.8815,-3.8762,-3.875,-3.8793,-3.8866,-3.9179,-3.9509,-3.981,-1.8392,-1.8329,-1.9183,-1.956,-1.9585,-1.9736,-1.9698,-1.9674,-2.0901,-2.1519,-2.1894,-2.2833,-2.3419,-2.358,-2.3595,-2.3595,-2.3595,-2.3595,-2.3595,-2.3595,-2.3595,-2.3595,-2.361,-2.3653,-2.3881,-2.4445,-2.5397,-2.5907,-2.6019,-2.6332,-2.659,-2.6691,-2.6708,-2.6708,-2.6775,-2.7356,-2.7805,-2.7943,-2.8492,-2.8902,-2.8975,-2.8975,-2.8975,-2.9017,-2.916,-2.9267,-2.9307,-2.9372,-2.9474,-2.9589,-2.9607,-2.9513,-2.9368,-2.9218,-2.9089,-2.8998,-2.8975,-2.8975,-2.8975,-2.9035,-2.937,-3.0136,-3.0925,-3.1733,-3.254,-3.3311,-3.3752,-3.3788,-3.3807,-3.3807,-3.3807,-3.3807,-3.3807,-3.3807,-3.3807,-3.3807,-3.3807,-3.3807,-3.3807,-3.3807,-3.3807,-3.3807,-3.3807,-3.3807,-3.3807,-3.3807,-3.3825,-3.4247,-3.5477,-3.555,-3.634,-3.7863,-3.8083,-3.8212,-3.8542,-3.8707,-3.8738,-3.8768,-3.875,-3.8859,-3.8995,-3.9044,-3.9055,-3.9154,-3.9216,-3.9171,-3.9027,-3.8961,-3.8923,-3.8785,-3.881,-3.8891,-3.9026,-3.9319,-3.9719,-1.8643,-1.8593,-1.9221,-1.9635,-1.9786,-1.9798,-1.9798,-1.9888,-2.0617,-2.1249,-2.1805,-2.2511,-2.3183,-2.3507,-2.3595,-2.3595,-2.3595,-2.3595,-2.3595,-2.3595,-2.3595,-2.3698,-2.3882,-2.4233,-2.4514,-2.4962,-2.583,-2.6286,-2.6297,-2.6556,-2.6708,-2.6708,-2.6708,-2.6791,-2.6956,-2.7556,-2.7918,-2.8138,-2.8676,-2.8975,-2.8975,-2.8975,-2.9044,-2.9175,-2.9317,-2.9446,-2.9493,-2.957,-2.9698,-2.9799,-2.9813,-2.9713,-2.9514,-2.9291,-2.9138,-2.9023,-2.9138,-2.9175,-2.9138,-2.9249,-2.9413,-2.9954,-3.0632,-3.1231,-3.1813,-3.2651,-3.3403,-3.3768,-3.3815,-3.3807,-3.3807,-3.3807,-3.3807,-3.3807,-3.3807,-3.3807,-3.3807,-3.3807,-3.3807,-3.3807,-3.3807,-3.3807,-3.3807,-3.3807,-3.3807,-3.3807,-3.3825,-3.4192,-3.5312,-3.5312,-3.6486,-3.7507,-3.7753,-3.8065,-3.8579,-3.8738,-3.8768,-3.8799,-3.8829,-3.8995,-3.9156,-3.9129,-3.9117,-3.9352,-3.9457,-3.9432,-3.9308,-3.9282,-3.9257,-3.9082,-3.8933,-3.9073,-3.9275,-3.9458,-3.9757,-1.8581,-1.8958,-1.907,-1.9409,-1.9773,-1.9798,-1.9798,-1.9811,-2.0054,-2.0762,-2.16,-2.203,-2.2599,-2.3419,-2.3595,-2.3595,-2.3595,-2.3595,-2.3595,-2.361,-2.3683,-2.3945,-2.4348,-2.4726,-2.4979,-2.5113,-2.558,-2.6066,-2.659,-2.6657,-2.6708,-2.6708,-2.6758,-2.6939,-2.7276,-2.7709,-2.8067,-2.836,-2.8773,-2.8975,-2.8998,-2.9026,-2.9156,-2.9372,-2.9434,-2.9541,-2.9716,-2.9902,-2.9996,-3.0018,-3.0003,-2.9915,-2.9621,-2.9551,-2.9451,-2.9132,-2.9357,-2.9451,-2.9472,-2.9533,-2.9589,-2.9583,-3.0209,-3.0494,-3.0696,-3.1776,-3.2915,-3.3692,-3.3805,-3.3807,-3.3807,-3.3807,-3.3807,-3.3807,-3.3807,-3.3807,-3.3807,-3.3807,-3.3807,-3.3807,-3.3807,-3.3807,-3.3807,-3.3807,-3.3852,-3.3923,-3.3968,-3.4428,-3.4987,-3.5483,-3.5957,-3.6629,-3.7387,-3.7655,-3.809,-3.8888,-3.8906,-3.8701,-3.8868,-3.9264,-3.9383,-3.9308,-3.9387,-3.9611,-3.9583,-3.9577,-3.9645,-3.9622,-3.9552,-3.9408,-3.9395,-3.9444,-3.9524,-3.9689,-3.9815,-1.9246,-1.9021,-1.9434,-1.9673,-1.9798,-1.9798,-1.9786,-1.9964,-2.0772,-2.1223,-2.1819,-2.2716,-2.3183,-2.3595,-2.3595,-2.3595,-2.3595,-2.3595,-2.3595,-2.3683,-2.4038,-2.4356,-2.4798,-2.5361,-2.5597,-2.5564,-2.605,-2.6505,-2.6691,-2.6708,-2.6708,-2.6708,-2.7004,-2.7161,-2.7365,-2.7961,-2.8273,-2.8438,-2.8797,-2.8975,-2.9044,-2.9212,-2.9318,-2.9394,-2.9683,-2.9823,-2.9943,-3.0174,-3.0202,-3.0032,-3.0185,-3.0266,-3.0141,-3.0112,-2.9926,-2.9626,-2.9663,-2.9757,-2.9662,-2.9678,-2.9678,-2.9682,-3.0186,-3.0562,-3.0553,-3.1212,-3.236,-3.3397,-3.3821,-3.3831,-3.3815,-3.3807,-3.3807,-3.3807,-3.377,-3.3807,-3.3807,-3.3807,-3.3807,-3.3807,-3.3807,-3.3807,-3.3815,-3.3915,-3.4013,-3.4309,-3.4457,-3.4617,-3.5155,-3.5469,-3.5832,-3.6601,-3.7216,-3.7304,-3.7703,-3.8633,-3.8957,-3.8638,-3.8936,-3.9618,-3.9667,-3.9623,-3.9833,-4.0091,-3.9583,-3.9433,-3.9756,-3.9963,-3.984,-3.9757,-3.9675,-3.9681,-3.9678,-3.9791,-3.9979,-1.9246,-1.9032,-1.9108,-1.9271,-1.9434,-1.9233,-1.9269,-1.9607,-2.022,-2.1046,-2.1731,-2.2439,-2.3096,-2.358,-2.3595,-2.3595,-2.3595,-2.3595,-2.3736,-2.4055,-2.4712,-2.5146,-2.5462,-2.6,-2.6185,-2.6135,-2.6472,-2.6674,-2.6708,-2.6708,-2.6791,-2.6971,-2.7178,-2.7439,-2.7833,-2.8139,-2.8515,-2.8658,-2.8887,-2.8975,-2.9021,-2.9254,-2.9456,-2.9551,-2.9842,-3.0041,-3.0174,-3.0311,-3.0311,-3.0234,-3.0316,-3.039,-3.0384,-3.0386,-3.0262,-2.9997,-3.0073,-3.0037,-2.9902,-2.9912,-2.9899,-2.9822,-3.0114,-3.0131,-3.0108,-3.06,-3.156,-3.1556,-3.2893,-3.3692,-3.3805,-3.3815,-3.3587,-3.323,-3.3532,-3.3788,-3.3807,-3.3807,-3.3807,-3.3807,-3.3807,-3.3813,-3.3843,-3.419,-3.4519,-3.467,-3.4705,-3.4921,-3.5214,-3.5428,-3.5696,-3.6359,-3.6753,-3.6782,-3.7062,-3.7875,-3.8672,-3.8466,-3.8514,-3.9317,-3.9357,-3.9418,-3.981,-3.9858,-3.9527,-3.94,-3.9708,-4.004,-4.0212,-4.0101,-3.9985,-3.9965,-4.0004,-3.9964,-4.0139,-1.8945,-1.8907,-1.8405,-1.8493,-1.8832,-1.843,-1.8576,-1.8955,-1.929,-2.021,-2.1478,-2.1802,-2.2672,-2.3595,-2.3595,-2.3595,-2.3595,-2.3724,-2.4158,-2.4729,-2.5431,-2.5896,-2.6051,-2.6387,-2.6573,-2.659,-2.6691,-2.6758,-2.6825,-2.6825,-2.7004,-2.7286,-2.7409,-2.7776,-2.8192,-2.8446,-2.8658,-2.8905,-2.903,-2.9081,-2.9152,-2.9372,-2.9608,-2.975,-2.9945,-3.017,-3.0324,-3.0398,-3.0379,-3.0398,-3.0398,-3.0362,-3.0337,-3.0333,-3.0381,-3.0348,-3.0328,-3.0271,-3.0133,-3.0228,-3.0215,-2.9931,-2.9958,-2.9777,-2.9582,-3.0099,-3.0256,-2.9646,-3.1709,-3.2907,-3.3736,-3.3684,-3.3036,-3.2515,-3.3028,-3.3587,-3.3732,-3.3787,-3.3842,-3.385,-3.385,-3.3827,-3.4091,-3.4666,-3.5308,-3.4996,-3.5,-3.5135,-3.523,-3.5304,-3.5514,-3.5856,-3.6083,-3.6174,-3.6591,-3.7062,-3.7832,-3.8232,-3.8146,-3.8446,-3.8398,-3.8594,-3.925,-3.9373,-3.8681,-3.8815,-3.9512,-3.9845,-4.0095,-4.0252,-4.0036,-4.0238,-4.0438,-4.0336,-4.0372,-1.838,-1.8367,-1.8254,-1.8267,-1.8355,-1.8254,-1.8495,-1.8976,-1.9493,-2.0378,-2.1584,-2.2221,-2.2876,-2.3595,-2.3595,-2.3595,-2.3681,-2.4048,-2.4742,-2.5644,-2.5821,-2.6236,-2.6454,-2.6674,-2.6691,-2.6708,-2.6708,-2.6873,-2.71,-2.7147,-2.7378,-2.7736,-2.7974,-2.8246,-2.842,-2.8725,-2.8905,-2.9012,-2.9187,-2.9285,-2.937,-2.9645,-2.9861,-2.9962,-3.0166,-3.0312,-3.0374,-3.0398,-3.0398,-3.0398,-3.0379,-3.0273,-3.0079,-3.0228,-3.0394,-3.0394,-3.0394,-3.0369,-3.033,-3.0355,-3.0355,-3.0215,-3.0061,-2.9935,-2.9826,-2.9793,-2.9663,-2.9175,-2.9721,-3.127,-3.2945,-3.2514,-3.1948,-3.1783,-3.2353,-3.3025,-3.3215,-3.3727,-3.4056,-3.4091,-3.3989,-3.3827,-3.3909,-3.4819,-3.5264,-3.5267,-3.5299,-3.5331,-3.5305,-3.5258,-3.5417,-3.5673,-3.5711,-3.5848,-3.6058,-3.6517,-3.7103,-3.7548,-3.751,-3.7435,-3.7379,-3.7498,-3.8016,-3.8007,-3.7642,-3.8123,-3.8911,-3.9277,-3.9454,-3.9738,-3.9988,-4.0162,-4.0258,-4.0354,-4.0489,-1.7358,-1.7368,-1.7376,-1.7576,-1.7785,-1.7798,-1.8074,-1.8607,-1.9196,-2.0287,-2.1509,-2.2103,-2.2759,-2.358,-2.3595,-2.3595,-2.3794,-2.443,-2.5068,-2.5653,-2.6061,-2.6499,-2.664,-2.6708,-2.6708,-2.6691,-2.6708,-2.6939,-2.721,-2.7378,-2.7589,-2.8102,-2.8342,-2.8489,-2.8658,-2.8905,-2.9049,-2.9191,-2.9304,-2.9465,-2.9588,-2.9839,-3.0072,-3.0155,-3.0343,-3.0398,-3.0398,-3.0398,-3.0398,-3.0398,-3.0398,-3.0323,-3.0106,-3.0241,-3.0379,-3.0398,-3.0398,-3.0398,-3.0398,-3.0398,-3.0343,-3.0241,-3.0182,-3.0066,-2.9954,-2.9829,-2.9691,-2.9363,-2.9316,-2.9835,-3.1307,-3.1737,-3.1103,-3.098,-3.2046,-3.2806,-3.2842,-3.3545,-3.4288,-3.4383,-3.44,-3.4374,-3.4623,-3.5116,-3.5321,-3.5395,-3.5388,-3.5415,-3.5431,-3.5383,-3.5412,-3.5552,-3.5528,-3.558,-3.5657,-3.5989,-3.6435,-3.6637,-3.6536,-3.6392,-3.6234,-3.6387,-3.6647,-3.6815,-3.7142,-3.743,-3.8123,-3.845,-3.87,-3.8854,-3.9142,-3.9623,-4.0008,-4.0142,-4.0315,-1.6288,-1.631,-1.6423,-1.6841,-1.7333,-1.7366,-1.7706,-1.8293,-1.8714,-1.9987,-2.1465,-2.1724,-2.2483,-2.3389,-2.3595,-2.3638,-2.4116,-2.4831,-2.546,-2.5758,-2.6347,-2.6623,-2.6708,-2.6708,-2.6774,-2.6757,-2.6873,-2.7068,-2.7365,-2.7482,-2.7918,-2.8394,-2.8515,-2.8682,-2.8929,-2.9062,-2.9177,-2.9343,-2.9502,-2.9608,-2.9769,-2.9984,-3.0182,-3.033,-3.0386,-3.0398,-3.0398,-3.0398,-3.0398,-3.0398,-3.0398,-3.0398,-3.0398,-3.0398,-3.0398,-3.0398,-3.0398,-3.0398,-3.0398,-3.0398,-3.0311,-3.0075,-3.0254,-3.0215,-2.9973,-2.9973,-2.9962,-2.9803,-2.9608,-2.9297,-2.9172,-3.0113,-3.0465,-3.0433,-3.1845,-3.2505,-3.2543,-3.3269,-3.4158,-3.4695,-3.4832,-3.4901,-3.499,-3.5305,-3.5415,-3.5489,-3.5498,-3.5507,-3.5507,-3.5507,-3.5507,-3.5507,-3.5507,-3.5507,-3.5565,-3.5661,-3.6084,-3.6065,-3.5892,-3.5757,-3.5551,-3.5762,-3.6161,-3.6661,-3.7007,-3.7123,-3.7219,-3.7526,-3.7757,-3.7911,-3.8373,-3.8969,-3.945,-3.9873,-4.0104,-1.5718,-1.5751,-1.6275,-1.6816,-1.7277,-1.731,-1.7867,-1.8707,-1.891,-1.9951,-2.156,-2.1724,-2.2453,-2.3286,-2.3595,-2.4032,-2.4744,-2.5368,-2.5921,-2.6206,-2.6606,-2.6708,-2.6708,-2.6824,-2.6931,-2.7183,-2.7339,-2.7574,-2.7811,-2.8084,-2.836,-2.8791,-2.8863,-2.8952,-2.9067,-2.9218,-2.9354,-2.9484,-2.972,-2.9867,-2.9988,-3.0169,-3.0311,-3.0398,-3.0398,-3.0398,-3.0398,-3.0398,-3.0398,-3.0398,-3.0398,-3.0398,-3.0398,-3.0398,-3.0398,-3.0398,-3.0398,-3.0398,-3.0398,-3.0398,-3.0367,-3.0355,-3.0386,-3.0398,-3.0286,-3.0286,-3.0245,-3.0221,-3.0101,-2.9832,-2.9101,-2.9851,-3.0169,-3.0393,-3.0899,-3.1539,-3.1827,-3.2813,-3.4033,-3.4541,-3.4958,-3.5358,-3.5358,-3.5373,-3.5436,-3.5498,-3.5493,-3.5507,-3.5507,-3.5507,-3.5526,-3.5507,-3.5507,-3.5507,-3.5507,-3.5584,-3.5757,-3.5757,-3.5661,-3.5661,-3.5526,-3.5507,-3.5815,-3.6219,-3.6257,-3.6103,-3.6295,-3.6642,-3.6815,-3.7007,-3.7642,-3.8334,-3.8642,-3.9008,-3.9738,-1.532,-1.5688,-1.6238,-1.6795,-1.7312,-1.7585,-1.8185,-1.8936,-1.9558,-2.0546,-2.152,-2.2069,-2.2495,-2.3133,-2.3505,-2.4067,-2.478,-2.5307,-2.5832,-2.626,-2.6545,-2.6708,-2.6757,-2.6965,-2.7148,-2.7454,-2.7897,-2.817,-2.8174,-2.8272,-2.8633,-2.8887,-2.8975,-2.9067,-2.9181,-2.933,-2.9526,-2.968,-2.9895,-3.0071,-3.0194,-3.0343,-3.0398,-3.0398,-3.0398,-3.0398,-3.0398,-3.0398,-3.0398,-3.0398,-3.0398,-3.0398,-3.0398,-3.0398,-3.0398,-3.0398,-3.0398,-3.0398,-3.0398,-3.0398,-3.0379,-3.0398,-3.0398,-3.0398,-3.0398,-3.0386,-3.0394,-3.04,-3.0388,-3.0238,-2.9807,-2.9994,-3.019,-3.0437,-3.0891,-3.1264,-3.1694,-3.2661,-3.3374,-3.4087,-3.4755,-3.5163,-3.5446,-3.546,-3.5474,-3.5507,-3.5507,-3.5507,-3.5507,-3.5526,-3.5545,-3.5566,-3.556,-3.5591,-3.5577,-3.5631,-3.5669,-3.5624,-3.5573,-3.5573,-3.554,-3.5553,-3.552,-3.568,-3.5526,-3.5526,-3.5622,-3.6045,-3.6084,-3.6199,-3.6834,-3.7411,-3.7719,-3.818,-3.8892,-1.5017,-1.5466,-1.6194,-1.6795,-1.7353,-1.7854,-1.838,-1.904,-1.9989,-2.0873,-2.1739,-2.2226,-2.261,-2.3053,-2.3637,-2.4212,-2.461,-2.5224,-2.5847,-2.6193,-2.6557,-2.6708,-2.6855,-2.72,-2.749,-2.7629,-2.8389,-2.8778,-2.8448,-2.8515,-2.8707,-2.891,-2.8975,-2.9115,-2.933,-2.9435,-2.9683,-2.9901,-3.0087,-3.0196,-3.0355,-3.0398,-3.0398,-3.0398,-3.0398,-3.0398,-3.0398,-3.0398,-3.0398,-3.0398,-3.0417,-3.0417,-3.0398,-3.0417,-3.0417,-3.0398,-3.0398,-3.0398,-3.0398,-3.0398,-3.0398,-3.0398,-3.0398,-3.0398,-3.0398,-3.0398,-3.0388,-3.0398,-3.0395,-3.0395,-3.0261,-3.0357,-3.0387,-3.049,-3.095,-3.1455,-3.1539,-3.2,-3.2449,-3.3288,-3.4314,-3.4699,-3.4724,-3.5501,-3.5501,-3.5488,-3.5507,-3.5507,-3.5507,-3.5545,-3.5578,-3.5637,-3.5666,-3.5695,-3.5699,-3.5721,-3.5747,-3.5736,-3.5687,-3.5667,-3.5647,-3.5624,-3.5579,-3.5566,-3.5565,-3.5565,-3.5545,-3.5488,-3.568,-3.593,-3.6199,-3.6435,-3.6704,-3.7224,-3.7911,-1.4744,-1.4926,-1.6064,-1.6795,-1.7353,-1.7921,-1.8419,-1.8968,-1.9641,-2.0535,-2.1685,-2.1882,-2.2511,-2.345,-2.4436,-2.4934,-2.5313,-2.5885,-2.6378,-2.6543,-2.6673,-2.6708,-2.6791,-2.726,-2.7603,-2.7843,-2.8612,-2.8724,-2.8619,-2.8779,-2.891,-2.9017,-2.9067,-2.9138,-2.9474,-2.9607,-2.9773,-3.0007,-3.0237,-3.0355,-3.0398,-3.0398,-3.0398,-3.0398,-3.0398,-3.0398,-3.0398,-3.0398,-3.0398,-3.0417,-3.0467,-3.0467,-3.0436,-3.0506,-3.0487,-3.0436,-3.0398,-3.0398,-3.0398,-3.0398,-3.0398,-3.0398,-3.0398,-3.0398,-3.0398,-3.0398,-3.0386,-3.0386,-3.0381,-3.0388,-3.0407,-3.04,-3.0386,-3.0405,-3.059,-3.0698,-3.0794,-3.1295,-3.1737,-3.1968,-3.2833,-3.334,-3.3609,-3.4655,-3.5495,-3.5501,-3.5507,-3.5507,-3.5545,-3.5603,-3.5687,-3.5745,-3.5782,-3.5803,-3.5827,-3.5816,-3.5762,-3.5801,-3.5801,-3.5762,-3.5779,-3.5747,-3.5681,-3.5656,-3.565,-3.5612,-3.5572,-3.554,-3.5495,-3.5641,-3.5892,-3.582,-3.5657,-3.6286,-3.7046,-1.4869,-1.5287,-1.6139,-1.7005,-1.7747,-1.8013,-1.8574,-1.9362,-2.0002,-2.0783,-2.1655,-2.2127,-2.271,-2.3524,-2.4286,-2.4746,-2.5109,-2.5952,-2.6487,-2.6674,-2.6708,-2.6708,-2.6856,-2.7347,-2.7808,-2.8058,-2.8584,-2.9067,-2.8962,-2.8962,-2.9062,-2.9185,-2.9246,-2.9416,-2.9604,-2.9813,-3.0015,-3.0204,-3.0356,-3.0398,-3.0398,-3.0398,-3.0398,-3.0398,-3.0398,-3.0398,-3.0398,-3.0398,-3.0417,-3.0448,-3.0487,-3.0479,-3.0453,-3.0462,-3.0436,-3.0417,-3.0398,-3.0398,-3.0398,-3.0398,-3.0398,-3.0398,-3.0398,-3.0398,-3.0398,-3.0398,-3.0398,-3.0398,-3.0398,-3.0398,-3.0398,-3.0398,-3.0398,-3.0398,-3.0398,-3.0398,-3.0436,-3.0609,-3.0994,-3.1129,-3.1321,-3.1898,-3.2648,-3.3827,-3.4899,-3.5515,-3.554,-3.5545,-3.5622,-3.5718,-3.5805,-3.588,-3.5896,-3.5912,-3.5932,-3.5918,-3.5742,-3.5742,-3.582,-3.582,-3.5918,-3.5914,-3.5648,-3.5621,-3.5669,-3.5631,-3.5591,-3.5601,-3.5586,-3.5572,-3.5584,-3.5572,-3.556,-3.5694,-3.6477,-1.4824,-1.5454,-1.6194,-1.7034,-1.7894,-1.8066,-1.8612,-1.9523,-2.014,-2.0887,-2.1813,-2.2607,-2.3152,-2.3367,-2.4143,-2.4891,-2.4879,-2.5766,-2.6298,-2.664,-2.6809,-2.686,-2.7141,-2.7617,-2.8013,-2.8036,-2.8672,-2.9071,-2.9243,-2.9228,-2.9153,-2.9174,-2.9343,-2.9455,-2.9665,-2.9884,-3.0114,-3.033,-3.0386,-3.0398,-3.0417,-3.0448,-3.0448,-3.0448,-3.0417,-3.0436,-3.0436,-3.0467,-3.0487,-3.0525,-3.0564,-3.055,-3.0522,-3.0509,-3.0471,-3.0436,-3.0417,-3.0398,-3.0398,-3.0398,-3.0398,-3.0398,-3.0398,-3.0398,-3.0398,-3.0398,-3.0398,-3.0398,-3.0398,-3.0398,-3.0398,-3.0398,-3.0398,-3.0398,-3.0398,-3.0398,-3.0417,-3.0552,-3.0648,-3.0775,-3.084,-3.0706,-3.1609,-3.2923,-3.4109,-3.5239,-3.5572,-3.5565,-3.5578,-3.5611,-3.5557,-3.5547,-3.5801,-3.5684,-3.541,-3.5488,-3.5469,-3.5391,-3.5449,-3.5332,-3.5078,-3.5215,-3.5191,-3.5299,-3.5455,-3.5468,-3.5336,-3.5503,-3.5674,-3.5635,-3.5609,-3.5643,-3.567,-3.5712,-3.6014,-1.419,-1.4835,-1.6008,-1.6879,-1.7463,-1.7907,-1.8458,-1.9132,-1.9596,-2.0526,-2.1805,-2.324,-2.3358,-2.3215,-2.4511,-2.5318,-2.4873,-2.6101,-2.6539,-2.6826,-2.7046,-2.7179,-2.7431,-2.7811,-2.8308,-2.8396,-2.8838,-2.9163,-2.9372,-2.9455,-2.9045,-2.8628,-2.9207,-2.9188,-2.9379,-2.9765,-3.0144,-3.0355,-3.0398,-3.0436,-3.0487,-3.0525,-3.0556,-3.051,-3.0537,-3.0544,-3.0487,-3.0521,-3.0575,-3.0595,-3.0641,-3.0634,-3.058,-3.0607,-3.0576,-3.0467,-3.0448,-3.0417,-3.0417,-3.0398,-3.0398,-3.0398,-3.0398,-3.0398,-3.0398,-3.0398,-3.0398,-3.0398,-3.0398,-3.0398,-3.0398,-3.0398,-3.0398,-3.0398,-3.0398,-3.0398,-3.0417,-3.0467,-3.0544,-3.0525,-3.0521,-3.0499,-3.0752,-3.2135,-3.4047,-3.5276,-3.529,-3.5282,-3.5188,-3.5191,-3.5053,-3.5098,-3.5508,-3.5332,-3.4648,-3.4551,-3.4512,-3.4219,-3.4043,-3.3848,-3.3594,-3.3887,-3.4551,-3.4642,-3.4729,-3.492,-3.5191,-3.5482,-3.5682,-3.5643,-3.5643,-3.5741,-3.576,-3.5779,-3.6117,-1.4143,-1.4789,-1.5983,-1.6954,-1.7827,-1.838,-1.8893,-1.9369,-1.9617,-2.0328,-2.1547,-2.2885,-2.3195,-2.3264,-2.4579,-2.5478,-2.521,-2.6441,-2.6719,-2.6995,-2.7266,-2.7338,-2.7511,-2.7815,-2.8427,-2.8512,-2.8935,-2.9355,-2.957,-2.9661,-2.9364,-2.9165,-2.9121,-2.9093,-2.9245,-2.9762,-3.0203,-3.0355,-3.0398,-3.0436,-3.0506,-3.0595,-3.0634,-3.0563,-3.0571,-3.0588,-3.0565,-3.0571,-3.0608,-3.0651,-3.0694,-3.068,-3.0637,-3.0722,-3.0666,-3.051,-3.0487,-3.0498,-3.0441,-3.0429,-3.0398,-3.0398,-3.0398,-3.0398,-3.0398,-3.0398,-3.0398,-3.0398,-3.0398,-3.0417,-3.0398,-3.0398,-3.0398,-3.0398,-3.0398,-3.0417,-3.0467,-3.0506,-3.0543,-3.0565,-3.0577,-3.0556,-3.0896,-3.139,-3.3461,-3.5281,-3.5125,-3.4943,-3.4789,-3.459,-3.4394,-3.4277,-3.4609,-3.4434,-3.375,-3.3594,-3.3555,-3.3144,-3.2734,-3.2598,-3.2539,-3.3281,-3.3828,-3.3906,-3.4141,-3.4512,-3.4941,-3.5488,-3.5723,-3.5742,-3.5801,-3.5899,-3.5899,-3.5879,-3.6152,-1.4165,-1.4834,-1.6089,-1.7218,-1.8131,-1.8688,-1.9266,-1.9823,-1.9914,-2.0327,-2.1308,-2.2585,-2.2883,-2.3041,-2.443,-2.509,-2.5115,-2.5924,-2.6381,-2.6647,-2.6857,-2.7017,-2.7085,-2.7457,-2.8091,-2.8429,-2.8814,-2.9213,-2.978,-2.9939,-2.9574,-2.9187,-2.8969,-2.9032,-2.9267,-2.9929,-3.0379,-3.0398,-3.0398,-3.0448,-3.0506,-3.0597,-3.0644,-3.0618,-3.0668,-3.0681,-3.0671,-3.0678,-3.0725,-3.0762,-3.0773,-3.0737,-3.0748,-3.0756,-3.0703,-3.0623,-3.0564,-3.0598,-3.0537,-3.0483,-3.0448,-3.0487,-3.0487,-3.0467,-3.0448,-3.0429,-3.0398,-3.0398,-3.0417,-3.0448,-3.0429,-3.0436,-3.0467,-3.0487,-3.0487,-3.0506,-3.0525,-3.0564,-3.0606,-3.0627,-3.0637,-3.0697,-3.0819,-3.1235,-3.2613,-3.418,-3.4082,-3.3984,-3.4004,-3.3789,-3.3535,-3.3457,-3.3516,-3.3164,-3.2715,-3.2871,-3.291,-3.2187,-3.1836,-3.166,-3.1797,-3.2539,-3.2793,-3.2578,-3.3027,-3.3965,-3.4414,-3.4609,-3.5234,-3.5898,-3.5937,-3.5976,-3.5976,-3.5957,-3.5957,-1.4172,-1.4901,-1.6476,-1.7531,-1.8185,-1.8688,-1.9419,-2.0162,-2.0304,-2.0605,-2.1244,-2.2735,-2.287,-2.2488,-2.412,-2.4625,-2.4601,-2.5306,-2.5754,-2.5935,-2.6498,-2.6437,-2.6603,-2.7047,-2.7723,-2.8234,-2.8623,-2.9117,-2.9836,-3.0009,-2.9673,-2.9421,-2.931,-2.9194,-2.9217,-2.9987,-3.0379,-3.0398,-3.0398,-3.0467,-3.0513,-3.0597,-3.0655,-3.0664,-3.0769,-3.0789,-3.0749,-3.0794,-3.084,-3.0859,-3.0879,-3.084,-3.082,-3.0762,-3.0714,-3.0689,-3.0702,-3.0675,-3.06,-3.0588,-3.0593,-3.0574,-3.0567,-3.0565,-3.054,-3.0491,-3.0447,-3.0481,-3.0516,-3.0532,-3.051,-3.0491,-3.0532,-3.0593,-3.0604,-3.0579,-3.0598,-3.0614,-3.0634,-3.071,-3.0825,-3.0897,-3.0894,-3.1177,-3.2137,-3.291,-3.291,-3.2969,-3.3047,-3.2871,-3.2559,-3.25,-3.2461,-3.2266,-3.2012,-3.2324,-3.2207,-3.1445,-3.1094,-3.1094,-3.1211,-3.1777,-3.1777,-3.1387,-3.2148,-3.3301,-3.3476,-3.3535,-3.4512,-3.5488,-3.5898,-3.5996,-3.6016,-3.6016,-3.6016,-1.4367,-1.5349,-1.6667,-1.776,-1.8644,-1.9199,-1.9788,-2.0299,-2.0618,-2.1022,-2.1439,-2.2173,-2.2466,-2.2737,-2.3495,-2.4357,-2.4717,-2.5523,-2.5984,-2.5708,-2.6336,-2.6414,-2.6472,-2.673,-2.7306,-2.774,-2.8196,-2.8669,-2.916,-2.9754,-3.0132,-2.9994,-2.9759,-2.964,-2.9506,-2.991,-3.0398,-3.0417,-3.0487,-3.0544,-3.0518,-3.0665,-3.0734,-3.0691,-3.081,-3.0859,-3.082,-3.0879,-3.0898,-3.0918,-3.0918,-3.0879,-3.084,-3.0762,-3.0758,-3.072,-3.0714,-3.082,-3.08,-3.0792,-3.0711,-3.0665,-3.0626,-3.0626,-3.0587,-3.0626,-3.0607,-3.0607,-3.0626,-3.0665,-3.075,-3.0614,-3.063,-3.0727,-3.0742,-3.0656,-3.0655,-3.0678,-3.0712,-3.0784,-3.0897,-3.0918,-3.0918,-3.0918,-3.1699,-3.2109,-3.2187,-3.1953,-3.1953,-3.1738,-3.1465,-3.1445,-3.1406,-3.1309,-3.1328,-3.168,-3.1758,-3.123,-3.0996,-3.0976,-3.1133,-3.1328,-3.125,-3.1133,-3.1875,-3.2617,-3.2812,-3.3164,-3.418,-3.5019,-3.5527,-3.5937,-3.6016,-3.6016,-3.6016,-1.4658,-1.5637,-1.6934,-1.8163,-1.9111,-1.9677,-2.0227,-2.0765,-2.1244,-2.1642,-2.1938,-2.1997,-2.2324,-2.2927,-2.353,-2.3978,-2.4585,-2.5248,-2.5596,-2.5393,-2.6042,-2.5982,-2.5987,-2.6333,-2.6706,-2.715,-2.7662,-2.8192,-2.8612,-2.955,-3.0079,-3.0287,-3.0229,-2.9911,-2.9835,-3.0258,-3.0487,-3.0506,-3.0544,-3.0574,-3.0606,-3.0685,-3.0762,-3.0759,-3.082,-3.0898,-3.0918,-3.0918,-3.0918,-3.0918,-3.0898,-3.0859,-3.084,-3.082,-3.082,-3.0779,-3.0798,-3.0892,-3.0895,-3.0891,-3.081,-3.0751,-3.0703,-3.0693,-3.0712,-3.0751,-3.0751,-3.0751,-3.0762,-3.0801,-3.0859,-3.0723,-3.0762,-3.084,-3.082,-3.0762,-3.0762,-3.0781,-3.0781,-3.0879,-3.0898,-3.0898,-3.0918,-3.0918,-3.1152,-3.1348,-3.1504,-3.1269,-3.1074,-3.0996,-3.0918,-3.0937,-3.0957,-3.1016,-3.1016,-3.1094,-3.1094,-3.0937,-3.0918,-3.0918,-3.0937,-3.1094,-3.0976,-3.0918,-3.1426,-3.1894,-3.2266,-3.2871,-3.3926,-3.4746,-3.5312,-3.5664,-3.5937,-3.6016,-3.6016,-1.5028,-1.578,-1.7393,-1.868,-1.9634,-2.025,-2.0911,-2.1612,-2.2094,-2.2443,-2.2703,-2.2669,-2.2922,-2.3234,-2.3624,-2.3868,-2.4069,-2.4541,-2.4692,-2.481,-2.5378,-2.5256,-2.538,-2.5595,-2.6095,-2.6569,-2.7133,-2.7778,-2.8145,-2.9077,-2.985,-3.0301,-3.0047,-3.0075,-3.0358,-3.053,-3.0601,-3.0584,-3.0588,-3.0602,-3.0614,-3.069,-3.0733,-3.0749,-3.082,-3.0898,-3.0918,-3.0918,-3.0918,-3.0918,-3.0918,-3.0918,-3.0918,-3.0918,-3.0898,-3.0879,-3.0879,-3.0898,-3.0918,-3.0918,-3.0918,-3.0859,-3.0879,-3.0898,-3.0879,-3.0859,-3.0859,-3.0859,-3.0859,-3.0879,-3.0898,-3.0879,-3.0879,-3.0898,-3.0898,-3.0879,-3.0879,-3.0898,-3.0898,-3.0918,-3.0918,-3.0918,-3.0918,-3.0918,-3.0918,-3.1016,-3.1191,-3.1133,-3.0976,-3.0976,-3.0918,-3.0918,-3.0937,-3.0918,-3.0918,-3.0918,-3.0918,-3.0918,-3.0918,-3.0918,-3.0918,-3.0918,-3.0918,-3.0918,-3.0898,-3.1152,-3.1562,-3.25,-3.373,-3.4434,-3.5019,-3.5664,-3.6016,-3.6016,-3.6016,-1.5504,-1.6771,-1.7733,-1.9008,-2.0509,-2.1532,-2.1956,-2.2062,-2.2621,-2.3022,-2.3041,-2.3215,-2.3456,-2.3775,-2.4044,-2.4263,-2.4505,-2.4753,-2.4907,-2.5053,-2.519,-2.5329,-2.543,-2.5488,-2.5703,-2.6259,-2.6909,-2.7465,-2.7621,-2.8526,-2.9775,-3.0428,-3.0195,-3.0431,-3.0625,-3.0782,-3.0673,-3.0649,-3.0647,-3.0653,-3.0672,-3.076,-3.0761,-3.0773,-3.081,-3.0879,-3.0879,-3.0879,-3.0879,-3.0898,-3.0898,-3.0898,-3.0918,-3.0918,-3.0898,-3.0918,-3.0918,-3.0918,-3.0918,-3.0918,-3.0898,-3.0898,-3.0898,-3.0918,-3.0918,-3.0898,-3.0898,-3.0918,-3.0918,-3.0918,-3.0898,-3.0898,-3.0898,-3.0898,-3.0898,-3.0879,-3.0879,-3.0879,-3.0879,-3.0879,-3.0879,-3.0918,-3.0918,-3.0918,-3.0918,-3.0918,-3.0918,-3.0918,-3.0918,-3.0918,-3.0918,-3.0918,-3.0918,-3.0918,-3.0918,-3.0918,-3.0918,-3.0918,-3.0918,-3.0918,-3.0918,-3.0918,-3.0918,-3.0882,-3.0812,-3.0781,-3.0859,-3.1953,-3.3164,-3.4062,-3.4707,-3.5449,-3.6016,-3.5976,-3.5996,-1.5816,-1.7136,-1.826,-1.973,-2.1456,-2.277,-2.3137,-2.3018,-2.3144,-2.3284,-2.3509,-2.3646,-2.3914,-2.4293,-2.4456,-2.4594,-2.476,-2.4978,-2.511,-2.517,-2.5405,-2.548,-2.5547,-2.5586,-2.5879,-2.6388,-2.6952,-2.7498,-2.7708,-2.8593,-2.9843,-3.0579,-3.0443,-3.0466,-3.0543,-3.04,-3.0373,-3.055,-3.07,-3.0733,-3.0774,-3.0835,-3.0806,-3.0793,-3.082,-3.0801,-3.0825,-3.0801,-3.0801,-3.0782,-3.0782,-3.0781,-3.082,-3.084,-3.0918,-3.0918,-3.0918,-3.0859,-3.082,-3.082,-3.082,-3.0814,-3.0813,-3.0801,-3.084,-3.084,-3.0879,-3.0918,-3.0918,-3.0918,-3.0879,-3.0859,-3.0879,-3.0879,-3.0859,-3.082,-3.082,-3.082,-3.082,-3.082,-3.0859,-3.0898,-3.0918,-3.0918,-3.0918,-3.0918,-3.0918,-3.0918,-3.0918,-3.0918,-3.0918,-3.0918,-3.0918,-3.0918,-3.0918,-3.0918,-3.0918,-3.0918,-3.0918,-3.0918,-3.0918,-3.0898,-3.0879,-3.081,-3.0719,-3.0704,-3.0691,-3.1396,-3.2441,-3.3283,-3.42,-3.5078,-3.5605,-3.5801,-3.5859,-1.6039,-1.7182,-1.9053,-2.0892,-2.2511,-2.3724,-2.4259,-2.4275,-2.3692,-2.3613,-2.4026,-2.4076,-2.4388,-2.4726,-2.4847,-2.4847,-2.4972,-2.5149,-2.5239,-2.522,-2.5426,-2.5565,-2.558,-2.5679,-2.6012,-2.6622,-2.7267,-2.7879,-2.8564,-2.9201,-2.9807,-3.0579,-3.0047,-3.0058,-3.0496,-3.0113,-3.0155,-3.0559,-3.0719,-3.0806,-3.0797,-3.0839,-3.0858,-3.0832,-3.0761,-3.0693,-3.0684,-3.0662,-3.0601,-3.0601,-3.062,-3.0639,-3.0686,-3.0742,-3.084,-3.0859,-3.084,-3.0781,-3.0734,-3.0722,-3.0697,-3.0677,-3.065,-3.0672,-3.0711,-3.0754,-3.0801,-3.0859,-3.0859,-3.0898,-3.0898,-3.0765,-3.073,-3.0728,-3.0704,-3.0726,-3.0759,-3.0749,-3.073,-3.0736,-3.0762,-3.0801,-3.0859,-3.084,-3.0859,-3.0879,-3.0859,-3.0859,-3.0859,-3.0859,-3.0879,-3.0879,-3.0859,-3.0859,-3.0918,-3.0918,-3.0918,-3.0918,-3.0898,-3.0859,-3.084,-3.0821,-3.0835,-3.0722,-3.0621,-3.0621,-3.0753,-3.1263,-3.1702,-3.2344,-3.3336,-3.4554,-3.5132,-3.544,-3.5723,-1.5874,-1.7835,-2.07,-2.2424,-2.3232,-2.4137,-2.4607,-2.4742,-2.4598,-2.4506,-2.4634,-2.4746,-2.4889,-2.5009,-2.5154,-2.5189,-2.5187,-2.5219,-2.5341,-2.5318,-2.543,-2.5437,-2.5502,-2.5502,-2.6083,-2.6828,-2.758,-2.8512,-2.9421,-2.9683,-2.9767,-3.0498,-3.0171,-3.0297,-3.0501,-3.0106,-3.0313,-3.0578,-3.0671,-3.071,-3.0667,-3.0672,-3.0667,-3.0677,-3.0634,-3.0617,-3.0607,-3.0601,-3.0597,-3.0616,-3.0606,-3.0606,-3.0616,-3.0646,-3.0676,-3.0667,-3.0691,-3.0646,-3.0645,-3.0644,-3.0627,-3.0623,-3.0607,-3.0606,-3.0623,-3.0658,-3.0687,-3.075,-3.0808,-3.0867,-3.0872,-3.0723,-3.0599,-3.0583,-3.0567,-3.0634,-3.0687,-3.0662,-3.0646,-3.0646,-3.0665,-3.07,-3.0745,-3.0769,-3.0789,-3.0762,-3.0703,-3.0664,-3.0684,-3.0684,-3.0781,-3.0801,-3.0762,-3.0781,-3.084,-3.0898,-3.0898,-3.0823,-3.0762,-3.0762,-3.074,-3.0715,-3.0693,-3.0617,-3.0544,-3.0544,-3.0525,-3.0609,-3.107,-3.1623,-3.2029,-3.3035,-3.4475,-3.5078,-3.5446,-1.5526,-1.8394,-2.2049,-2.3678,-2.395,-2.4645,-2.4947,-2.4925,-2.4943,-2.4924,-2.4955,-2.5055,-2.5132,-2.518,-2.5344,-2.5249,-2.521,-2.5263,-2.5204,-2.521,-2.5203,-2.5208,-2.5233,-2.5264,-2.6184,-2.6983,-2.8322,-2.943,-3.0085,-2.9963,-2.9884,-3.02,-3.0219,-3.0232,-3.0286,-3.033,-3.0417,-3.0487,-3.054,-3.0527,-3.0496,-3.0535,-3.0593,-3.0613,-3.0586,-3.0539,-3.0537,-3.0525,-3.0506,-3.0506,-3.0498,-3.0498,-3.051,-3.0552,-3.0586,-3.0607,-3.0613,-3.0574,-3.0568,-3.0528,-3.0521,-3.0513,-3.0499,-3.0486,-3.0535,-3.0557,-3.0604,-3.0671,-3.069,-3.0729,-3.0787,-3.0704,-3.0549,-3.0462,-3.0472,-3.052,-3.0568,-3.0586,-3.0565,-3.0565,-3.0565,-3.0539,-3.0565,-3.0574,-3.0593,-3.0651,-3.0593,-3.0571,-3.0571,-3.0556,-3.0639,-3.0691,-3.0661,-3.066,-3.0723,-3.0801,-3.0859,-3.0777,-3.0659,-3.0636,-3.0621,-3.0593,-3.055,-3.0505,-3.0487,-3.0467,-3.0467,-3.0467,-3.0506,-3.0959,-3.1137,-3.1398,-3.3,-3.4686,-3.5203,-1.5397,-1.9156,-2.2746,-2.4245,-2.4281,-2.4853,-2.5047,-2.4928,-2.4856,-2.488,-2.482,-2.4795,-2.4985,-2.5165,-2.5162,-2.5066,-2.4943,-2.4805,-2.4801,-2.4849,-2.4812,-2.483,-2.4818,-2.4903,-2.5895,-2.7121,-2.8521,-2.9257,-2.9817,-2.9393,-2.9141,-2.9494,-2.9623,-2.9626,-2.9779,-2.9958,-3.0062,-3.0215,-3.0278,-3.0305,-3.0356,-3.0451,-3.0444,-3.0482,-3.0489,-3.0419,-3.0388,-3.0362,-3.0343,-3.0273,-3.0247,-3.0272,-3.0311,-3.0349,-3.0381,-3.0407,-3.0407,-3.0388,-3.0363,-3.0312,-3.0337,-3.0343,-3.0349,-3.0349,-3.0356,-3.0407,-3.0439,-3.0547,-3.0547,-3.0595,-3.0652,-3.0645,-3.0487,-3.039,-3.0421,-3.0421,-3.046,-3.0498,-3.0506,-3.0506,-3.0467,-3.0429,-3.041,-3.0421,-3.0448,-3.0506,-3.0544,-3.0525,-3.051,-3.049,-3.052,-3.0546,-3.0545,-3.0554,-3.0626,-3.0672,-3.0768,-3.0707,-3.0601,-3.0548,-3.0518,-3.0507,-3.0479,-3.0475,-3.0448,-3.0436,-3.0417,-3.0417,-3.0467,-3.0525,-3.0636,-3.1027,-3.2558,-3.4103,-3.4968,-1.6422,-2.0975,-2.1749,-2.2344,-2.2949,-2.363,-2.4175,-2.4511,-2.4207,-2.4175,-2.3932,-2.3783,-2.3951,-2.4523,-2.428,-2.4135,-2.4045,-2.4062,-2.4295,-2.4393,-2.4336,-2.4385,-2.451,-2.4684,-2.5518,-2.6688,-2.7901,-2.8708,-2.8726,-2.8179,-2.8098,-2.8592,-2.8683,-2.8749,-2.8893,-2.9213,-2.9699,-2.9877,-2.9964,-2.9986,-2.9912,-2.9973,-3.0056,-3.0075,-3.0114,-2.9992,-2.9946,-3.0003,-2.9958,-2.9896,-2.9864,-2.9953,-3.0026,-3.0079,-3.0098,-3.0076,-3.0095,-3.0041,-3.0,-3.0,-3.0,-2.9965,-2.9962,-2.9927,-2.9931,-2.9931,-3.0076,-3.0331,-3.0371,-3.0401,-3.0458,-3.0489,-3.0393,-3.0398,-3.041,-3.041,-3.0429,-3.0429,-3.0429,-3.0436,-3.0429,-3.041,-3.041,-3.041,-3.041,-3.0448,-3.0448,-3.0448,-3.0448,-3.0436,-3.0417,-3.0425,-3.0449,-3.0524,-3.0595,-3.0588,-3.0636,-3.0565,-3.0524,-3.0491,-3.0448,-3.0417,-3.0436,-3.0679,-3.0564,-3.0448,-3.0417,-3.0571,-3.0398,-3.0436,-3.0424,-3.0931,-3.2378,-3.3487,-3.4327]}]]